<?xml version='1.0' encoding='UTF-8'?>
<gpx version="1.1" creator="https://www.komoot.de" xmlns="http://www.topografix.com/GPX/1/1" xmlns:xsi="http://www.w3.org/2001/XMLSchema-instance" xsi:schemaLocation="http://www.topografix.com/GPX/1/1 http://www.topografix.com/GPX/1/1/gpx.xsd">
  <metadata>
    <name>Randonnée du souvenir</name>
    <author>
      <link href="https://www.komoot.de">
        <text>komoot</text>
        <type>text/html</type>
      </link>
    </author>
  </metadata>
  <trk>
    <name>Randonnée du souvenir</name>
    <trkseg>
      <trkpt lat="48.884289" lon="2.269697">
        <ele>42.655791</ele>
        <time>2021-11-04T15:02:30.189Z</time>
      </trkpt>
      <trkpt lat="48.884266" lon="2.269802">
        <ele>42.655791</ele>
        <time>2021-11-04T15:02:31.712Z</time>
      </trkpt>
      <trkpt lat="48.884127" lon="2.270393">
        <ele>42.655791</ele>
        <time>2021-11-04T15:02:40.169Z</time>
      </trkpt>
      <trkpt lat="48.883973" lon="2.271054">
        <ele>42.685827</ele>
        <time>2021-11-04T15:02:49.624Z</time>
      </trkpt>
      <trkpt lat="48.883902" lon="2.271345">
        <ele>42.815346</ele>
        <time>2021-11-04T15:02:53.844Z</time>
      </trkpt>
      <trkpt lat="48.883872" lon="2.271475">
        <ele>42.872837</ele>
        <time>2021-11-04T15:02:55.665Z</time>
      </trkpt>
      <trkpt lat="48.883832" lon="2.271648">
        <ele>42.949359</ele>
        <time>2021-11-04T15:02:57.673Z</time>
      </trkpt>
      <trkpt lat="48.883832" lon="2.271648">
        <ele>42.949359</ele>
        <time>2021-11-04T15:02:57.696Z</time>
      </trkpt>
      <trkpt lat="48.883832" lon="2.271648">
        <ele>42.949359</ele>
        <time>2021-11-04T15:02:57.750Z</time>
      </trkpt>
      <trkpt lat="48.883819" lon="2.271701">
        <ele>42.972964</ele>
        <time>2021-11-04T15:02:58.371Z</time>
      </trkpt>
      <trkpt lat="48.883793" lon="2.271816">
        <ele>43.023709</ele>
        <time>2021-11-04T15:02:59.915Z</time>
      </trkpt>
      <trkpt lat="48.883709" lon="2.272177">
        <ele>43.183501</ele>
        <time>2021-11-04T15:03:04.639Z</time>
      </trkpt>
      <trkpt lat="48.883664" lon="2.272371">
        <ele>43.269344</ele>
        <time>2021-11-04T15:03:07.284Z</time>
      </trkpt>
      <trkpt lat="48.883627" lon="2.272531">
        <ele>43.340118</ele>
        <time>2021-11-04T15:03:09.351Z</time>
      </trkpt>
      <trkpt lat="48.883408" lon="2.273518">
        <ele>43.774794</ele>
        <time>2021-11-04T15:03:20.275Z</time>
      </trkpt>
      <trkpt lat="48.883531" lon="2.273565">
        <ele>43.703700</ele>
        <time>2021-11-04T15:03:21.879Z</time>
      </trkpt>
      <trkpt lat="48.883603" lon="2.273590">
        <ele>43.628342</ele>
        <time>2021-11-04T15:03:22.865Z</time>
      </trkpt>
      <trkpt lat="48.883659" lon="2.273597">
        <ele>43.571008</ele>
        <time>2021-11-04T15:03:23.617Z</time>
      </trkpt>
      <trkpt lat="48.883721" lon="2.273564">
        <ele>43.503981</ele>
        <time>2021-11-04T15:03:24.385Z</time>
      </trkpt>
      <trkpt lat="48.883785" lon="2.273501">
        <ele>43.426189</ele>
        <time>2021-11-04T15:03:25.309Z</time>
      </trkpt>
      <trkpt lat="48.883869" lon="2.273372">
        <ele>43.304375</ele>
        <time>2021-11-04T15:03:26.757Z</time>
      </trkpt>
      <trkpt lat="48.883999" lon="2.273440">
        <ele>43.164097</ele>
        <time>2021-11-04T15:03:28.510Z</time>
      </trkpt>
      <trkpt lat="48.884587" lon="2.273750">
        <ele>42.529080</ele>
        <time>2021-11-04T15:03:35.751Z</time>
      </trkpt>
      <trkpt lat="48.885026" lon="2.273982">
        <ele>42.054855</ele>
        <time>2021-11-04T15:03:41.184Z</time>
      </trkpt>
      <trkpt lat="48.885050" lon="2.273995">
        <ele>42.028859</ele>
        <time>2021-11-04T15:03:41.424Z</time>
      </trkpt>
      <trkpt lat="48.885112" lon="2.274027">
        <ele>41.962051</ele>
        <time>2021-11-04T15:03:42.276Z</time>
      </trkpt>
      <trkpt lat="48.885181" lon="2.274064">
        <ele>41.883942</ele>
        <time>2021-11-04T15:03:43.211Z</time>
      </trkpt>
      <trkpt lat="48.885205" lon="2.274076">
        <ele>41.856967</ele>
        <time>2021-11-04T15:03:43.561Z</time>
      </trkpt>
      <trkpt lat="48.885385" lon="2.274171">
        <ele>41.653532</ele>
        <time>2021-11-04T15:03:45.876Z</time>
      </trkpt>
      <trkpt lat="48.885794" lon="2.274387">
        <ele>41.191252</ele>
        <time>2021-11-04T15:03:51.253Z</time>
      </trkpt>
      <trkpt lat="48.885859" lon="2.274421">
        <ele>41.117859</ele>
        <time>2021-11-04T15:03:52.130Z</time>
      </trkpt>
      <trkpt lat="48.885876" lon="2.274430">
        <ele>41.098640</ele>
        <time>2021-11-04T15:03:52.389Z</time>
      </trkpt>
      <trkpt lat="48.885908" lon="2.274448">
        <ele>41.062210</ele>
        <time>2021-11-04T15:03:52.805Z</time>
      </trkpt>
      <trkpt lat="48.886389" lon="2.274711">
        <ele>40.516451</ele>
        <time>2021-11-04T15:03:58.729Z</time>
      </trkpt>
      <trkpt lat="48.886463" lon="2.274752">
        <ele>40.432360</ele>
        <time>2021-11-04T15:03:59.583Z</time>
      </trkpt>
      <trkpt lat="48.886534" lon="2.274789">
        <ele>40.352224</ele>
        <time>2021-11-04T15:04:00.468Z</time>
      </trkpt>
      <trkpt lat="48.886599" lon="2.274824">
        <ele>40.278601</ele>
        <time>2021-11-04T15:04:01.353Z</time>
      </trkpt>
      <trkpt lat="48.887239" lon="2.275155">
        <ele>39.689351</ele>
        <time>2021-11-04T15:04:10.133Z</time>
      </trkpt>
      <trkpt lat="48.887290" lon="2.275181">
        <ele>39.647626</ele>
        <time>2021-11-04T15:04:10.790Z</time>
      </trkpt>
      <trkpt lat="48.887903" lon="2.275500">
        <ele>39.145045</ele>
        <time>2021-11-04T15:04:19.087Z</time>
      </trkpt>
      <trkpt lat="48.887869" lon="2.275614">
        <ele>39.081196</ele>
        <time>2021-11-04T15:04:24.795Z</time>
      </trkpt>
      <trkpt lat="48.887595" lon="2.275469">
        <ele>38.856150</ele>
        <time>2021-11-04T15:04:44.943Z</time>
      </trkpt>
      <trkpt lat="48.887869" lon="2.275614">
        <ele>38.635570</ele>
        <time>2021-11-04T15:05:05.092Z</time>
      </trkpt>
      <trkpt lat="48.887903" lon="2.275500">
        <ele>38.590646</ele>
        <time>2021-11-04T15:05:10.799Z</time>
      </trkpt>
      <trkpt lat="48.888021" lon="2.275562">
        <ele>38.522508</ele>
        <time>2021-11-04T15:05:12.341Z</time>
      </trkpt>
      <trkpt lat="48.887992" lon="2.275652">
        <ele>38.486539</ele>
        <time>2021-11-04T15:05:13.143Z</time>
      </trkpt>
      <trkpt lat="48.887976" lon="2.275740">
        <ele>38.453773</ele>
        <time>2021-11-04T15:05:13.879Z</time>
      </trkpt>
      <trkpt lat="48.887943" lon="2.275993">
        <ele>38.361208</ele>
        <time>2021-11-04T15:05:16.038Z</time>
      </trkpt>
      <trkpt lat="48.887910" lon="2.276190">
        <ele>38.288252</ele>
        <time>2021-11-04T15:05:17.782Z</time>
      </trkpt>
      <trkpt lat="48.887857" lon="2.276500">
        <ele>38.173301</ele>
        <time>2021-11-04T15:05:20.611Z</time>
      </trkpt>
      <trkpt lat="48.887842" lon="2.276587">
        <ele>38.141023</ele>
        <time>2021-11-04T15:05:21.426Z</time>
      </trkpt>
      <trkpt lat="48.887803" lon="2.276818">
        <ele>38.055434</ele>
        <time>2021-11-04T15:05:23.617Z</time>
      </trkpt>
      <trkpt lat="48.887763" lon="2.277061">
        <ele>37.965536</ele>
        <time>2021-11-04T15:05:25.843Z</time>
      </trkpt>
      <trkpt lat="48.887756" lon="2.277102">
        <ele>37.950334</ele>
        <time>2021-11-04T15:05:26.192Z</time>
      </trkpt>
      <trkpt lat="48.887713" lon="2.277364">
        <ele>37.853423</ele>
        <time>2021-11-04T15:05:28.455Z</time>
      </trkpt>
      <trkpt lat="48.887671" lon="2.277608">
        <ele>37.762907</ele>
        <time>2021-11-04T15:05:30.679Z</time>
      </trkpt>
      <trkpt lat="48.887632" lon="2.277828">
        <ele>37.681135</ele>
        <time>2021-11-04T15:05:32.702Z</time>
      </trkpt>
      <trkpt lat="48.887616" lon="2.277907">
        <ele>37.667930</ele>
        <time>2021-11-04T15:05:33.484Z</time>
      </trkpt>
      <trkpt lat="48.887565" lon="2.278184">
        <ele>37.695221</ele>
        <time>2021-11-04T15:05:36.046Z</time>
      </trkpt>
      <trkpt lat="48.887528" lon="2.278381">
        <ele>37.714658</ele>
        <time>2021-11-04T15:05:37.932Z</time>
      </trkpt>
      <trkpt lat="48.887504" lon="2.278526">
        <ele>37.728844</ele>
        <time>2021-11-04T15:05:39.344Z</time>
      </trkpt>
      <trkpt lat="48.887586" lon="2.278827">
        <ele>37.759754</ele>
        <time>2021-11-04T15:05:43.454Z</time>
      </trkpt>
      <trkpt lat="48.887932" lon="2.280088">
        <ele>37.889386</ele>
        <time>2021-11-04T15:06:03.129Z</time>
      </trkpt>
      <trkpt lat="48.887964" lon="2.280206">
        <ele>37.901496</ele>
        <time>2021-11-04T15:06:04.972Z</time>
      </trkpt>
      <trkpt lat="48.888160" lon="2.280919">
        <ele>38.063608</ele>
        <time>2021-11-04T15:06:16.134Z</time>
      </trkpt>
      <trkpt lat="48.888316" lon="2.281487">
        <ele>38.224067</ele>
        <time>2021-11-04T15:06:25.127Z</time>
      </trkpt>
      <trkpt lat="48.888352" lon="2.281588">
        <ele>38.254014</ele>
        <time>2021-11-04T15:06:27.067Z</time>
      </trkpt>
      <trkpt lat="48.888379" lon="2.281663">
        <ele>38.276303</ele>
        <time>2021-11-04T15:06:28.370Z</time>
      </trkpt>
      <trkpt lat="48.888826" lon="2.282583">
        <ele>38.574489</ele>
        <time>2021-11-04T15:06:44.843Z</time>
      </trkpt>
      <trkpt lat="48.889127" lon="2.283212">
        <ele>38.571167</ele>
        <time>2021-11-04T15:06:55.105Z</time>
      </trkpt>
      <trkpt lat="48.889396" lon="2.283762">
        <ele>38.487198</ele>
        <time>2021-11-04T15:07:01.555Z</time>
      </trkpt>
      <trkpt lat="48.889617" lon="2.284231">
        <ele>38.416516</ele>
        <time>2021-11-04T15:07:06.555Z</time>
      </trkpt>
      <trkpt lat="48.889644" lon="2.284288">
        <ele>38.407910</ele>
        <time>2021-11-04T15:07:07.126Z</time>
      </trkpt>
      <trkpt lat="48.889686" lon="2.284377">
        <ele>38.394490</ele>
        <time>2021-11-04T15:07:08.018Z</time>
      </trkpt>
      <trkpt lat="48.889954" lon="2.284915">
        <ele>38.311809</ele>
        <time>2021-11-04T15:07:14.213Z</time>
      </trkpt>
      <trkpt lat="48.889984" lon="2.284975">
        <ele>38.302575</ele>
        <time>2021-11-04T15:07:14.808Z</time>
      </trkpt>
      <trkpt lat="48.890025" lon="2.285067">
        <ele>38.316141</ele>
        <time>2021-11-04T15:07:16.221Z</time>
      </trkpt>
      <trkpt lat="48.890588" lon="2.286328">
        <ele>38.519707</ele>
        <time>2021-11-04T15:07:30.767Z</time>
      </trkpt>
      <trkpt lat="48.890617" lon="2.286393">
        <ele>38.530198</ele>
        <time>2021-11-04T15:07:31.753Z</time>
      </trkpt>
      <trkpt lat="48.890651" lon="2.286480">
        <ele>38.543715</ele>
        <time>2021-11-04T15:07:33.316Z</time>
      </trkpt>
      <trkpt lat="48.890980" lon="2.287324">
        <ele>38.675644</ele>
        <time>2021-11-04T15:07:47.817Z</time>
      </trkpt>
      <trkpt lat="48.891005" lon="2.287390">
        <ele>38.687034</ele>
        <time>2021-11-04T15:07:49.198Z</time>
      </trkpt>
      <trkpt lat="48.891033" lon="2.287460">
        <ele>38.699287</ele>
        <time>2021-11-04T15:07:50.358Z</time>
      </trkpt>
      <trkpt lat="48.891360" lon="2.288289">
        <ele>38.843851</ele>
        <time>2021-11-04T15:08:04.611Z</time>
      </trkpt>
      <trkpt lat="48.891382" lon="2.288344">
        <ele>38.853478</ele>
        <time>2021-11-04T15:08:05.455Z</time>
      </trkpt>
      <trkpt lat="48.891409" lon="2.288414">
        <ele>38.865614</ele>
        <time>2021-11-04T15:08:06.476Z</time>
      </trkpt>
      <trkpt lat="48.891757" lon="2.289311">
        <ele>39.021358</ele>
        <time>2021-11-04T15:08:20.218Z</time>
      </trkpt>
      <trkpt lat="48.892116" lon="2.290232">
        <ele>39.040923</ele>
        <time>2021-11-04T15:08:34.303Z</time>
      </trkpt>
      <trkpt lat="48.892135" lon="2.290279">
        <ele>39.038140</ele>
        <time>2021-11-04T15:08:35.023Z</time>
      </trkpt>
      <trkpt lat="48.892172" lon="2.290375">
        <ele>39.032525</ele>
        <time>2021-11-04T15:08:36.607Z</time>
      </trkpt>
      <trkpt lat="48.892454" lon="2.291108">
        <ele>38.989673</ele>
        <time>2021-11-04T15:08:48.213Z</time>
      </trkpt>
      <trkpt lat="48.892485" lon="2.291187">
        <ele>38.985030</ele>
        <time>2021-11-04T15:08:49.159Z</time>
      </trkpt>
      <trkpt lat="48.892727" lon="2.291799">
        <ele>38.948996</ele>
        <time>2021-11-04T15:08:55.897Z</time>
      </trkpt>
      <trkpt lat="48.892750" lon="2.291872">
        <ele>38.944911</ele>
        <time>2021-11-04T15:08:56.823Z</time>
      </trkpt>
      <trkpt lat="48.892776" lon="2.291938">
        <ele>38.941029</ele>
        <time>2021-11-04T15:08:57.479Z</time>
      </trkpt>
      <trkpt lat="48.893055" lon="2.292660">
        <ele>38.539112</ele>
        <time>2021-11-04T15:09:04.578Z</time>
      </trkpt>
      <trkpt lat="48.893077" lon="2.292729">
        <ele>38.500076</ele>
        <time>2021-11-04T15:09:05.194Z</time>
      </trkpt>
      <trkpt lat="48.893107" lon="2.292810">
        <ele>38.452752</ele>
        <time>2021-11-04T15:09:06.039Z</time>
      </trkpt>
      <trkpt lat="48.893466" lon="2.293691">
        <ele>37.925142</ele>
        <time>2021-11-04T15:09:14.807Z</time>
      </trkpt>
      <trkpt lat="48.893865" lon="2.294704">
        <ele>37.366437</ele>
        <time>2021-11-04T15:09:23.877Z</time>
      </trkpt>
      <trkpt lat="48.894013" lon="2.295113">
        <ele>37.174236</ele>
        <time>2021-11-04T15:09:27.767Z</time>
      </trkpt>
      <trkpt lat="48.894008" lon="2.295221">
        <ele>37.129664</ele>
        <time>2021-11-04T15:09:28.561Z</time>
      </trkpt>
      <trkpt lat="48.893995" lon="2.295290">
        <ele>37.100114</ele>
        <time>2021-11-04T15:09:29.465Z</time>
      </trkpt>
      <trkpt lat="48.894238" lon="2.295539">
        <ele>36.916641</ele>
        <time>2021-11-04T15:09:33.006Z</time>
      </trkpt>
      <trkpt lat="48.894367" lon="2.295671">
        <ele>36.819284</ele>
        <time>2021-11-04T15:09:35.263Z</time>
      </trkpt>
      <trkpt lat="48.894433" lon="2.295740">
        <ele>36.769135</ele>
        <time>2021-11-04T15:09:36.297Z</time>
      </trkpt>
      <trkpt lat="48.894562" lon="2.295872">
        <ele>36.671778</ele>
        <time>2021-11-04T15:09:38.210Z</time>
      </trkpt>
      <trkpt lat="48.894963" lon="2.296289">
        <ele>36.431548</ele>
        <time>2021-11-04T15:09:45.761Z</time>
      </trkpt>
      <trkpt lat="48.895018" lon="2.296356">
        <ele>36.441817</ele>
        <time>2021-11-04T15:09:46.916Z</time>
      </trkpt>
      <trkpt lat="48.895433" lon="2.296775">
        <ele>36.514411</ele>
        <time>2021-11-04T15:09:54.248Z</time>
      </trkpt>
      <trkpt lat="48.895453" lon="2.296796">
        <ele>36.517952</ele>
        <time>2021-11-04T15:09:54.565Z</time>
      </trkpt>
      <trkpt lat="48.895517" lon="2.296860">
        <ele>36.529115</ele>
        <time>2021-11-04T15:09:56.054Z</time>
      </trkpt>
      <trkpt lat="48.895574" lon="2.296939">
        <ele>36.540353</ele>
        <time>2021-11-04T15:09:57.158Z</time>
      </trkpt>
      <trkpt lat="48.895753" lon="2.297189">
        <ele>36.575770</ele>
        <time>2021-11-04T15:10:01.129Z</time>
      </trkpt>
      <trkpt lat="48.895934" lon="2.297441">
        <ele>36.611531</ele>
        <time>2021-11-04T15:10:05.468Z</time>
      </trkpt>
      <trkpt lat="48.895997" lon="2.297526">
        <ele>36.623804</ele>
        <time>2021-11-04T15:10:06.781Z</time>
      </trkpt>
      <trkpt lat="48.896066" lon="2.297618">
        <ele>36.637176</ele>
        <time>2021-11-04T15:10:08.437Z</time>
      </trkpt>
      <trkpt lat="48.896173" lon="2.297759">
        <ele>36.657808</ele>
        <time>2021-11-04T15:10:10.727Z</time>
      </trkpt>
      <trkpt lat="48.896215" lon="2.297814">
        <ele>36.665885</ele>
        <time>2021-11-04T15:10:11.538Z</time>
      </trkpt>
      <trkpt lat="48.896255" lon="2.297861">
        <ele>36.673252</ele>
        <time>2021-11-04T15:10:12.205Z</time>
      </trkpt>
      <trkpt lat="48.896302" lon="2.297921">
        <ele>36.679297</ele>
        <time>2021-11-04T15:10:13.243Z</time>
      </trkpt>
      <trkpt lat="48.896354" lon="2.297991">
        <ele>36.639367</ele>
        <time>2021-11-04T15:10:14.195Z</time>
      </trkpt>
      <trkpt lat="48.896577" lon="2.298292">
        <ele>36.467925</ele>
        <time>2021-11-04T15:10:18.150Z</time>
      </trkpt>
      <trkpt lat="48.896621" lon="2.298347">
        <ele>36.435176</ele>
        <time>2021-11-04T15:10:18.892Z</time>
      </trkpt>
      <trkpt lat="48.896766" lon="2.298505">
        <ele>36.332609</ele>
        <time>2021-11-04T15:10:21.107Z</time>
      </trkpt>
      <trkpt lat="48.896776" lon="2.298529">
        <ele>36.321868</ele>
        <time>2021-11-04T15:10:21.331Z</time>
      </trkpt>
      <trkpt lat="48.897156" lon="2.299402">
        <ele>35.926056</ele>
        <time>2021-11-04T15:10:30.019Z</time>
      </trkpt>
      <trkpt lat="48.897173" lon="2.299443">
        <ele>35.907731</ele>
        <time>2021-11-04T15:10:30.584Z</time>
      </trkpt>
      <trkpt lat="48.897366" lon="2.299932">
        <ele>35.692116</ele>
        <time>2021-11-04T15:10:37.385Z</time>
      </trkpt>
      <trkpt lat="48.897837" lon="2.301039">
        <ele>35.358663</ele>
        <time>2021-11-04T15:10:48.642Z</time>
      </trkpt>
      <trkpt lat="48.898264" lon="2.302081">
        <ele>35.063336</ele>
        <time>2021-11-04T15:11:00.068Z</time>
      </trkpt>
      <trkpt lat="48.898309" lon="2.302188">
        <ele>35.032784</ele>
        <time>2021-11-04T15:11:01.297Z</time>
      </trkpt>
      <trkpt lat="48.898339" lon="2.302264">
        <ele>35.011463</ele>
        <time>2021-11-04T15:11:02.267Z</time>
      </trkpt>
      <trkpt lat="48.898832" lon="2.303467">
        <ele>34.883990</ele>
        <time>2021-11-04T15:11:15.675Z</time>
      </trkpt>
      <trkpt lat="48.898853" lon="2.303517">
        <ele>34.879277</ele>
        <time>2021-11-04T15:11:16.260Z</time>
      </trkpt>
      <trkpt lat="48.898884" lon="2.303597">
        <ele>34.871901</ele>
        <time>2021-11-04T15:11:17.104Z</time>
      </trkpt>
      <trkpt lat="48.898928" lon="2.303711">
        <ele>34.861401</ele>
        <time>2021-11-04T15:11:18.397Z</time>
      </trkpt>
      <trkpt lat="48.899159" lon="2.304260">
        <ele>34.809627</ele>
        <time>2021-11-04T15:11:24.382Z</time>
      </trkpt>
      <trkpt lat="48.899279" lon="2.304550">
        <ele>34.782410</ele>
        <time>2021-11-04T15:11:27.778Z</time>
      </trkpt>
      <trkpt lat="48.899530" lon="2.305162">
        <ele>34.761094</ele>
        <time>2021-11-04T15:11:34.581Z</time>
      </trkpt>
      <trkpt lat="48.899562" lon="2.305229">
        <ele>34.759571</ele>
        <time>2021-11-04T15:11:35.238Z</time>
      </trkpt>
      <trkpt lat="48.899586" lon="2.305289">
        <ele>34.758280</ele>
        <time>2021-11-04T15:11:36.017Z</time>
      </trkpt>
      <trkpt lat="48.899968" lon="2.306099">
        <ele>34.739945</ele>
        <time>2021-11-04T15:11:45.238Z</time>
      </trkpt>
      <trkpt lat="48.900027" lon="2.306224">
        <ele>34.737115</ele>
        <time>2021-11-04T15:11:46.778Z</time>
      </trkpt>
      <trkpt lat="48.900089" lon="2.306356">
        <ele>34.734131</ele>
        <time>2021-11-04T15:11:48.393Z</time>
      </trkpt>
      <trkpt lat="48.900835" lon="2.307911">
        <ele>35.136461</ele>
        <time>2021-11-04T15:12:08.263Z</time>
      </trkpt>
      <trkpt lat="48.900899" lon="2.308046">
        <ele>35.191944</ele>
        <time>2021-11-04T15:12:10.085Z</time>
      </trkpt>
      <trkpt lat="48.900946" lon="2.308155">
        <ele>35.235398</ele>
        <time>2021-11-04T15:12:11.595Z</time>
      </trkpt>
      <trkpt lat="48.901078" lon="2.308463">
        <ele>35.357960</ele>
        <time>2021-11-04T15:12:15.473Z</time>
      </trkpt>
      <trkpt lat="48.902052" lon="2.310549">
        <ele>36.627136</ele>
        <time>2021-11-04T15:12:47.158Z</time>
      </trkpt>
      <trkpt lat="48.902628" lon="2.311759">
        <ele>37.206222</ele>
        <time>2021-11-04T15:13:04.871Z</time>
      </trkpt>
      <trkpt lat="48.902635" lon="2.311774">
        <ele>37.206322</ele>
        <time>2021-11-04T15:13:05.037Z</time>
      </trkpt>
      <trkpt lat="48.902667" lon="2.311842">
        <ele>37.206773</ele>
        <time>2021-11-04T15:13:06.170Z</time>
      </trkpt>
      <trkpt lat="48.902704" lon="2.311920">
        <ele>37.207293</ele>
        <time>2021-11-04T15:13:07.374Z</time>
      </trkpt>
      <trkpt lat="48.902712" lon="2.311939">
        <ele>37.207415</ele>
        <time>2021-11-04T15:13:07.570Z</time>
      </trkpt>
      <trkpt lat="48.902850" lon="2.312239">
        <ele>37.209393</ele>
        <time>2021-11-04T15:13:11.034Z</time>
      </trkpt>
      <trkpt lat="48.902990" lon="2.312551">
        <ele>37.211434</ele>
        <time>2021-11-04T15:13:14.982Z</time>
      </trkpt>
      <trkpt lat="48.903043" lon="2.312670">
        <ele>37.212211</ele>
        <time>2021-11-04T15:13:16.179Z</time>
      </trkpt>
      <trkpt lat="48.903008" lon="2.312717">
        <ele>37.212595</ele>
        <time>2021-11-04T15:13:17.025Z</time>
      </trkpt>
      <trkpt lat="48.902982" lon="2.312769">
        <ele>37.212948</ele>
        <time>2021-11-04T15:13:17.836Z</time>
      </trkpt>
      <trkpt lat="48.902959" lon="2.312851">
        <ele>37.213429</ele>
        <time>2021-11-04T15:13:18.666Z</time>
      </trkpt>
      <trkpt lat="48.902988" lon="2.313124">
        <ele>37.214923</ele>
        <time>2021-11-04T15:13:20.991Z</time>
      </trkpt>
      <trkpt lat="48.903013" lon="2.313170">
        <ele>37.215246</ele>
        <time>2021-11-04T15:13:21.444Z</time>
      </trkpt>
      <trkpt lat="48.903044" lon="2.313211">
        <ele>37.215583</ele>
        <time>2021-11-04T15:13:22.127Z</time>
      </trkpt>
      <trkpt lat="48.903169" lon="2.313270">
        <ele>37.216659</ele>
        <time>2021-11-04T15:13:24.110Z</time>
      </trkpt>
      <trkpt lat="48.903215" lon="2.313262">
        <ele>37.217040</ele>
        <time>2021-11-04T15:13:24.687Z</time>
      </trkpt>
      <trkpt lat="48.903227" lon="2.313403">
        <ele>37.217808</ele>
        <time>2021-11-04T15:13:25.811Z</time>
      </trkpt>
      <trkpt lat="48.903282" lon="2.314086">
        <ele>36.903346</ele>
        <time>2021-11-04T15:13:31.404Z</time>
      </trkpt>
      <trkpt lat="48.903324" lon="2.314557">
        <ele>36.647609</ele>
        <time>2021-11-04T15:13:35.025Z</time>
      </trkpt>
      <trkpt lat="48.903359" lon="2.315018">
        <ele>36.397926</ele>
        <time>2021-11-04T15:13:38.721Z</time>
      </trkpt>
      <trkpt lat="48.903368" lon="2.315117">
        <ele>36.344153</ele>
        <time>2021-11-04T15:13:39.453Z</time>
      </trkpt>
      <trkpt lat="48.903380" lon="2.315281">
        <ele>36.255370</ele>
        <time>2021-11-04T15:13:40.771Z</time>
      </trkpt>
      <trkpt lat="48.903385" lon="2.315334">
        <ele>36.226562</ele>
        <time>2021-11-04T15:13:41.291Z</time>
      </trkpt>
      <trkpt lat="48.903556" lon="2.317357">
        <ele>35.483044</ele>
        <time>2021-11-04T15:13:59.258Z</time>
      </trkpt>
      <trkpt lat="48.903576" lon="2.317549">
        <ele>35.438444</ele>
        <time>2021-11-04T15:14:00.937Z</time>
      </trkpt>
      <trkpt lat="48.903518" lon="2.317630">
        <ele>35.410963</ele>
        <time>2021-11-04T15:14:02.649Z</time>
      </trkpt>
      <trkpt lat="48.902840" lon="2.318704">
        <ele>35.075680</ele>
        <time>2021-11-04T15:14:21.185Z</time>
      </trkpt>
      <trkpt lat="48.902792" lon="2.318780">
        <ele>35.054634</ele>
        <time>2021-11-04T15:14:22.883Z</time>
      </trkpt>
      <trkpt lat="48.902761" lon="2.318831">
        <ele>35.040764</ele>
        <time>2021-11-04T15:14:23.840Z</time>
      </trkpt>
      <trkpt lat="48.902701" lon="2.318926">
        <ele>35.014458</ele>
        <time>2021-11-04T15:14:25.743Z</time>
      </trkpt>
      <trkpt lat="48.902780" lon="2.319051">
        <ele>34.979833</ele>
        <time>2021-11-04T15:14:27.231Z</time>
      </trkpt>
      <trkpt lat="48.902996" lon="2.319393">
        <ele>34.885130</ele>
        <time>2021-11-04T15:14:32.086Z</time>
      </trkpt>
      <trkpt lat="48.903172" lon="2.319676">
        <ele>34.807338</ele>
        <time>2021-11-04T15:14:35.536Z</time>
      </trkpt>
      <trkpt lat="48.903235" lon="2.319770">
        <ele>34.780533</ele>
        <time>2021-11-04T15:14:36.937Z</time>
      </trkpt>
      <trkpt lat="48.903587" lon="2.320361">
        <ele>34.621287</ele>
        <time>2021-11-04T15:14:43.881Z</time>
      </trkpt>
      <trkpt lat="48.903693" lon="2.320500">
        <ele>34.578777</ele>
        <time>2021-11-04T15:14:45.757Z</time>
      </trkpt>
      <trkpt lat="48.903739" lon="2.320590">
        <ele>34.529521</ele>
        <time>2021-11-04T15:14:46.691Z</time>
      </trkpt>
      <trkpt lat="48.903807" lon="2.320706">
        <ele>34.447003</ele>
        <time>2021-11-04T15:14:47.801Z</time>
      </trkpt>
      <trkpt lat="48.903923" lon="2.321045">
        <ele>34.244100</ele>
        <time>2021-11-04T15:14:51.305Z</time>
      </trkpt>
      <trkpt lat="48.904585" lon="2.322141">
        <ele>33.453875</ele>
        <time>2021-11-04T15:15:03.541Z</time>
      </trkpt>
      <trkpt lat="48.904712" lon="2.322355">
        <ele>33.300809</ele>
        <time>2021-11-04T15:15:05.752Z</time>
      </trkpt>
      <trkpt lat="48.904778" lon="2.322423">
        <ele>33.236428</ele>
        <time>2021-11-04T15:15:06.662Z</time>
      </trkpt>
      <trkpt lat="48.904989" lon="2.322613">
        <ele>33.099042</ele>
        <time>2021-11-04T15:15:09.775Z</time>
      </trkpt>
      <trkpt lat="48.905101" lon="2.322785">
        <ele>33.066906</ele>
        <time>2021-11-04T15:15:11.785Z</time>
      </trkpt>
      <trkpt lat="48.905260" lon="2.323033">
        <ele>33.020922</ele>
        <time>2021-11-04T15:15:14.784Z</time>
      </trkpt>
      <trkpt lat="48.905438" lon="2.323327">
        <ele>32.967867</ele>
        <time>2021-11-04T15:15:18.360Z</time>
      </trkpt>
      <trkpt lat="48.905468" lon="2.323377">
        <ele>32.958881</ele>
        <time>2021-11-04T15:15:18.951Z</time>
      </trkpt>
      <trkpt lat="48.905574" lon="2.323550">
        <ele>32.927489</ele>
        <time>2021-11-04T15:15:21.055Z</time>
      </trkpt>
      <trkpt lat="48.905681" lon="2.323721">
        <ele>32.896151</ele>
        <time>2021-11-04T15:15:23.379Z</time>
      </trkpt>
      <trkpt lat="48.906205" lon="2.324551">
        <ele>32.772155</ele>
        <time>2021-11-04T15:15:35.836Z</time>
      </trkpt>
      <trkpt lat="48.907216" lon="2.326174">
        <ele>33.149971</ele>
        <time>2021-11-04T15:15:59.059Z</time>
      </trkpt>
      <trkpt lat="48.907252" lon="2.326232">
        <ele>33.163450</ele>
        <time>2021-11-04T15:16:00.065Z</time>
      </trkpt>
      <trkpt lat="48.907303" lon="2.326306">
        <ele>33.181566</ele>
        <time>2021-11-04T15:16:00.973Z</time>
      </trkpt>
      <trkpt lat="48.907613" lon="2.326813">
        <ele>33.231279</ele>
        <time>2021-11-04T15:16:07.918Z</time>
      </trkpt>
      <trkpt lat="48.907687" lon="2.326946">
        <ele>33.236005</ele>
        <time>2021-11-04T15:16:09.597Z</time>
      </trkpt>
      <trkpt lat="48.907707" lon="2.326977">
        <ele>33.237183</ele>
        <time>2021-11-04T15:16:10.053Z</time>
      </trkpt>
      <trkpt lat="48.907783" lon="2.327104">
        <ele>33.241841</ele>
        <time>2021-11-04T15:16:11.844Z</time>
      </trkpt>
      <trkpt lat="48.907980" lon="2.327394">
        <ele>33.253151</ele>
        <time>2021-11-04T15:16:15.894Z</time>
      </trkpt>
      <trkpt lat="48.908041" lon="2.327466">
        <ele>33.256337</ele>
        <time>2021-11-04T15:16:17.003Z</time>
      </trkpt>
      <trkpt lat="48.908147" lon="2.327644">
        <ele>33.262850</ele>
        <time>2021-11-04T15:16:20.053Z</time>
      </trkpt>
      <trkpt lat="48.908358" lon="2.327995">
        <ele>33.275750</ele>
        <time>2021-11-04T15:16:26.042Z</time>
      </trkpt>
      <trkpt lat="48.908523" lon="2.328275">
        <ele>33.285949</ele>
        <time>2021-11-04T15:16:30.660Z</time>
      </trkpt>
      <trkpt lat="48.908567" lon="2.328350">
        <ele>33.288675</ele>
        <time>2021-11-04T15:16:32.050Z</time>
      </trkpt>
      <trkpt lat="48.908843" lon="2.328790">
        <ele>33.448685</ele>
        <time>2021-11-04T15:16:41.018Z</time>
      </trkpt>
      <trkpt lat="48.909307" lon="2.329530">
        <ele>33.793795</ele>
        <time>2021-11-04T15:16:56.855Z</time>
      </trkpt>
      <trkpt lat="48.909415" lon="2.329702">
        <ele>33.874063</ele>
        <time>2021-11-04T15:17:00.277Z</time>
      </trkpt>
      <trkpt lat="48.909470" lon="2.329793">
        <ele>33.915779</ele>
        <time>2021-11-04T15:17:02.176Z</time>
      </trkpt>
      <trkpt lat="48.909485" lon="2.329816">
        <ele>33.926713</ele>
        <time>2021-11-04T15:17:02.659Z</time>
      </trkpt>
      <trkpt lat="48.909538" lon="2.329899">
        <ele>33.965762</ele>
        <time>2021-11-04T15:17:04.367Z</time>
      </trkpt>
      <trkpt lat="48.909654" lon="2.330090">
        <ele>34.053515</ele>
        <time>2021-11-04T15:17:07.964Z</time>
      </trkpt>
      <trkpt lat="48.909803" lon="2.330324">
        <ele>34.163453</ele>
        <time>2021-11-04T15:17:12.600Z</time>
      </trkpt>
      <trkpt lat="48.909866" lon="2.330427">
        <ele>34.210930</ele>
        <time>2021-11-04T15:17:14.574Z</time>
      </trkpt>
      <trkpt lat="48.909981" lon="2.330617">
        <ele>34.361103</ele>
        <time>2021-11-04T15:17:18.273Z</time>
      </trkpt>
      <trkpt lat="48.910350" lon="2.331208">
        <ele>34.847472</ele>
        <time>2021-11-04T15:17:30.424Z</time>
      </trkpt>
      <trkpt lat="48.910794" lon="2.331919">
        <ele>35.432642</ele>
        <time>2021-11-04T15:17:45.977Z</time>
      </trkpt>
      <trkpt lat="48.911058" lon="2.332347">
        <ele>35.782853</ele>
        <time>2021-11-04T15:17:55.620Z</time>
      </trkpt>
      <trkpt lat="48.911329" lon="2.332864">
        <ele>36.417234</ele>
        <time>2021-11-04T15:18:07.101Z</time>
      </trkpt>
      <trkpt lat="48.911581" lon="2.333297">
        <ele>37.014219</ele>
        <time>2021-11-04T15:18:17.455Z</time>
      </trkpt>
      <trkpt lat="48.911665" lon="2.333441">
        <ele>37.212957</ele>
        <time>2021-11-04T15:18:20.890Z</time>
      </trkpt>
      <trkpt lat="48.911688" lon="2.333486">
        <ele>37.271798</ele>
        <time>2021-11-04T15:18:21.938Z</time>
      </trkpt>
      <trkpt lat="48.911768" lon="2.333646">
        <ele>37.479308</ele>
        <time>2021-11-04T15:18:25.615Z</time>
      </trkpt>
      <trkpt lat="48.911885" lon="2.333856">
        <ele>37.763472</ele>
        <time>2021-11-04T15:18:29.434Z</time>
      </trkpt>
      <trkpt lat="48.911990" lon="2.333964">
        <ele>37.962522</ele>
        <time>2021-11-04T15:18:32.152Z</time>
      </trkpt>
      <trkpt lat="48.912084" lon="2.334060">
        <ele>38.140323</ele>
        <time>2021-11-04T15:18:34.717Z</time>
      </trkpt>
      <trkpt lat="48.912136" lon="2.334115">
        <ele>38.239784</ele>
        <time>2021-11-04T15:18:36.010Z</time>
      </trkpt>
      <trkpt lat="48.912244" lon="2.334231">
        <ele>38.447403</ele>
        <time>2021-11-04T15:18:38.938Z</time>
      </trkpt>
      <trkpt lat="48.912324" lon="2.334332">
        <ele>38.610664</ele>
        <time>2021-11-04T15:18:41.083Z</time>
      </trkpt>
      <trkpt lat="48.912493" lon="2.334543">
        <ele>38.782923</ele>
        <time>2021-11-04T15:18:45.576Z</time>
      </trkpt>
      <trkpt lat="48.912596" lon="2.334675">
        <ele>38.865329</ele>
        <time>2021-11-04T15:18:48.210Z</time>
      </trkpt>
      <trkpt lat="48.912807" lon="2.334926">
        <ele>39.029222</ele>
        <time>2021-11-04T15:18:53.423Z</time>
      </trkpt>
      <trkpt lat="48.912907" lon="2.335048">
        <ele>39.107656</ele>
        <time>2021-11-04T15:18:55.767Z</time>
      </trkpt>
      <trkpt lat="48.912876" lon="2.335114">
        <ele>39.140281</ele>
        <time>2021-11-04T15:18:59.445Z</time>
      </trkpt>
      <trkpt lat="48.912897" lon="2.335137">
        <ele>39.156114</ele>
        <time>2021-11-04T15:19:01.259Z</time>
      </trkpt>
      <trkpt lat="48.913077" lon="2.335344">
        <ele>39.294182</ele>
        <time>2021-11-04T15:19:16.927Z</time>
      </trkpt>
      <trkpt lat="48.912897" lon="2.335137">
        <ele>39.432249</ele>
        <time>2021-11-04T15:19:32.596Z</time>
      </trkpt>
      <trkpt lat="48.912876" lon="2.335114">
        <ele>39.448083</ele>
        <time>2021-11-04T15:19:34.410Z</time>
      </trkpt>
      <trkpt lat="48.912907" lon="2.335048">
        <ele>39.480708</ele>
        <time>2021-11-04T15:19:38.086Z</time>
      </trkpt>
      <trkpt lat="48.913074" lon="2.335249">
        <ele>39.611005</ele>
        <time>2021-11-04T15:19:41.175Z</time>
      </trkpt>
      <trkpt lat="48.913393" lon="2.335558">
        <ele>39.704182</ele>
        <time>2021-11-04T15:19:46.612Z</time>
      </trkpt>
      <trkpt lat="48.913590" lon="2.335804">
        <ele>39.543357</ele>
        <time>2021-11-04T15:19:50.271Z</time>
      </trkpt>
      <trkpt lat="48.913648" lon="2.335871">
        <ele>39.497403</ele>
        <time>2021-11-04T15:19:51.190Z</time>
      </trkpt>
      <trkpt lat="48.913670" lon="2.335902">
        <ele>39.478481</ele>
        <time>2021-11-04T15:19:51.572Z</time>
      </trkpt>
      <trkpt lat="48.913945" lon="2.336245">
        <ele>39.254085</ele>
        <time>2021-11-04T15:19:56.226Z</time>
      </trkpt>
      <trkpt lat="48.914215" lon="2.336589">
        <ele>39.031856</ele>
        <time>2021-11-04T15:20:00.565Z</time>
      </trkpt>
      <trkpt lat="48.914300" lon="2.336693">
        <ele>38.963025</ele>
        <time>2021-11-04T15:20:01.994Z</time>
      </trkpt>
      <trkpt lat="48.914374" lon="2.336785">
        <ele>38.902721</ele>
        <time>2021-11-04T15:20:03.060Z</time>
      </trkpt>
      <trkpt lat="48.914428" lon="2.336849">
        <ele>38.859526</ele>
        <time>2021-11-04T15:20:03.909Z</time>
      </trkpt>
      <trkpt lat="48.914878" lon="2.337397">
        <ele>38.462917</ele>
        <time>2021-11-04T15:20:11.230Z</time>
      </trkpt>
      <trkpt lat="48.914915" lon="2.337439">
        <ele>38.427111</ele>
        <time>2021-11-04T15:20:11.711Z</time>
      </trkpt>
      <trkpt lat="48.915112" lon="2.337682">
        <ele>38.230401</ele>
        <time>2021-11-04T15:20:15.145Z</time>
      </trkpt>
      <trkpt lat="48.915214" lon="2.337806">
        <ele>38.129133</ele>
        <time>2021-11-04T15:20:16.683Z</time>
      </trkpt>
      <trkpt lat="48.915296" lon="2.337905">
        <ele>38.047938</ele>
        <time>2021-11-04T15:20:18.045Z</time>
      </trkpt>
      <trkpt lat="48.915556" lon="2.338233">
        <ele>37.785966</ele>
        <time>2021-11-04T15:20:22.312Z</time>
      </trkpt>
      <trkpt lat="48.916051" lon="2.338838">
        <ele>37.293486</ele>
        <time>2021-11-04T15:20:30.252Z</time>
      </trkpt>
      <trkpt lat="48.916175" lon="2.338995">
        <ele>37.212246</ele>
        <time>2021-11-04T15:20:32.408Z</time>
      </trkpt>
      <trkpt lat="48.916862" lon="2.339834">
        <ele>36.924740</ele>
        <time>2021-11-04T15:20:44.269Z</time>
      </trkpt>
      <trkpt lat="48.916914" lon="2.339900">
        <ele>36.902640</ele>
        <time>2021-11-04T15:20:45.208Z</time>
      </trkpt>
      <trkpt lat="48.917072" lon="2.340100">
        <ele>36.835562</ele>
        <time>2021-11-04T15:20:48.137Z</time>
      </trkpt>
      <trkpt lat="48.917186" lon="2.340237">
        <ele>36.788151</ele>
        <time>2021-11-04T15:20:50.149Z</time>
      </trkpt>
      <trkpt lat="48.917577" lon="2.340771">
        <ele>36.687968</ele>
        <time>2021-11-04T15:20:57.431Z</time>
      </trkpt>
      <trkpt lat="48.917725" lon="2.340946">
        <ele>36.734734</ele>
        <time>2021-11-04T15:21:00.346Z</time>
      </trkpt>
      <trkpt lat="48.917853" lon="2.341096">
        <ele>36.775044</ele>
        <time>2021-11-04T15:21:02.884Z</time>
      </trkpt>
      <trkpt lat="48.918139" lon="2.341438">
        <ele>36.865801</ele>
        <time>2021-11-04T15:21:09.052Z</time>
      </trkpt>
      <trkpt lat="48.918298" lon="2.341642">
        <ele>36.917692</ele>
        <time>2021-11-04T15:21:12.756Z</time>
      </trkpt>
      <trkpt lat="48.918405" lon="2.341784">
        <ele>36.953116</ele>
        <time>2021-11-04T15:21:15.174Z</time>
      </trkpt>
      <trkpt lat="48.918695" lon="2.342147">
        <ele>37.046809</ele>
        <time>2021-11-04T15:21:21.347Z</time>
      </trkpt>
      <trkpt lat="48.919009" lon="2.342539">
        <ele>37.114185</ele>
        <time>2021-11-04T15:21:27.993Z</time>
      </trkpt>
      <trkpt lat="48.919161" lon="2.342721">
        <ele>37.123681</ele>
        <time>2021-11-04T15:21:30.553Z</time>
      </trkpt>
      <trkpt lat="48.919596" lon="2.343248">
        <ele>37.150982</ele>
        <time>2021-11-04T15:21:37.802Z</time>
      </trkpt>
      <trkpt lat="48.919600" lon="2.343253">
        <ele>37.151236</ele>
        <time>2021-11-04T15:21:37.847Z</time>
      </trkpt>
      <trkpt lat="48.920145" lon="2.343914">
        <ele>37.185454</ele>
        <time>2021-11-04T15:21:50.041Z</time>
      </trkpt>
      <trkpt lat="48.920184" lon="2.343995">
        <ele>37.188694</ele>
        <time>2021-11-04T15:21:50.780Z</time>
      </trkpt>
      <trkpt lat="48.920252" lon="2.344139">
        <ele>37.196645</ele>
        <time>2021-11-04T15:21:52.643Z</time>
      </trkpt>
      <trkpt lat="48.920244" lon="2.344202">
        <ele>37.218176</ele>
        <time>2021-11-04T15:21:53.385Z</time>
      </trkpt>
      <trkpt lat="48.920241" lon="2.344353">
        <ele>37.268868</ele>
        <time>2021-11-04T15:21:55.693Z</time>
      </trkpt>
      <trkpt lat="48.920248" lon="2.344407">
        <ele>37.287337</ele>
        <time>2021-11-04T15:21:56.257Z</time>
      </trkpt>
      <trkpt lat="48.920257" lon="2.344435">
        <ele>37.297797</ele>
        <time>2021-11-04T15:21:56.451Z</time>
      </trkpt>
      <trkpt lat="48.920275" lon="2.344465">
        <ele>37.311429</ele>
        <time>2021-11-04T15:21:56.777Z</time>
      </trkpt>
      <trkpt lat="48.920312" lon="2.344493">
        <ele>37.332530</ele>
        <time>2021-11-04T15:21:57.276Z</time>
      </trkpt>
      <trkpt lat="48.920612" lon="2.344495">
        <ele>37.485727</ele>
        <time>2021-11-04T15:22:02.085Z</time>
      </trkpt>
      <trkpt lat="48.920725" lon="2.344661">
        <ele>37.565929</ele>
        <time>2021-11-04T15:22:19.391Z</time>
      </trkpt>
      <trkpt lat="48.920847" lon="2.344834">
        <ele>37.651083</ele>
        <time>2021-11-04T15:22:38.552Z</time>
      </trkpt>
      <trkpt lat="48.921148" lon="2.345186">
        <ele>37.844929</ele>
        <time>2021-11-04T15:23:21.062Z</time>
      </trkpt>
      <trkpt lat="48.921338" lon="2.345424">
        <ele>37.970593</ele>
        <time>2021-11-04T15:23:25.191Z</time>
      </trkpt>
      <trkpt lat="48.921374" lon="2.345498">
        <ele>38.001488</ele>
        <time>2021-11-04T15:23:26.496Z</time>
      </trkpt>
      <trkpt lat="48.921431" lon="2.346275">
        <ele>38.252592</ele>
        <time>2021-11-04T15:23:36.652Z</time>
      </trkpt>
      <trkpt lat="48.921522" lon="2.346500">
        <ele>38.334656</ele>
        <time>2021-11-04T15:23:40.477Z</time>
      </trkpt>
      <trkpt lat="48.921587" lon="2.346559">
        <ele>38.370431</ele>
        <time>2021-11-04T15:23:41.940Z</time>
      </trkpt>
      <trkpt lat="48.921666" lon="2.346639">
        <ele>38.415286</ele>
        <time>2021-11-04T15:23:43.786Z</time>
      </trkpt>
      <trkpt lat="48.921681" lon="2.346663">
        <ele>38.425574</ele>
        <time>2021-11-04T15:23:44.208Z</time>
      </trkpt>
      <trkpt lat="48.921766" lon="2.346836">
        <ele>38.492670</ele>
        <time>2021-11-04T15:23:46.871Z</time>
      </trkpt>
      <trkpt lat="48.921915" lon="2.346877">
        <ele>38.564244</ele>
        <time>2021-11-04T15:23:49.059Z</time>
      </trkpt>
      <trkpt lat="48.922010" lon="2.346910">
        <ele>38.610305</ele>
        <time>2021-11-04T15:23:50.721Z</time>
      </trkpt>
      <trkpt lat="48.922453" lon="2.347325">
        <ele>38.856203</ele>
        <time>2021-11-04T15:23:57.852Z</time>
      </trkpt>
      <trkpt lat="48.922660" lon="2.347629">
        <ele>38.960265</ele>
        <time>2021-11-04T15:24:02.121Z</time>
      </trkpt>
      <trkpt lat="48.922741" lon="2.347689">
        <ele>38.956471</ele>
        <time>2021-11-04T15:24:03.257Z</time>
      </trkpt>
      <trkpt lat="48.923404" lon="2.348022">
        <ele>38.927067</ele>
        <time>2021-11-04T15:24:14.366Z</time>
      </trkpt>
      <trkpt lat="48.923541" lon="2.348162">
        <ele>38.920117</ele>
        <time>2021-11-04T15:24:16.700Z</time>
      </trkpt>
      <trkpt lat="48.924078" lon="2.348838">
        <ele>38.890766</ele>
        <time>2021-11-04T15:24:26.431Z</time>
      </trkpt>
      <trkpt lat="48.924125" lon="2.348898">
        <ele>38.888182</ele>
        <time>2021-11-04T15:24:27.342Z</time>
      </trkpt>
      <trkpt lat="48.924284" lon="2.349102">
        <ele>38.926792</ele>
        <time>2021-11-04T15:24:30.430Z</time>
      </trkpt>
      <trkpt lat="48.924459" lon="2.349325">
        <ele>38.976314</ele>
        <time>2021-11-04T15:24:33.844Z</time>
      </trkpt>
      <trkpt lat="48.924717" lon="2.349658">
        <ele>39.049713</ele>
        <time>2021-11-04T15:24:39.356Z</time>
      </trkpt>
      <trkpt lat="48.924834" lon="2.349808">
        <ele>39.082905</ele>
        <time>2021-11-04T15:24:41.921Z</time>
      </trkpt>
      <trkpt lat="48.925191" lon="2.350284">
        <ele>39.185885</ele>
        <time>2021-11-04T15:24:49.904Z</time>
      </trkpt>
      <trkpt lat="48.925291" lon="2.350488">
        <ele>39.222169</ele>
        <time>2021-11-04T15:24:52.552Z</time>
      </trkpt>
      <trkpt lat="48.925308" lon="2.350593">
        <ele>39.237586</ele>
        <time>2021-11-04T15:24:53.635Z</time>
      </trkpt>
      <trkpt lat="48.925311" lon="2.350686">
        <ele>39.250860</ele>
        <time>2021-11-04T15:24:54.557Z</time>
      </trkpt>
      <trkpt lat="48.925302" lon="2.350769">
        <ele>39.262852</ele>
        <time>2021-11-04T15:24:55.485Z</time>
      </trkpt>
      <trkpt lat="48.925247" lon="2.350938">
        <ele>39.280779</ele>
        <time>2021-11-04T15:24:57.271Z</time>
      </trkpt>
      <trkpt lat="48.925231" lon="2.351073">
        <ele>39.286155</ele>
        <time>2021-11-04T15:24:58.570Z</time>
      </trkpt>
      <trkpt lat="48.925232" lon="2.351152">
        <ele>39.289253</ele>
        <time>2021-11-04T15:24:59.310Z</time>
      </trkpt>
      <trkpt lat="48.925260" lon="2.351402">
        <ele>39.299193</ele>
        <time>2021-11-04T15:25:01.730Z</time>
      </trkpt>
      <trkpt lat="48.925507" lon="2.353296">
        <ele>39.374878</ele>
        <time>2021-11-04T15:25:21.298Z</time>
      </trkpt>
      <trkpt lat="48.925573" lon="2.353499">
        <ele>39.383755</ele>
        <time>2021-11-04T15:25:23.490Z</time>
      </trkpt>
      <trkpt lat="48.925585" lon="2.353548">
        <ele>39.381142</ele>
        <time>2021-11-04T15:25:23.950Z</time>
      </trkpt>
      <trkpt lat="48.925643" lon="2.353680">
        <ele>39.361594</ele>
        <time>2021-11-04T15:25:25.362Z</time>
      </trkpt>
      <trkpt lat="48.925751" lon="2.353895">
        <ele>39.328279</ele>
        <time>2021-11-04T15:25:27.772Z</time>
      </trkpt>
      <trkpt lat="48.925894" lon="2.354425">
        <ele>39.257749</ele>
        <time>2021-11-04T15:25:32.831Z</time>
      </trkpt>
      <trkpt lat="48.925916" lon="2.354769">
        <ele>39.215203</ele>
        <time>2021-11-04T15:25:36.318Z</time>
      </trkpt>
      <trkpt lat="48.925916" lon="2.354788">
        <ele>39.212864</ele>
        <time>2021-11-04T15:25:36.643Z</time>
      </trkpt>
      <trkpt lat="48.925966" lon="2.355910">
        <ele>39.074430</ele>
        <time>2021-11-04T15:25:47.434Z</time>
      </trkpt>
      <trkpt lat="48.925970" lon="2.356012">
        <ele>39.061851</ele>
        <time>2021-11-04T15:25:48.510Z</time>
      </trkpt>
      <trkpt lat="48.925972" lon="2.356050">
        <ele>39.057158</ele>
        <time>2021-11-04T15:25:48.906Z</time>
      </trkpt>
      <trkpt lat="48.925973" lon="2.356112">
        <ele>39.049524</ele>
        <time>2021-11-04T15:25:49.309Z</time>
      </trkpt>
      <trkpt lat="48.925978" lon="2.356277">
        <ele>38.995645</ele>
        <time>2021-11-04T15:25:50.789Z</time>
      </trkpt>
      <trkpt lat="48.925913" lon="2.356486">
        <ele>38.915569</ele>
        <time>2021-11-04T15:25:53.104Z</time>
      </trkpt>
      <trkpt lat="48.925902" lon="2.356520">
        <ele>38.902445</ele>
        <time>2021-11-04T15:25:53.483Z</time>
      </trkpt>
      <trkpt lat="48.925818" lon="2.356608">
        <ele>38.848697</ele>
        <time>2021-11-04T15:25:54.620Z</time>
      </trkpt>
      <trkpt lat="48.925744" lon="2.356693">
        <ele>38.799833</ele>
        <time>2021-11-04T15:25:55.778Z</time>
      </trkpt>
      <trkpt lat="48.925758" lon="2.357086">
        <ele>38.663536</ele>
        <time>2021-11-04T15:25:59.017Z</time>
      </trkpt>
      <trkpt lat="48.925761" lon="2.357177">
        <ele>38.631982</ele>
        <time>2021-11-04T15:25:59.756Z</time>
      </trkpt>
      <trkpt lat="48.925899" lon="2.357165">
        <ele>38.559128</ele>
        <time>2021-11-04T15:26:01.577Z</time>
      </trkpt>
      <trkpt lat="48.925908" lon="2.357297">
        <ele>38.513171</ele>
        <time>2021-11-04T15:26:02.915Z</time>
      </trkpt>
      <trkpt lat="48.925987" lon="2.357295">
        <ele>38.471527</ele>
        <time>2021-11-04T15:26:03.825Z</time>
      </trkpt>
      <trkpt lat="48.926033" lon="2.357297">
        <ele>38.447272</ele>
        <time>2021-11-04T15:26:04.367Z</time>
      </trkpt>
      <trkpt lat="48.926306" lon="2.357283">
        <ele>38.303301</ele>
        <time>2021-11-04T15:26:08.360Z</time>
      </trkpt>
      <trkpt lat="48.926328" lon="2.357272">
        <ele>38.291096</ele>
        <time>2021-11-04T15:26:08.580Z</time>
      </trkpt>
      <trkpt lat="48.926355" lon="2.357268">
        <ele>38.276798</ele>
        <time>2021-11-04T15:26:09.263Z</time>
      </trkpt>
      <trkpt lat="48.926404" lon="2.357262">
        <ele>38.250888</ele>
        <time>2021-11-04T15:26:09.873Z</time>
      </trkpt>
      <trkpt lat="48.926728" lon="2.357248">
        <ele>38.066251</ele>
        <time>2021-11-04T15:26:14.716Z</time>
      </trkpt>
      <trkpt lat="48.926739" lon="2.357231">
        <ele>38.052182</ele>
        <time>2021-11-04T15:26:14.871Z</time>
      </trkpt>
      <trkpt lat="48.926763" lon="2.357191">
        <ele>38.020242</ele>
        <time>2021-11-04T15:26:15.464Z</time>
      </trkpt>
      <trkpt lat="48.926786" lon="2.357155">
        <ele>37.990634</ele>
        <time>2021-11-04T15:26:15.964Z</time>
      </trkpt>
      <trkpt lat="48.926794" lon="2.357143">
        <ele>37.980554</ele>
        <time>2021-11-04T15:26:16.087Z</time>
      </trkpt>
      <trkpt lat="48.926920" lon="2.357143">
        <ele>37.867477</ele>
        <time>2021-11-04T15:26:17.723Z</time>
      </trkpt>
      <trkpt lat="48.926966" lon="2.357153">
        <ele>37.825776</ele>
        <time>2021-11-04T15:26:18.408Z</time>
      </trkpt>
      <trkpt lat="48.926988" lon="2.357167">
        <ele>37.804376</ele>
        <time>2021-11-04T15:26:18.852Z</time>
      </trkpt>
      <trkpt lat="48.927011" lon="2.357183">
        <ele>37.781681</ele>
        <time>2021-11-04T15:26:19.218Z</time>
      </trkpt>
      <trkpt lat="48.927022" lon="2.357189">
        <ele>37.771195</ele>
        <time>2021-11-04T15:26:19.414Z</time>
      </trkpt>
      <trkpt lat="48.927028" lon="2.357192">
        <ele>37.765527</ele>
        <time>2021-11-04T15:26:19.752Z</time>
      </trkpt>
      <trkpt lat="48.927292" lon="2.356954">
        <ele>37.490162</ele>
        <time>2021-11-04T15:26:24.912Z</time>
      </trkpt>
      <trkpt lat="48.927354" lon="2.356936">
        <ele>37.433518</ele>
        <time>2021-11-04T15:26:26.001Z</time>
      </trkpt>
      <trkpt lat="48.927715" lon="2.356909">
        <ele>37.109153</ele>
        <time>2021-11-04T15:26:32.036Z</time>
      </trkpt>
      <trkpt lat="48.927882" lon="2.356893">
        <ele>36.958985</ele>
        <time>2021-11-04T15:26:34.815Z</time>
      </trkpt>
      <trkpt lat="48.927911" lon="2.356891">
        <ele>36.932932</ele>
        <time>2021-11-04T15:26:35.234Z</time>
      </trkpt>
      <trkpt lat="48.928465" lon="2.356863">
        <ele>36.424768</ele>
        <time>2021-11-04T15:26:45.457Z</time>
      </trkpt>
      <trkpt lat="48.928570" lon="2.356868">
        <ele>36.310310</ele>
        <time>2021-11-04T15:26:47.309Z</time>
      </trkpt>
      <trkpt lat="48.928608" lon="2.356873">
        <ele>36.268753</ele>
        <time>2021-11-04T15:26:47.965Z</time>
      </trkpt>
      <trkpt lat="48.928623" lon="2.356866">
        <ele>36.251659</ele>
        <time>2021-11-04T15:26:48.188Z</time>
      </trkpt>
      <trkpt lat="48.928658" lon="2.356870">
        <ele>36.213418</ele>
        <time>2021-11-04T15:26:48.800Z</time>
      </trkpt>
      <trkpt lat="48.928719" lon="2.356873">
        <ele>36.146922</ele>
        <time>2021-11-04T15:26:49.956Z</time>
      </trkpt>
      <trkpt lat="48.928921" lon="2.356856">
        <ele>35.926498</ele>
        <time>2021-11-04T15:26:53.698Z</time>
      </trkpt>
      <trkpt lat="48.929092" lon="2.356940">
        <ele>35.730725</ele>
        <time>2021-11-04T15:26:56.750Z</time>
      </trkpt>
      <trkpt lat="48.929117" lon="2.356949">
        <ele>35.702735</ele>
        <time>2021-11-04T15:26:57.216Z</time>
      </trkpt>
      <trkpt lat="48.929344" lon="2.356933">
        <ele>35.455144</ele>
        <time>2021-11-04T15:27:00.847Z</time>
      </trkpt>
      <trkpt lat="48.929430" lon="2.356898">
        <ele>35.358153</ele>
        <time>2021-11-04T15:27:02.416Z</time>
      </trkpt>
      <trkpt lat="48.929444" lon="2.356896">
        <ele>35.342832</ele>
        <time>2021-11-04T15:27:02.636Z</time>
      </trkpt>
      <trkpt lat="48.929534" lon="2.356898">
        <ele>35.244763</ele>
        <time>2021-11-04T15:27:04.244Z</time>
      </trkpt>
      <trkpt lat="48.929544" lon="2.358469">
        <ele>34.196987</ele>
        <time>2021-11-04T15:27:21.776Z</time>
      </trkpt>
      <trkpt lat="48.929545" lon="2.358543">
        <ele>34.154038</ele>
        <time>2021-11-04T15:27:22.672Z</time>
      </trkpt>
      <trkpt lat="48.929539" lon="2.358713">
        <ele>34.055252</ele>
        <time>2021-11-04T15:27:24.540Z</time>
      </trkpt>
      <trkpt lat="48.929589" lon="2.358710">
        <ele>34.011057</ele>
        <time>2021-11-04T15:27:25.153Z</time>
      </trkpt>
      <trkpt lat="48.929609" lon="2.358881">
        <ele>33.910272</ele>
        <time>2021-11-04T15:27:26.578Z</time>
      </trkpt>
      <trkpt lat="48.929620" lon="2.360223">
        <ele>33.131502</ele>
        <time>2021-11-04T15:27:37.516Z</time>
      </trkpt>
      <trkpt lat="48.929630" lon="2.360481">
        <ele>32.981534</ele>
        <time>2021-11-04T15:27:39.798Z</time>
      </trkpt>
      <trkpt lat="48.929652" lon="2.360757">
        <ele>32.906792</ele>
        <time>2021-11-04T15:27:42.240Z</time>
      </trkpt>
      <trkpt lat="48.929656" lon="2.360793">
        <ele>32.901280</ele>
        <time>2021-11-04T15:27:42.547Z</time>
      </trkpt>
      <trkpt lat="48.929729" lon="2.361320">
        <ele>32.819980</ele>
        <time>2021-11-04T15:27:47.605Z</time>
      </trkpt>
      <trkpt lat="48.929736" lon="2.361364">
        <ele>32.813146</ele>
        <time>2021-11-04T15:27:48.090Z</time>
      </trkpt>
      <trkpt lat="48.929743" lon="2.361674">
        <ele>32.766324</ele>
        <time>2021-11-04T15:27:50.910Z</time>
      </trkpt>
      <trkpt lat="48.929771" lon="2.361783">
        <ele>32.748657</ele>
        <time>2021-11-04T15:27:52.063Z</time>
      </trkpt>
      <trkpt lat="48.929848" lon="2.361894">
        <ele>32.724290</ele>
        <time>2021-11-04T15:27:53.729Z</time>
      </trkpt>
      <trkpt lat="48.929992" lon="2.362061">
        <ele>32.682695</ele>
        <time>2021-11-04T15:27:56.116Z</time>
      </trkpt>
      <trkpt lat="48.930066" lon="2.362150">
        <ele>32.661025</ele>
        <time>2021-11-04T15:27:57.514Z</time>
      </trkpt>
      <trkpt lat="48.930132" lon="2.362228">
        <ele>32.641827</ele>
        <time>2021-11-04T15:27:58.771Z</time>
      </trkpt>
      <trkpt lat="48.930225" lon="2.362299">
        <ele>32.617921</ele>
        <time>2021-11-04T15:28:00.167Z</time>
      </trkpt>
      <trkpt lat="48.930652" lon="2.362919">
        <ele>32.560986</ele>
        <time>2021-11-04T15:28:08.474Z</time>
      </trkpt>
      <trkpt lat="48.930975" lon="2.363421">
        <ele>32.655266</ele>
        <time>2021-11-04T15:28:15.667Z</time>
      </trkpt>
      <trkpt lat="48.931044" lon="2.363561">
        <ele>32.678749</ele>
        <time>2021-11-04T15:28:17.344Z</time>
      </trkpt>
      <trkpt lat="48.931304" lon="2.363970">
        <ele>32.755113</ele>
        <time>2021-11-04T15:28:23.487Z</time>
      </trkpt>
      <trkpt lat="48.931410" lon="2.364135">
        <ele>32.786077</ele>
        <time>2021-11-04T15:28:25.888Z</time>
      </trkpt>
      <trkpt lat="48.931440" lon="2.364184">
        <ele>32.795064</ele>
        <time>2021-11-04T15:28:26.561Z</time>
      </trkpt>
      <trkpt lat="48.931526" lon="2.364317">
        <ele>32.820103</ele>
        <time>2021-11-04T15:28:28.519Z</time>
      </trkpt>
      <trkpt lat="48.931588" lon="2.364405">
        <ele>32.837417</ele>
        <time>2021-11-04T15:28:29.829Z</time>
      </trkpt>
      <trkpt lat="48.931847" lon="2.364776">
        <ele>32.925802</ele>
        <time>2021-11-04T15:28:35.548Z</time>
      </trkpt>
      <trkpt lat="48.931916" lon="2.364859">
        <ele>32.958863</ele>
        <time>2021-11-04T15:28:37.061Z</time>
      </trkpt>
      <trkpt lat="48.931976" lon="2.364891">
        <ele>32.982764</ele>
        <time>2021-11-04T15:28:38.052Z</time>
      </trkpt>
      <trkpt lat="48.932011" lon="2.364934">
        <ele>32.999673</ele>
        <time>2021-11-04T15:28:38.911Z</time>
      </trkpt>
      <trkpt lat="48.932189" lon="2.365192">
        <ele>33.092073</ele>
        <time>2021-11-04T15:28:42.835Z</time>
      </trkpt>
      <trkpt lat="48.932352" lon="2.365430">
        <ele>33.176985</ele>
        <time>2021-11-04T15:28:46.625Z</time>
      </trkpt>
      <trkpt lat="48.932329" lon="2.365461">
        <ele>33.188533</ele>
        <time>2021-11-04T15:28:47.280Z</time>
      </trkpt>
      <trkpt lat="48.932313" lon="2.365498">
        <ele>33.199473</ele>
        <time>2021-11-04T15:28:47.928Z</time>
      </trkpt>
      <trkpt lat="48.932537" lon="2.365827">
        <ele>33.316492</ele>
        <time>2021-11-04T15:28:53.208Z</time>
      </trkpt>
      <trkpt lat="48.932581" lon="2.365850">
        <ele>33.333981</ele>
        <time>2021-11-04T15:28:53.944Z</time>
      </trkpt>
      <trkpt lat="48.932639" lon="2.365933">
        <ele>33.363908</ele>
        <time>2021-11-04T15:28:55.312Z</time>
      </trkpt>
      <trkpt lat="48.932678" lon="2.365989">
        <ele>33.384063</ele>
        <time>2021-11-04T15:28:56.125Z</time>
      </trkpt>
      <trkpt lat="48.932742" lon="2.366083">
        <ele>33.417497</ele>
        <time>2021-11-04T15:28:57.695Z</time>
      </trkpt>
      <trkpt lat="48.933067" lon="2.366609">
        <ele>33.561139</ele>
        <time>2021-11-04T15:29:05.364Z</time>
      </trkpt>
      <trkpt lat="48.933147" lon="2.366656">
        <ele>33.553909</ele>
        <time>2021-11-04T15:29:06.772Z</time>
      </trkpt>
      <trkpt lat="48.933218" lon="2.366725">
        <ele>33.546806</ele>
        <time>2021-11-04T15:29:08.035Z</time>
      </trkpt>
      <trkpt lat="48.933315" lon="2.366818">
        <ele>33.537141</ele>
        <time>2021-11-04T15:29:09.800Z</time>
      </trkpt>
      <trkpt lat="48.933370" lon="2.366858">
        <ele>33.532002</ele>
        <time>2021-11-04T15:29:10.729Z</time>
      </trkpt>
      <trkpt lat="48.933463" lon="2.366902">
        <ele>33.523790</ele>
        <time>2021-11-04T15:29:12.276Z</time>
      </trkpt>
      <trkpt lat="48.933515" lon="2.366947">
        <ele>33.518747</ele>
        <time>2021-11-04T15:29:13.137Z</time>
      </trkpt>
      <trkpt lat="48.934387" lon="2.367210">
        <ele>33.443796</ele>
        <time>2021-11-04T15:29:26.073Z</time>
      </trkpt>
      <trkpt lat="48.934404" lon="2.367215">
        <ele>33.442336</ele>
        <time>2021-11-04T15:29:26.307Z</time>
      </trkpt>
      <trkpt lat="48.934476" lon="2.367262">
        <ele>33.435731</ele>
        <time>2021-11-04T15:29:27.380Z</time>
      </trkpt>
      <trkpt lat="48.934503" lon="2.367280">
        <ele>33.433246</ele>
        <time>2021-11-04T15:29:27.780Z</time>
      </trkpt>
      <trkpt lat="48.934527" lon="2.367296">
        <ele>33.431037</ele>
        <time>2021-11-04T15:29:28.130Z</time>
      </trkpt>
      <trkpt lat="48.935421" lon="2.367570">
        <ele>32.819822</ele>
        <time>2021-11-04T15:29:39.930Z</time>
      </trkpt>
      <trkpt lat="48.935472" lon="2.367549">
        <ele>32.776789</ele>
        <time>2021-11-04T15:29:40.525Z</time>
      </trkpt>
      <trkpt lat="48.935548" lon="2.367626">
        <ele>32.702428</ele>
        <time>2021-11-04T15:29:41.667Z</time>
      </trkpt>
      <trkpt lat="48.935545" lon="2.367692">
        <ele>32.667029</ele>
        <time>2021-11-04T15:29:42.243Z</time>
      </trkpt>
      <trkpt lat="48.935554" lon="2.367764">
        <ele>32.627813</ele>
        <time>2021-11-04T15:29:42.876Z</time>
      </trkpt>
      <trkpt lat="48.935563" lon="2.367793">
        <ele>32.610651</ele>
        <time>2021-11-04T15:29:43.146Z</time>
      </trkpt>
      <trkpt lat="48.935636" lon="2.367909">
        <ele>32.524698</ele>
        <time>2021-11-04T15:29:44.514Z</time>
      </trkpt>
      <trkpt lat="48.935663" lon="2.367926">
        <ele>32.500899</ele>
        <time>2021-11-04T15:29:44.866Z</time>
      </trkpt>
      <trkpt lat="48.935739" lon="2.367943">
        <ele>32.438331</ele>
        <time>2021-11-04T15:29:45.759Z</time>
      </trkpt>
      <trkpt lat="48.935768" lon="2.367928">
        <ele>32.413383</ele>
        <time>2021-11-04T15:29:46.144Z</time>
      </trkpt>
      <trkpt lat="48.935820" lon="2.367895">
        <ele>32.367495</ele>
        <time>2021-11-04T15:29:46.872Z</time>
      </trkpt>
      <trkpt lat="48.935836" lon="2.367868">
        <ele>32.348038</ele>
        <time>2021-11-04T15:29:47.182Z</time>
      </trkpt>
      <trkpt lat="48.935854" lon="2.367833">
        <ele>32.324255</ele>
        <time>2021-11-04T15:29:47.556Z</time>
      </trkpt>
      <trkpt lat="48.935878" lon="2.367772">
        <ele>32.286209</ele>
        <time>2021-11-04T15:29:48.166Z</time>
      </trkpt>
      <trkpt lat="48.935970" lon="2.367777">
        <ele>32.211225</ele>
        <time>2021-11-04T15:29:49.318Z</time>
      </trkpt>
      <trkpt lat="48.935998" lon="2.367798">
        <ele>32.185801</ele>
        <time>2021-11-04T15:29:49.643Z</time>
      </trkpt>
      <trkpt lat="48.937274" lon="2.368263">
        <ele>30.935546</ele>
        <time>2021-11-04T15:30:05.461Z</time>
      </trkpt>
      <trkpt lat="48.938690" lon="2.368778">
        <ele>29.880992</ele>
        <time>2021-11-04T15:30:23.659Z</time>
      </trkpt>
      <trkpt lat="48.939064" lon="2.368975">
        <ele>29.714885</ele>
        <time>2021-11-04T15:30:28.935Z</time>
      </trkpt>
      <trkpt lat="48.939091" lon="2.368994">
        <ele>29.702400</ele>
        <time>2021-11-04T15:30:29.281Z</time>
      </trkpt>
      <trkpt lat="48.939151" lon="2.368971">
        <ele>29.676430</ele>
        <time>2021-11-04T15:30:30.136Z</time>
      </trkpt>
      <trkpt lat="48.939170" lon="2.368983">
        <ele>29.667796</ele>
        <time>2021-11-04T15:30:30.423Z</time>
      </trkpt>
      <trkpt lat="48.939197" lon="2.369008">
        <ele>29.654532</ele>
        <time>2021-11-04T15:30:30.875Z</time>
      </trkpt>
      <trkpt lat="48.939308" lon="2.369098">
        <ele>29.601747</ele>
        <time>2021-11-04T15:30:32.683Z</time>
      </trkpt>
      <trkpt lat="48.939422" lon="2.369184">
        <ele>29.548346</ele>
        <time>2021-11-04T15:30:34.454Z</time>
      </trkpt>
      <trkpt lat="48.939471" lon="2.369242">
        <ele>29.522295</ele>
        <time>2021-11-04T15:30:35.369Z</time>
      </trkpt>
      <trkpt lat="48.939489" lon="2.369250">
        <ele>29.514424</ele>
        <time>2021-11-04T15:30:35.635Z</time>
      </trkpt>
      <trkpt lat="48.939505" lon="2.369253">
        <ele>29.507658</ele>
        <time>2021-11-04T15:30:35.874Z</time>
      </trkpt>
      <trkpt lat="48.939524" lon="2.369254">
        <ele>29.499678</ele>
        <time>2021-11-04T15:30:36.158Z</time>
      </trkpt>
      <trkpt lat="48.939561" lon="2.369249">
        <ele>29.484088</ele>
        <time>2021-11-04T15:30:36.733Z</time>
      </trkpt>
      <trkpt lat="48.939574" lon="2.369296">
        <ele>29.470028</ele>
        <time>2021-11-04T15:30:37.455Z</time>
      </trkpt>
      <trkpt lat="48.940252" lon="2.370396">
        <ele>29.823555</ele>
        <time>2021-11-04T15:30:58.801Z</time>
      </trkpt>
      <trkpt lat="48.940257" lon="2.370466">
        <ele>29.845906</ele>
        <time>2021-11-04T15:30:59.883Z</time>
      </trkpt>
      <trkpt lat="48.940257" lon="2.370466">
        <ele>29.845906</ele>
        <time>2021-11-04T15:30:59.905Z</time>
      </trkpt>
      <trkpt lat="48.940257" lon="2.370466">
        <ele>29.845906</ele>
        <time>2021-11-04T15:30:59.927Z</time>
      </trkpt>
      <trkpt lat="48.940262" lon="2.370521">
        <ele>29.863531</ele>
        <time>2021-11-04T15:31:00.778Z</time>
      </trkpt>
      <trkpt lat="48.940267" lon="2.370572">
        <ele>29.879900</ele>
        <time>2021-11-04T15:31:01.524Z</time>
      </trkpt>
      <trkpt lat="48.940278" lon="2.370621">
        <ele>29.896337</ele>
        <time>2021-11-04T15:31:02.281Z</time>
      </trkpt>
      <trkpt lat="48.940296" lon="2.370666">
        <ele>29.913062</ele>
        <time>2021-11-04T15:31:03.167Z</time>
      </trkpt>
      <trkpt lat="48.940315" lon="2.370722">
        <ele>29.933069</ele>
        <time>2021-11-04T15:31:04.075Z</time>
      </trkpt>
      <trkpt lat="48.940386" lon="2.371213">
        <ele>30.092659</ele>
        <time>2021-11-04T15:31:11.683Z</time>
      </trkpt>
      <trkpt lat="48.940444" lon="2.371171">
        <ele>30.123698</ele>
        <time>2021-11-04T15:31:18.918Z</time>
      </trkpt>
      <trkpt lat="48.940526" lon="2.371770">
        <ele>30.357973</ele>
        <time>2021-11-04T15:31:25.800Z</time>
      </trkpt>
      <trkpt lat="48.940534" lon="2.371864">
        <ele>30.420700</ele>
        <time>2021-11-04T15:31:26.959Z</time>
      </trkpt>
      <trkpt lat="48.940616" lon="2.371877">
        <ele>30.503762</ele>
        <time>2021-11-04T15:31:28.417Z</time>
      </trkpt>
      <trkpt lat="48.941032" lon="2.371934">
        <ele>30.924581</ele>
        <time>2021-11-04T15:31:35.951Z</time>
      </trkpt>
      <trkpt lat="48.941090" lon="2.371942">
        <ele>30.983256</ele>
        <time>2021-11-04T15:31:37.126Z</time>
      </trkpt>
      <trkpt lat="48.941293" lon="2.371980">
        <ele>31.189321</ele>
        <time>2021-11-04T15:31:40.947Z</time>
      </trkpt>
      <trkpt lat="48.941350" lon="2.371989">
        <ele>31.247057</ele>
        <time>2021-11-04T15:31:42.016Z</time>
      </trkpt>
      <trkpt lat="48.941597" lon="2.372025">
        <ele>31.497050</ele>
        <time>2021-11-04T15:31:46.689Z</time>
      </trkpt>
      <trkpt lat="48.941681" lon="2.372036">
        <ele>31.581993</ele>
        <time>2021-11-04T15:31:48.305Z</time>
      </trkpt>
      <trkpt lat="48.941733" lon="2.372043">
        <ele>31.634588</ele>
        <time>2021-11-04T15:31:49.281Z</time>
      </trkpt>
      <trkpt lat="48.941949" lon="2.372075">
        <ele>31.853238</ele>
        <time>2021-11-04T15:31:53.443Z</time>
      </trkpt>
      <trkpt lat="48.942419" lon="2.372150">
        <ele>32.521916</ele>
        <time>2021-11-04T15:32:02.856Z</time>
      </trkpt>
      <trkpt lat="48.942878" lon="2.372216">
        <ele>33.365086</ele>
        <time>2021-11-04T15:32:12.772Z</time>
      </trkpt>
      <trkpt lat="48.943327" lon="2.372275">
        <ele>34.189284</ele>
        <time>2021-11-04T15:32:23.467Z</time>
      </trkpt>
      <trkpt lat="48.944084" lon="2.372391">
        <ele>35.491812</ele>
        <time>2021-11-04T15:32:41.267Z</time>
      </trkpt>
      <trkpt lat="48.944230" lon="2.372377">
        <ele>35.639317</ele>
        <time>2021-11-04T15:32:44.326Z</time>
      </trkpt>
      <trkpt lat="48.944459" lon="2.372286">
        <ele>35.877957</ele>
        <time>2021-11-04T15:32:49.593Z</time>
      </trkpt>
      <trkpt lat="48.944576" lon="2.372240">
        <ele>35.999799</ele>
        <time>2021-11-04T15:32:51.924Z</time>
      </trkpt>
      <trkpt lat="48.945063" lon="2.372140">
        <ele>36.495295</ele>
        <time>2021-11-04T15:33:01.926Z</time>
      </trkpt>
      <trkpt lat="48.945169" lon="2.372100">
        <ele>36.605410</ele>
        <time>2021-11-04T15:33:04.098Z</time>
      </trkpt>
      <trkpt lat="48.946834" lon="2.371739">
        <ele>36.982037</ele>
        <time>2021-11-04T15:33:28.343Z</time>
      </trkpt>
      <trkpt lat="48.946965" lon="2.371684">
        <ele>36.955484</ele>
        <time>2021-11-04T15:33:30.147Z</time>
      </trkpt>
      <trkpt lat="48.947006" lon="2.371898">
        <ele>36.926877</ele>
        <time>2021-11-04T15:33:32.783Z</time>
      </trkpt>
      <trkpt lat="48.947289" lon="2.373472">
        <ele>36.690987</ele>
        <time>2021-11-04T15:33:53.277Z</time>
      </trkpt>
      <trkpt lat="48.947595" lon="2.375037">
        <ele>36.437863</ele>
        <time>2021-11-04T15:34:13.851Z</time>
      </trkpt>
      <trkpt lat="48.947632" lon="2.375216">
        <ele>36.438482</ele>
        <time>2021-11-04T15:34:16.550Z</time>
      </trkpt>
      <trkpt lat="48.947688" lon="2.375505">
        <ele>36.513432</ele>
        <time>2021-11-04T15:34:19.342Z</time>
      </trkpt>
      <trkpt lat="48.947979" lon="2.376986">
        <ele>36.897953</ele>
        <time>2021-11-04T15:34:36.264Z</time>
      </trkpt>
      <trkpt lat="48.948411" lon="2.379358">
        <ele>37.526435</ele>
        <time>2021-11-04T15:35:03.944Z</time>
      </trkpt>
      <trkpt lat="48.948425" lon="2.379448">
        <ele>37.550353</ele>
        <time>2021-11-04T15:35:05.469Z</time>
      </trkpt>
      <trkpt lat="48.948445" lon="2.379563">
        <ele>37.581117</ele>
        <time>2021-11-04T15:35:06.624Z</time>
      </trkpt>
      <trkpt lat="48.948485" lon="2.379818">
        <ele>37.648914</ele>
        <time>2021-11-04T15:35:09.012Z</time>
      </trkpt>
      <trkpt lat="48.948642" lon="2.380527">
        <ele>37.765133</ele>
        <time>2021-11-04T15:35:16.976Z</time>
      </trkpt>
      <trkpt lat="48.948684" lon="2.380778">
        <ele>37.674092</ele>
        <time>2021-11-04T15:35:19.085Z</time>
      </trkpt>
      <trkpt lat="48.948729" lon="2.381028">
        <ele>37.582982</ele>
        <time>2021-11-04T15:35:21.875Z</time>
      </trkpt>
      <trkpt lat="48.948804" lon="2.381462">
        <ele>37.425247</ele>
        <time>2021-11-04T15:35:25.373Z</time>
      </trkpt>
      <trkpt lat="48.949113" lon="2.383158">
        <ele>36.825210</ele>
        <time>2021-11-04T15:35:40.019Z</time>
      </trkpt>
      <trkpt lat="48.949154" lon="2.383371">
        <ele>36.783080</ele>
        <time>2021-11-04T15:35:41.873Z</time>
      </trkpt>
      <trkpt lat="48.949185" lon="2.383544">
        <ele>36.749044</ele>
        <time>2021-11-04T15:35:43.560Z</time>
      </trkpt>
      <trkpt lat="48.949322" lon="2.384296">
        <ele>36.600920</ele>
        <time>2021-11-04T15:35:50.966Z</time>
      </trkpt>
      <trkpt lat="48.949358" lon="2.384483">
        <ele>36.563933</ele>
        <time>2021-11-04T15:35:52.710Z</time>
      </trkpt>
      <trkpt lat="48.949404" lon="2.384726">
        <ele>36.515932</ele>
        <time>2021-11-04T15:35:55.325Z</time>
      </trkpt>
      <trkpt lat="48.949495" lon="2.385141">
        <ele>36.432888</ele>
        <time>2021-11-04T15:35:59.310Z</time>
      </trkpt>
      <trkpt lat="48.949650" lon="2.385634">
        <ele>36.329144</ele>
        <time>2021-11-04T15:36:04.288Z</time>
      </trkpt>
      <trkpt lat="48.949686" lon="2.385746">
        <ele>36.312679</ele>
        <time>2021-11-04T15:36:05.502Z</time>
      </trkpt>
      <trkpt lat="48.949758" lon="2.385969">
        <ele>36.281159</ele>
        <time>2021-11-04T15:36:07.732Z</time>
      </trkpt>
      <trkpt lat="48.949823" lon="2.386097">
        <ele>36.260636</ele>
        <time>2021-11-04T15:36:09.273Z</time>
      </trkpt>
      <trkpt lat="48.949948" lon="2.386292">
        <ele>36.226072</ele>
        <time>2021-11-04T15:36:11.689Z</time>
      </trkpt>
      <trkpt lat="48.950057" lon="2.386422">
        <ele>36.199330</ele>
        <time>2021-11-04T15:36:13.539Z</time>
      </trkpt>
      <trkpt lat="48.950159" lon="2.386542">
        <ele>36.174434</ele>
        <time>2021-11-04T15:36:15.646Z</time>
      </trkpt>
      <trkpt lat="48.950789" lon="2.387244">
        <ele>36.023653</ele>
        <time>2021-11-04T15:36:26.472Z</time>
      </trkpt>
      <trkpt lat="48.951254" lon="2.387728">
        <ele>36.117521</ele>
        <time>2021-11-04T15:36:34.194Z</time>
      </trkpt>
      <trkpt lat="48.951292" lon="2.387767">
        <ele>36.136297</ele>
        <time>2021-11-04T15:36:35.106Z</time>
      </trkpt>
      <trkpt lat="48.952621" lon="2.389156">
        <ele>36.966511</ele>
        <time>2021-11-04T15:37:02.655Z</time>
      </trkpt>
      <trkpt lat="48.952731" lon="2.389290">
        <ele>37.146708</ele>
        <time>2021-11-04T15:37:05.676Z</time>
      </trkpt>
      <trkpt lat="48.952706" lon="2.389322">
        <ele>37.188485</ele>
        <time>2021-11-04T15:37:06.310Z</time>
      </trkpt>
      <trkpt lat="48.952682" lon="2.389415">
        <ele>37.272425</ele>
        <time>2021-11-04T15:37:07.539Z</time>
      </trkpt>
      <trkpt lat="48.952687" lon="2.389465">
        <ele>37.314910</ele>
        <time>2021-11-04T15:37:08.178Z</time>
      </trkpt>
      <trkpt lat="48.952702" lon="2.389510">
        <ele>37.357303</ele>
        <time>2021-11-04T15:37:08.859Z</time>
      </trkpt>
      <trkpt lat="48.952756" lon="2.389565">
        <ele>37.440407</ele>
        <time>2021-11-04T15:37:10.042Z</time>
      </trkpt>
      <trkpt lat="48.952789" lon="2.389570">
        <ele>37.482830</ele>
        <time>2021-11-04T15:37:10.806Z</time>
      </trkpt>
      <trkpt lat="48.952820" lon="2.389699">
        <ele>37.598222</ele>
        <time>2021-11-04T15:37:12.702Z</time>
      </trkpt>
      <trkpt lat="48.953082" lon="2.390366">
        <ele>38.251110</ele>
        <time>2021-11-04T15:37:22.690Z</time>
      </trkpt>
      <trkpt lat="48.953312" lon="2.390959">
        <ele>38.829645</ele>
        <time>2021-11-04T15:37:31.974Z</time>
      </trkpt>
      <trkpt lat="48.953478" lon="2.391296">
        <ele>39.317968</ele>
        <time>2021-11-04T15:37:38.084Z</time>
      </trkpt>
      <trkpt lat="48.954097" lon="2.392248">
        <ele>41.355260</ele>
        <time>2021-11-04T15:37:57.653Z</time>
      </trkpt>
      <trkpt lat="48.954148" lon="2.392313">
        <ele>41.509267</ele>
        <time>2021-11-04T15:37:59.516Z</time>
      </trkpt>
      <trkpt lat="48.954615" lon="2.392930">
        <ele>42.940995</ele>
        <time>2021-11-04T15:38:15.014Z</time>
      </trkpt>
      <trkpt lat="48.955540" lon="2.394193">
        <ele>46.907440</ele>
        <time>2021-11-04T15:38:51.796Z</time>
      </trkpt>
      <trkpt lat="48.955907" lon="2.394632">
        <ele>48.434941</ele>
        <time>2021-11-04T15:39:04.814Z</time>
      </trkpt>
      <trkpt lat="48.955947" lon="2.394685">
        <ele>48.608485</ele>
        <time>2021-11-04T15:39:06.477Z</time>
      </trkpt>
      <trkpt lat="48.956181" lon="2.394972">
        <ele>49.371087</ele>
        <time>2021-11-04T15:39:13.911Z</time>
      </trkpt>
      <trkpt lat="48.956279" lon="2.395089">
        <ele>49.606210</ele>
        <time>2021-11-04T15:39:16.965Z</time>
      </trkpt>
      <trkpt lat="48.956317" lon="2.395135">
        <ele>49.697866</ele>
        <time>2021-11-04T15:39:18.168Z</time>
      </trkpt>
      <trkpt lat="48.956453" lon="2.395299">
        <ele>50.025411</ele>
        <time>2021-11-04T15:39:22.100Z</time>
      </trkpt>
      <trkpt lat="48.957536" lon="2.396436">
        <ele>52.445586</ele>
        <time>2021-11-04T15:39:51.289Z</time>
      </trkpt>
      <trkpt lat="48.957817" lon="2.396775">
        <ele>52.120929</ele>
        <time>2021-11-04T15:39:57.564Z</time>
      </trkpt>
      <trkpt lat="48.957927" lon="2.396902">
        <ele>51.995917</ele>
        <time>2021-11-04T15:39:59.700Z</time>
      </trkpt>
      <trkpt lat="48.958739" lon="2.397875">
        <ele>51.060200</ele>
        <time>2021-11-04T15:40:11.468Z</time>
      </trkpt>
      <trkpt lat="48.959136" lon="2.398349">
        <ele>50.134590</ele>
        <time>2021-11-04T15:40:16.885Z</time>
      </trkpt>
      <trkpt lat="48.959356" lon="2.398601">
        <ele>49.385652</ele>
        <time>2021-11-04T15:40:19.893Z</time>
      </trkpt>
      <trkpt lat="48.959442" lon="2.398701">
        <ele>49.091277</ele>
        <time>2021-11-04T15:40:20.982Z</time>
      </trkpt>
      <trkpt lat="48.959564" lon="2.398844">
        <ele>48.672438</ele>
        <time>2021-11-04T15:40:22.672Z</time>
      </trkpt>
      <trkpt lat="48.959609" lon="2.398896">
        <ele>48.518757</ele>
        <time>2021-11-04T15:40:23.225Z</time>
      </trkpt>
      <trkpt lat="48.959664" lon="2.398961">
        <ele>48.329354</ele>
        <time>2021-11-04T15:40:23.931Z</time>
      </trkpt>
      <trkpt lat="48.959726" lon="2.399031">
        <ele>48.119379</ele>
        <time>2021-11-04T15:40:24.690Z</time>
      </trkpt>
      <trkpt lat="48.959773" lon="2.399086">
        <ele>47.958121</ele>
        <time>2021-11-04T15:40:25.307Z</time>
      </trkpt>
      <trkpt lat="48.960017" lon="2.399440">
        <ele>47.041291</ele>
        <time>2021-11-04T15:40:28.684Z</time>
      </trkpt>
      <trkpt lat="48.960426" lon="2.399975">
        <ele>45.729677</ele>
        <time>2021-11-04T15:40:34.190Z</time>
      </trkpt>
      <trkpt lat="48.960760" lon="2.400618">
        <ele>44.880665</ele>
        <time>2021-11-04T15:40:39.945Z</time>
      </trkpt>
      <trkpt lat="48.960827" lon="2.400853">
        <ele>44.615367</ele>
        <time>2021-11-04T15:40:41.932Z</time>
      </trkpt>
      <trkpt lat="48.960838" lon="2.401097">
        <ele>44.362108</ele>
        <time>2021-11-04T15:40:43.945Z</time>
      </trkpt>
      <trkpt lat="48.960787" lon="2.401216">
        <ele>44.214954</ele>
        <time>2021-11-04T15:40:45.105Z</time>
      </trkpt>
      <trkpt lat="48.960761" lon="2.401330">
        <ele>44.089986</ele>
        <time>2021-11-04T15:40:46.005Z</time>
      </trkpt>
      <trkpt lat="48.960754" lon="2.401450">
        <ele>43.965235</ele>
        <time>2021-11-04T15:40:47.137Z</time>
      </trkpt>
      <trkpt lat="48.960765" lon="2.401566">
        <ele>43.843869</ele>
        <time>2021-11-04T15:40:48.088Z</time>
      </trkpt>
      <trkpt lat="48.960795" lon="2.401675">
        <ele>43.721483</ele>
        <time>2021-11-04T15:40:48.992Z</time>
      </trkpt>
      <trkpt lat="48.960840" lon="2.401771">
        <ele>43.599339</ele>
        <time>2021-11-04T15:40:49.973Z</time>
      </trkpt>
      <trkpt lat="48.960894" lon="2.401841">
        <ele>43.487503</ele>
        <time>2021-11-04T15:40:50.791Z</time>
      </trkpt>
      <trkpt lat="48.961024" lon="2.401922">
        <ele>43.265981</ele>
        <time>2021-11-04T15:40:52.798Z</time>
      </trkpt>
      <trkpt lat="48.961095" lon="2.401929">
        <ele>43.153770</ele>
        <time>2021-11-04T15:40:53.629Z</time>
      </trkpt>
      <trkpt lat="48.961158" lon="2.401915">
        <ele>43.083461</ele>
        <time>2021-11-04T15:40:54.445Z</time>
      </trkpt>
      <trkpt lat="48.961217" lon="2.401882">
        <ele>43.039938</ele>
        <time>2021-11-04T15:40:55.168Z</time>
      </trkpt>
      <trkpt lat="48.961272" lon="2.401833">
        <ele>42.995816</ele>
        <time>2021-11-04T15:40:56.149Z</time>
      </trkpt>
      <trkpt lat="48.961326" lon="2.401760">
        <ele>42.945819</ele>
        <time>2021-11-04T15:40:57.151Z</time>
      </trkpt>
      <trkpt lat="48.961394" lon="2.401736">
        <ele>42.897485</ele>
        <time>2021-11-04T15:40:57.981Z</time>
      </trkpt>
      <trkpt lat="48.961655" lon="2.401751">
        <ele>42.716626</ele>
        <time>2021-11-04T15:41:01.407Z</time>
      </trkpt>
      <trkpt lat="48.961720" lon="2.401790">
        <ele>42.668250</ele>
        <time>2021-11-04T15:41:02.251Z</time>
      </trkpt>
      <trkpt lat="48.961809" lon="2.401859">
        <ele>42.599097</ele>
        <time>2021-11-04T15:41:03.534Z</time>
      </trkpt>
      <trkpt lat="48.962050" lon="2.402105">
        <ele>42.398206</ele>
        <time>2021-11-04T15:41:07.025Z</time>
      </trkpt>
      <trkpt lat="48.962149" lon="2.402236">
        <ele>42.307395</ele>
        <time>2021-11-04T15:41:08.537Z</time>
      </trkpt>
      <trkpt lat="48.962299" lon="2.402418">
        <ele>42.174598</ele>
        <time>2021-11-04T15:41:10.985Z</time>
      </trkpt>
      <trkpt lat="48.962596" lon="2.402786">
        <ele>41.909483</ele>
        <time>2021-11-04T15:41:15.962Z</time>
      </trkpt>
      <trkpt lat="48.962644" lon="2.402850">
        <ele>41.865309</ele>
        <time>2021-11-04T15:41:17.095Z</time>
      </trkpt>
      <trkpt lat="48.962685" lon="2.402919">
        <ele>41.873095</ele>
        <time>2021-11-04T15:41:17.899Z</time>
      </trkpt>
      <trkpt lat="48.962791" lon="2.403132">
        <ele>41.909493</ele>
        <time>2021-11-04T15:41:20.694Z</time>
      </trkpt>
      <trkpt lat="48.962975" lon="2.403517">
        <ele>41.974343</ele>
        <time>2021-11-04T15:41:25.588Z</time>
      </trkpt>
      <trkpt lat="48.963116" lon="2.403809">
        <ele>42.023704</ele>
        <time>2021-11-04T15:41:29.438Z</time>
      </trkpt>
      <trkpt lat="48.963223" lon="2.403997">
        <ele>42.057587</ele>
        <time>2021-11-04T15:41:32.144Z</time>
      </trkpt>
      <trkpt lat="48.963389" lon="2.404290">
        <ele>42.110290</ele>
        <time>2021-11-04T15:41:36.046Z</time>
      </trkpt>
      <trkpt lat="48.963649" lon="2.404848">
        <ele>42.203471</ele>
        <time>2021-11-04T15:41:43.199Z</time>
      </trkpt>
      <trkpt lat="48.963846" lon="2.405227">
        <ele>42.374344</ele>
        <time>2021-11-04T15:41:48.333Z</time>
      </trkpt>
      <trkpt lat="48.964100" lon="2.405691">
        <ele>42.705832</ele>
        <time>2021-11-04T15:41:55.327Z</time>
      </trkpt>
      <trkpt lat="48.964183" lon="2.405843">
        <ele>42.814311</ele>
        <time>2021-11-04T15:41:57.712Z</time>
      </trkpt>
      <trkpt lat="48.964331" lon="2.406098">
        <ele>43.001065</ele>
        <time>2021-11-04T15:42:01.889Z</time>
      </trkpt>
      <trkpt lat="48.964610" lon="2.406589">
        <ele>43.357370</ele>
        <time>2021-11-04T15:42:09.975Z</time>
      </trkpt>
      <trkpt lat="48.964837" lon="2.406965">
        <ele>43.637648</ele>
        <time>2021-11-04T15:42:16.192Z</time>
      </trkpt>
      <trkpt lat="48.965369" lon="2.407797">
        <ele>44.678244</ele>
        <time>2021-11-04T15:42:30.670Z</time>
      </trkpt>
      <trkpt lat="48.965454" lon="2.407919">
        <ele>44.849161</ele>
        <time>2021-11-04T15:42:33.105Z</time>
      </trkpt>
      <trkpt lat="48.965697" lon="2.408300">
        <ele>45.359511</ele>
        <time>2021-11-04T15:42:40.378Z</time>
      </trkpt>
      <trkpt lat="48.965730" lon="2.408350">
        <ele>45.427629</ele>
        <time>2021-11-04T15:42:41.421Z</time>
      </trkpt>
      <trkpt lat="48.965881" lon="2.408657">
        <ele>45.796180</ele>
        <time>2021-11-04T15:42:46.772Z</time>
      </trkpt>
      <trkpt lat="48.965994" lon="2.408833">
        <ele>46.032696</ele>
        <time>2021-11-04T15:42:50.350Z</time>
      </trkpt>
      <trkpt lat="48.966045" lon="2.408901">
        <ele>46.131886</ele>
        <time>2021-11-04T15:42:51.821Z</time>
      </trkpt>
      <trkpt lat="48.966100" lon="2.408973">
        <ele>46.238016</ele>
        <time>2021-11-04T15:42:53.515Z</time>
      </trkpt>
      <trkpt lat="48.966348" lon="2.409245">
        <ele>46.762634</ele>
        <time>2021-11-04T15:43:00.363Z</time>
      </trkpt>
      <trkpt lat="48.966375" lon="2.409274">
        <ele>46.822854</ele>
        <time>2021-11-04T15:43:01.204Z</time>
      </trkpt>
      <trkpt lat="48.966447" lon="2.409352">
        <ele>46.983901</ele>
        <time>2021-11-04T15:43:03.260Z</time>
      </trkpt>
      <trkpt lat="48.966559" lon="2.409467">
        <ele>47.230105</ele>
        <time>2021-11-04T15:43:06.444Z</time>
      </trkpt>
      <trkpt lat="48.966691" lon="2.409614">
        <ele>47.528158</ele>
        <time>2021-11-04T15:43:10.216Z</time>
      </trkpt>
      <trkpt lat="48.966754" lon="2.409683">
        <ele>47.669596</ele>
        <time>2021-11-04T15:43:12.047Z</time>
      </trkpt>
      <trkpt lat="48.967545" lon="2.410561">
        <ele>49.453614</ele>
        <time>2021-11-04T15:43:34.507Z</time>
      </trkpt>
      <trkpt lat="48.967655" lon="2.410689">
        <ele>49.642720</ele>
        <time>2021-11-04T15:43:37.232Z</time>
      </trkpt>
      <trkpt lat="48.967719" lon="2.410761">
        <ele>49.627842</ele>
        <time>2021-11-04T15:43:38.805Z</time>
      </trkpt>
      <trkpt lat="48.967942" lon="2.411017">
        <ele>49.575626</ele>
        <time>2021-11-04T15:43:43.640Z</time>
      </trkpt>
      <trkpt lat="48.968129" lon="2.411218">
        <ele>49.532830</ele>
        <time>2021-11-04T15:43:47.619Z</time>
      </trkpt>
      <trkpt lat="48.968719" lon="2.411884">
        <ele>49.395513</ele>
        <time>2021-11-04T15:43:57.753Z</time>
      </trkpt>
      <trkpt lat="48.969056" lon="2.412261">
        <ele>49.317328</ele>
        <time>2021-11-04T15:44:02.688Z</time>
      </trkpt>
      <trkpt lat="48.969120" lon="2.412319">
        <ele>49.251131</ele>
        <time>2021-11-04T15:44:03.459Z</time>
      </trkpt>
      <trkpt lat="48.969560" lon="2.412835">
        <ele>48.534922</ele>
        <time>2021-11-04T15:44:09.600Z</time>
      </trkpt>
      <trkpt lat="48.969951" lon="2.413271">
        <ele>47.909932</ele>
        <time>2021-11-04T15:44:14.970Z</time>
      </trkpt>
      <trkpt lat="48.970214" lon="2.413564">
        <ele>47.489677</ele>
        <time>2021-11-04T15:44:18.882Z</time>
      </trkpt>
      <trkpt lat="48.970366" lon="2.413738">
        <ele>47.244442</ele>
        <time>2021-11-04T15:44:21.241Z</time>
      </trkpt>
      <trkpt lat="48.970434" lon="2.413816">
        <ele>47.134651</ele>
        <time>2021-11-04T15:44:22.313Z</time>
      </trkpt>
      <trkpt lat="48.970973" lon="2.414407">
        <ele>47.086169</ele>
        <time>2021-11-04T15:44:32.102Z</time>
      </trkpt>
      <trkpt lat="48.971058" lon="2.414446">
        <ele>47.101205</ele>
        <time>2021-11-04T15:44:33.323Z</time>
      </trkpt>
      <trkpt lat="48.971140" lon="2.414554">
        <ele>47.119565</ele>
        <time>2021-11-04T15:44:35.005Z</time>
      </trkpt>
      <trkpt lat="48.971195" lon="2.414646">
        <ele>47.133401</ele>
        <time>2021-11-04T15:44:36.659Z</time>
      </trkpt>
      <trkpt lat="48.971588" lon="2.415261">
        <ele>47.228832</ele>
        <time>2021-11-04T15:44:45.977Z</time>
      </trkpt>
      <trkpt lat="48.971680" lon="2.415405">
        <ele>47.251174</ele>
        <time>2021-11-04T15:44:48.431Z</time>
      </trkpt>
      <trkpt lat="48.971724" lon="2.415583">
        <ele>47.272322</ele>
        <time>2021-11-04T15:44:50.594Z</time>
      </trkpt>
      <trkpt lat="48.971798" lon="2.415697">
        <ele>47.290148</ele>
        <time>2021-11-04T15:44:52.181Z</time>
      </trkpt>
      <trkpt lat="48.972303" lon="2.416483">
        <ele>47.163118</ele>
        <time>2021-11-04T15:45:03.458Z</time>
      </trkpt>
      <trkpt lat="48.972578" lon="2.416893">
        <ele>47.087499</ele>
        <time>2021-11-04T15:45:08.839Z</time>
      </trkpt>
      <trkpt lat="48.972582" lon="2.416900">
        <ele>47.086302</ele>
        <time>2021-11-04T15:45:08.899Z</time>
      </trkpt>
      <trkpt lat="48.972901" lon="2.417418">
        <ele>46.994676</ele>
        <time>2021-11-04T15:45:15.176Z</time>
      </trkpt>
      <trkpt lat="48.973178" lon="2.417857">
        <ele>46.831523</ele>
        <time>2021-11-04T15:45:20.269Z</time>
      </trkpt>
      <trkpt lat="48.973346" lon="2.418118">
        <ele>46.638906</ele>
        <time>2021-11-04T15:45:23.245Z</time>
      </trkpt>
      <trkpt lat="48.973557" lon="2.418444">
        <ele>46.397667</ele>
        <time>2021-11-04T15:45:27.004Z</time>
      </trkpt>
      <trkpt lat="48.974418" lon="2.419805">
        <ele>45.377482</ele>
        <time>2021-11-04T15:45:42.510Z</time>
      </trkpt>
      <trkpt lat="48.974945" lon="2.420622">
        <ele>44.624920</ele>
        <time>2021-11-04T15:45:51.944Z</time>
      </trkpt>
      <trkpt lat="48.975161" lon="2.420878">
        <ele>44.351006</ele>
        <time>2021-11-04T15:45:55.258Z</time>
      </trkpt>
      <trkpt lat="48.975848" lon="2.421971">
        <ele>43.547122</ele>
        <time>2021-11-04T15:46:07.044Z</time>
      </trkpt>
      <trkpt lat="48.976353" lon="2.422807">
        <ele>43.215340</ele>
        <time>2021-11-04T15:46:16.626Z</time>
      </trkpt>
      <trkpt lat="48.976444" lon="2.422917">
        <ele>43.163658</ele>
        <time>2021-11-04T15:46:18.049Z</time>
      </trkpt>
      <trkpt lat="48.976412" lon="2.422980">
        <ele>43.140396</ele>
        <time>2021-11-04T15:46:18.974Z</time>
      </trkpt>
      <trkpt lat="48.976393" lon="2.423137">
        <ele>43.093776</ele>
        <time>2021-11-04T15:46:20.505Z</time>
      </trkpt>
      <trkpt lat="48.976481" lon="2.423328">
        <ele>43.025630</ele>
        <time>2021-11-04T15:46:22.644Z</time>
      </trkpt>
      <trkpt lat="48.976531" lon="2.423354">
        <ele>43.002125</ele>
        <time>2021-11-04T15:46:23.331Z</time>
      </trkpt>
      <trkpt lat="48.976580" lon="2.423355">
        <ele>42.980323</ele>
        <time>2021-11-04T15:46:24.253Z</time>
      </trkpt>
      <trkpt lat="48.976669" lon="2.423294">
        <ele>42.936904</ele>
        <time>2021-11-04T15:46:25.780Z</time>
      </trkpt>
      <trkpt lat="48.976701" lon="2.423237">
        <ele>42.915001</ele>
        <time>2021-11-04T15:46:26.633Z</time>
      </trkpt>
      <trkpt lat="48.976721" lon="2.423166">
        <ele>42.922995</ele>
        <time>2021-11-04T15:46:27.449Z</time>
      </trkpt>
      <trkpt lat="48.976726" lon="2.423089">
        <ele>43.002520</ele>
        <time>2021-11-04T15:46:28.161Z</time>
      </trkpt>
      <trkpt lat="48.976716" lon="2.423013">
        <ele>43.082186</ele>
        <time>2021-11-04T15:46:28.907Z</time>
      </trkpt>
      <trkpt lat="48.976813" lon="2.422974">
        <ele>43.239275</ele>
        <time>2021-11-04T15:46:30.853Z</time>
      </trkpt>
      <trkpt lat="48.977469" lon="2.422657">
        <ele>44.316913</ele>
        <time>2021-11-04T15:46:44.678Z</time>
      </trkpt>
      <trkpt lat="48.977569" lon="2.422608">
        <ele>44.481399</ele>
        <time>2021-11-04T15:46:47.449Z</time>
      </trkpt>
      <trkpt lat="48.977969" lon="2.422402">
        <ele>45.142560</ele>
        <time>2021-11-04T15:46:57.327Z</time>
      </trkpt>
      <trkpt lat="48.978055" lon="2.422357">
        <ele>45.284945</ele>
        <time>2021-11-04T15:46:59.437Z</time>
      </trkpt>
      <trkpt lat="48.978077" lon="2.422435">
        <ele>45.372198</ele>
        <time>2021-11-04T15:47:00.731Z</time>
      </trkpt>
      <trkpt lat="48.978114" lon="2.422500">
        <ele>45.460626</ele>
        <time>2021-11-04T15:47:02.096Z</time>
      </trkpt>
      <trkpt lat="48.978162" lon="2.422544">
        <ele>45.548342</ele>
        <time>2021-11-04T15:47:03.736Z</time>
      </trkpt>
      <trkpt lat="48.978216" lon="2.422565">
        <ele>45.635610</ele>
        <time>2021-11-04T15:47:05.068Z</time>
      </trkpt>
      <trkpt lat="48.978272" lon="2.422560">
        <ele>45.724591</ele>
        <time>2021-11-04T15:47:06.194Z</time>
      </trkpt>
      <trkpt lat="48.978296" lon="2.422546">
        <ele>45.770709</ele>
        <time>2021-11-04T15:47:06.866Z</time>
      </trkpt>
      <trkpt lat="48.978325" lon="2.422529">
        <ele>45.826470</ele>
        <time>2021-11-04T15:47:07.603Z</time>
      </trkpt>
      <trkpt lat="48.978368" lon="2.422476">
        <ele>45.925724</ele>
        <time>2021-11-04T15:47:08.808Z</time>
      </trkpt>
      <trkpt lat="48.978401" lon="2.422393">
        <ele>46.040023</ele>
        <time>2021-11-04T15:47:10.199Z</time>
      </trkpt>
      <trkpt lat="48.978481" lon="2.422447">
        <ele>46.197045</ele>
        <time>2021-11-04T15:47:12.703Z</time>
      </trkpt>
      <trkpt lat="48.980066" lon="2.423495">
        <ele>48.913425</ele>
        <time>2021-11-04T15:47:50.767Z</time>
      </trkpt>
      <trkpt lat="48.980187" lon="2.423578">
        <ele>48.893287</ele>
        <time>2021-11-04T15:47:53.255Z</time>
      </trkpt>
      <trkpt lat="48.980174" lon="2.423635">
        <ele>48.887277</ele>
        <time>2021-11-04T15:47:53.728Z</time>
      </trkpt>
      <trkpt lat="48.980192" lon="2.423813">
        <ele>48.869339</ele>
        <time>2021-11-04T15:47:55.587Z</time>
      </trkpt>
      <trkpt lat="48.980214" lon="2.423863">
        <ele>48.863344</ele>
        <time>2021-11-04T15:47:56.156Z</time>
      </trkpt>
      <trkpt lat="48.980246" lon="2.423906">
        <ele>48.856869</ele>
        <time>2021-11-04T15:47:56.878Z</time>
      </trkpt>
      <trkpt lat="48.980284" lon="2.423935">
        <ele>48.850419</ele>
        <time>2021-11-04T15:47:57.695Z</time>
      </trkpt>
      <trkpt lat="48.980325" lon="2.423950">
        <ele>48.844020</ele>
        <time>2021-11-04T15:47:58.527Z</time>
      </trkpt>
      <trkpt lat="48.980365" lon="2.424015">
        <ele>48.835146</ele>
        <time>2021-11-04T15:47:59.211Z</time>
      </trkpt>
      <trkpt lat="48.981634" lon="2.429294">
        <ele>46.482845</ele>
        <time>2021-11-04T15:48:44.754Z</time>
      </trkpt>
      <trkpt lat="48.981779" lon="2.429907">
        <ele>46.226692</ele>
        <time>2021-11-04T15:48:50.428Z</time>
      </trkpt>
      <trkpt lat="48.981935" lon="2.430560">
        <ele>45.953512</ele>
        <time>2021-11-04T15:48:56.650Z</time>
      </trkpt>
      <trkpt lat="48.981976" lon="2.430735">
        <ele>45.888787</ele>
        <time>2021-11-04T15:48:58.479Z</time>
      </trkpt>
      <trkpt lat="48.982018" lon="2.430832">
        <ele>45.892909</ele>
        <time>2021-11-04T15:48:59.530Z</time>
      </trkpt>
      <trkpt lat="48.982060" lon="2.430936">
        <ele>45.897240</ele>
        <time>2021-11-04T15:49:00.684Z</time>
      </trkpt>
      <trkpt lat="48.982040" lon="2.430984">
        <ele>45.899257</ele>
        <time>2021-11-04T15:49:01.212Z</time>
      </trkpt>
      <trkpt lat="48.982030" lon="2.431039">
        <ele>45.901281</ele>
        <time>2021-11-04T15:49:01.718Z</time>
      </trkpt>
      <trkpt lat="48.982030" lon="2.431096">
        <ele>45.903303</ele>
        <time>2021-11-04T15:49:02.291Z</time>
      </trkpt>
      <trkpt lat="48.982041" lon="2.431150">
        <ele>45.905308</ele>
        <time>2021-11-04T15:49:02.876Z</time>
      </trkpt>
      <trkpt lat="48.982056" lon="2.431188">
        <ele>45.906881</ele>
        <time>2021-11-04T15:49:03.341Z</time>
      </trkpt>
      <trkpt lat="48.982076" lon="2.431220">
        <ele>45.908448</ele>
        <time>2021-11-04T15:49:03.767Z</time>
      </trkpt>
      <trkpt lat="48.982100" lon="2.431244">
        <ele>45.910000</ele>
        <time>2021-11-04T15:49:04.206Z</time>
      </trkpt>
      <trkpt lat="48.982115" lon="2.431254">
        <ele>45.910885</ele>
        <time>2021-11-04T15:49:04.433Z</time>
      </trkpt>
      <trkpt lat="48.982143" lon="2.431411">
        <ele>45.916655</ele>
        <time>2021-11-04T15:49:05.993Z</time>
      </trkpt>
      <trkpt lat="48.983309" lon="2.436322">
        <ele>46.280118</ele>
        <time>2021-11-04T15:49:58.875Z</time>
      </trkpt>
      <trkpt lat="48.983358" lon="2.436524">
        <ele>46.297573</ele>
        <time>2021-11-04T15:50:00.942Z</time>
      </trkpt>
      <trkpt lat="48.983413" lon="2.436740">
        <ele>46.316351</ele>
        <time>2021-11-04T15:50:03.168Z</time>
      </trkpt>
      <trkpt lat="48.983445" lon="2.436874">
        <ele>46.327908</ele>
        <time>2021-11-04T15:50:04.547Z</time>
      </trkpt>
      <trkpt lat="48.983452" lon="2.436901">
        <ele>46.330261</ele>
        <time>2021-11-04T15:50:04.825Z</time>
      </trkpt>
      <trkpt lat="48.983522" lon="2.437178">
        <ele>46.354319</ele>
        <time>2021-11-04T15:50:07.649Z</time>
      </trkpt>
      <trkpt lat="48.984249" lon="2.440225">
        <ele>46.858759</ele>
        <time>2021-11-04T15:50:40.839Z</time>
      </trkpt>
      <trkpt lat="48.984265" lon="2.440315">
        <ele>46.877794</ele>
        <time>2021-11-04T15:50:41.827Z</time>
      </trkpt>
      <trkpt lat="48.984298" lon="2.440480">
        <ele>46.913007</ele>
        <time>2021-11-04T15:50:43.706Z</time>
      </trkpt>
      <trkpt lat="48.984338" lon="2.440734">
        <ele>46.966331</ele>
        <time>2021-11-04T15:50:46.755Z</time>
      </trkpt>
      <trkpt lat="48.984364" lon="2.441011">
        <ele>47.030723</ele>
        <time>2021-11-04T15:50:49.773Z</time>
      </trkpt>
      <trkpt lat="48.984405" lon="2.441181">
        <ele>47.112551</ele>
        <time>2021-11-04T15:50:51.959Z</time>
      </trkpt>
      <trkpt lat="48.984409" lon="2.441257">
        <ele>47.146997</ele>
        <time>2021-11-04T15:50:52.821Z</time>
      </trkpt>
      <trkpt lat="48.984428" lon="2.441459">
        <ele>47.239193</ele>
        <time>2021-11-04T15:50:55.051Z</time>
      </trkpt>
      <trkpt lat="48.984454" lon="2.441753">
        <ele>47.373222</ele>
        <time>2021-11-04T15:50:58.545Z</time>
      </trkpt>
      <trkpt lat="48.984535" lon="2.442418">
        <ele>47.678799</ele>
        <time>2021-11-04T15:51:06.262Z</time>
      </trkpt>
      <trkpt lat="48.984560" lon="2.442637">
        <ele>47.779228</ele>
        <time>2021-11-04T15:51:08.836Z</time>
      </trkpt>
      <trkpt lat="48.984597" lon="2.443047">
        <ele>47.966208</ele>
        <time>2021-11-04T15:51:13.753Z</time>
      </trkpt>
      <trkpt lat="48.984607" lon="2.443200">
        <ele>48.035675</ele>
        <time>2021-11-04T15:51:15.553Z</time>
      </trkpt>
      <trkpt lat="48.984609" lon="2.443311">
        <ele>48.085843</ele>
        <time>2021-11-04T15:51:16.915Z</time>
      </trkpt>
      <trkpt lat="48.984611" lon="2.443399">
        <ele>48.125625</ele>
        <time>2021-11-04T15:51:17.956Z</time>
      </trkpt>
      <trkpt lat="48.984617" lon="2.443620">
        <ele>48.225557</ele>
        <time>2021-11-04T15:51:20.451Z</time>
      </trkpt>
      <trkpt lat="48.984678" lon="2.444720">
        <ele>48.867269</ele>
        <time>2021-11-04T15:51:33.479Z</time>
      </trkpt>
      <trkpt lat="48.984701" lon="2.444808">
        <ele>48.923120</ele>
        <time>2021-11-04T15:51:34.735Z</time>
      </trkpt>
      <trkpt lat="48.984747" lon="2.445003">
        <ele>49.045302</ele>
        <time>2021-11-04T15:51:37.317Z</time>
      </trkpt>
      <trkpt lat="48.984922" lon="2.445636">
        <ele>49.450309</ele>
        <time>2021-11-04T15:51:45.607Z</time>
      </trkpt>
      <trkpt lat="48.985058" lon="2.446044">
        <ele>49.720134</ele>
        <time>2021-11-04T15:51:51.488Z</time>
      </trkpt>
      <trkpt lat="48.985159" lon="2.446244">
        <ele>49.868934</ele>
        <time>2021-11-04T15:51:54.493Z</time>
      </trkpt>
      <trkpt lat="48.985195" lon="2.446311">
        <ele>49.892968</ele>
        <time>2021-11-04T15:51:55.857Z</time>
      </trkpt>
      <trkpt lat="48.985431" lon="2.446698">
        <ele>50.029919</ele>
        <time>2021-11-04T15:52:02.042Z</time>
      </trkpt>
      <trkpt lat="48.985489" lon="2.446795">
        <ele>50.063938</ele>
        <time>2021-11-04T15:52:03.586Z</time>
      </trkpt>
      <trkpt lat="48.985567" lon="2.446926">
        <ele>50.109792</ele>
        <time>2021-11-04T15:52:05.262Z</time>
      </trkpt>
      <trkpt lat="48.985867" lon="2.447403">
        <ele>50.281064</ele>
        <time>2021-11-04T15:52:12.138Z</time>
      </trkpt>
      <trkpt lat="48.985915" lon="2.447464">
        <ele>50.305754</ele>
        <time>2021-11-04T15:52:13.386Z</time>
      </trkpt>
      <trkpt lat="48.985934" lon="2.447500">
        <ele>50.317730</ele>
        <time>2021-11-04T15:52:14.062Z</time>
      </trkpt>
      <trkpt lat="48.985966" lon="2.447606">
        <ele>50.347976</ele>
        <time>2021-11-04T15:52:15.315Z</time>
      </trkpt>
      <trkpt lat="48.986108" lon="2.448058">
        <ele>50.477883</ele>
        <time>2021-11-04T15:52:20.493Z</time>
      </trkpt>
      <trkpt lat="48.986158" lon="2.448235">
        <ele>50.527838</ele>
        <time>2021-11-04T15:52:22.223Z</time>
      </trkpt>
      <trkpt lat="48.986305" lon="2.448740">
        <ele>50.505335</ele>
        <time>2021-11-04T15:52:27.403Z</time>
      </trkpt>
      <trkpt lat="48.986333" lon="2.448856">
        <ele>50.477570</ele>
        <time>2021-11-04T15:52:28.432Z</time>
      </trkpt>
      <trkpt lat="48.986351" lon="2.448924">
        <ele>50.461098</ele>
        <time>2021-11-04T15:52:29.176Z</time>
      </trkpt>
      <trkpt lat="48.986370" lon="2.448999">
        <ele>50.443039</ele>
        <time>2021-11-04T15:52:30.027Z</time>
      </trkpt>
      <trkpt lat="48.986400" lon="2.449121">
        <ele>50.413772</ele>
        <time>2021-11-04T15:52:31.258Z</time>
      </trkpt>
      <trkpt lat="48.986459" lon="2.449631">
        <ele>50.297440</ele>
        <time>2021-11-04T15:52:35.862Z</time>
      </trkpt>
      <trkpt lat="48.986556" lon="2.450475">
        <ele>50.104960</ele>
        <time>2021-11-04T15:52:43.035Z</time>
      </trkpt>
      <trkpt lat="48.986570" lon="2.450585">
        <ele>50.079790</ele>
        <time>2021-11-04T15:52:44.003Z</time>
      </trkpt>
      <trkpt lat="48.986645" lon="2.451307">
        <ele>49.941323</ele>
        <time>2021-11-04T15:52:50.715Z</time>
      </trkpt>
      <trkpt lat="48.986674" lon="2.451572">
        <ele>49.911438</ele>
        <time>2021-11-04T15:52:53.373Z</time>
      </trkpt>
      <trkpt lat="48.986702" lon="2.451847">
        <ele>49.880482</ele>
        <time>2021-11-04T15:52:55.945Z</time>
      </trkpt>
      <trkpt lat="48.986731" lon="2.452454">
        <ele>49.812783</ele>
        <time>2021-11-04T15:53:01.710Z</time>
      </trkpt>
      <trkpt lat="48.986736" lon="2.452680">
        <ele>49.787630</ele>
        <time>2021-11-04T15:53:03.845Z</time>
      </trkpt>
      <trkpt lat="48.986727" lon="2.452973">
        <ele>49.755002</ele>
        <time>2021-11-04T15:53:06.494Z</time>
      </trkpt>
      <trkpt lat="48.986719" lon="2.453070">
        <ele>49.744127</ele>
        <time>2021-11-04T15:53:07.521Z</time>
      </trkpt>
      <trkpt lat="48.986603" lon="2.454004">
        <ele>49.674004</ele>
        <time>2021-11-04T15:53:16.295Z</time>
      </trkpt>
      <trkpt lat="48.986186" lon="2.455992">
        <ele>49.796690</ele>
        <time>2021-11-04T15:53:36.135Z</time>
      </trkpt>
      <trkpt lat="48.986077" lon="2.456465">
        <ele>49.912375</ele>
        <time>2021-11-04T15:53:41.334Z</time>
      </trkpt>
      <trkpt lat="48.985922" lon="2.456987">
        <ele>50.812018</ele>
        <time>2021-11-04T15:53:48.146Z</time>
      </trkpt>
      <trkpt lat="48.985662" lon="2.458156">
        <ele>52.750140</ele>
        <time>2021-11-04T15:54:07.580Z</time>
      </trkpt>
      <trkpt lat="48.985582" lon="2.458466">
        <ele>53.273188</ele>
        <time>2021-11-04T15:54:14.082Z</time>
      </trkpt>
      <trkpt lat="48.985509" lon="2.458734">
        <ele>53.728814</ele>
        <time>2021-11-04T15:54:19.648Z</time>
      </trkpt>
      <trkpt lat="48.985425" lon="2.459142">
        <ele>54.581095</ele>
        <time>2021-11-04T15:54:28.577Z</time>
      </trkpt>
      <trkpt lat="48.985393" lon="2.459276">
        <ele>54.952880</ele>
        <time>2021-11-04T15:54:31.704Z</time>
      </trkpt>
      <trkpt lat="48.985346" lon="2.459300">
        <ele>55.149815</ele>
        <time>2021-11-04T15:54:33.432Z</time>
      </trkpt>
      <trkpt lat="48.985313" lon="2.459329">
        <ele>55.301163</ele>
        <time>2021-11-04T15:54:34.573Z</time>
      </trkpt>
      <trkpt lat="48.985285" lon="2.459361">
        <ele>55.440217</ele>
        <time>2021-11-04T15:54:35.904Z</time>
      </trkpt>
      <trkpt lat="48.985248" lon="2.459449">
        <ele>55.712708</ele>
        <time>2021-11-04T15:54:38.365Z</time>
      </trkpt>
      <trkpt lat="48.985228" lon="2.459565">
        <ele>56.025416</ele>
        <time>2021-11-04T15:54:40.511Z</time>
      </trkpt>
      <trkpt lat="48.985223" lon="2.459671">
        <ele>56.302499</ele>
        <time>2021-11-04T15:54:42.866Z</time>
      </trkpt>
      <trkpt lat="48.985243" lon="2.459767">
        <ele>56.565107</ele>
        <time>2021-11-04T15:54:45.111Z</time>
      </trkpt>
      <trkpt lat="48.985279" lon="2.459827">
        <ele>56.777071</ele>
        <time>2021-11-04T15:54:46.803Z</time>
      </trkpt>
      <trkpt lat="48.985250" lon="2.459952">
        <ele>57.122746</ele>
        <time>2021-11-04T15:54:50.010Z</time>
      </trkpt>
      <trkpt lat="48.985085" lon="2.460762">
        <ele>59.334040</ele>
        <time>2021-11-04T15:55:07.700Z</time>
      </trkpt>
      <trkpt lat="48.984942" lon="2.461490">
        <ele>61.294254</ele>
        <time>2021-11-04T15:55:23.091Z</time>
      </trkpt>
      <trkpt lat="48.984417" lon="2.463974">
        <ele>64.759373</ele>
        <time>2021-11-04T15:56:01.276Z</time>
      </trkpt>
      <trkpt lat="48.984073" lon="2.465564">
        <ele>66.144646</ele>
        <time>2021-11-04T15:56:22.240Z</time>
      </trkpt>
      <trkpt lat="48.983781" lon="2.466879">
        <ele>67.278939</ele>
        <time>2021-11-04T15:56:40.019Z</time>
      </trkpt>
      <trkpt lat="48.983354" lon="2.468964">
        <ele>69.392617</ele>
        <time>2021-11-04T15:57:09.577Z</time>
      </trkpt>
      <trkpt lat="48.983280" lon="2.469296">
        <ele>69.731974</ele>
        <time>2021-11-04T15:57:14.689Z</time>
      </trkpt>
      <trkpt lat="48.983255" lon="2.469509">
        <ele>69.949651</ele>
        <time>2021-11-04T15:57:17.698Z</time>
      </trkpt>
      <trkpt lat="48.983273" lon="2.469588">
        <ele>70.033778</ele>
        <time>2021-11-04T15:57:18.788Z</time>
      </trkpt>
      <trkpt lat="48.983298" lon="2.469635">
        <ele>70.094640</ele>
        <time>2021-11-04T15:57:19.760Z</time>
      </trkpt>
      <trkpt lat="48.983300" lon="2.469675">
        <ele>70.134996</ele>
        <time>2021-11-04T15:57:20.353Z</time>
      </trkpt>
      <trkpt lat="48.983305" lon="2.469816">
        <ele>70.277048</ele>
        <time>2021-11-04T15:57:22.448Z</time>
      </trkpt>
      <trkpt lat="48.983283" lon="2.469857">
        <ele>70.330326</ele>
        <time>2021-11-04T15:57:23.210Z</time>
      </trkpt>
      <trkpt lat="48.983270" lon="2.469906">
        <ele>70.383495</ele>
        <time>2021-11-04T15:57:23.912Z</time>
      </trkpt>
      <trkpt lat="48.983268" lon="2.469958">
        <ele>70.435896</ele>
        <time>2021-11-04T15:57:24.621Z</time>
      </trkpt>
      <trkpt lat="48.983275" lon="2.470008">
        <ele>70.487328</ele>
        <time>2021-11-04T15:57:25.381Z</time>
      </trkpt>
      <trkpt lat="48.983314" lon="2.470089">
        <ele>70.588391</ele>
        <time>2021-11-04T15:57:26.667Z</time>
      </trkpt>
      <trkpt lat="48.983343" lon="2.470113">
        <ele>70.638978</ele>
        <time>2021-11-04T15:57:27.498Z</time>
      </trkpt>
      <trkpt lat="48.983381" lon="2.470125">
        <ele>70.698465</ele>
        <time>2021-11-04T15:57:28.377Z</time>
      </trkpt>
      <trkpt lat="48.983476" lon="2.470206">
        <ele>70.865336</ele>
        <time>2021-11-04T15:57:30.806Z</time>
      </trkpt>
      <trkpt lat="48.983495" lon="2.470237">
        <ele>70.908007</ele>
        <time>2021-11-04T15:57:31.431Z</time>
      </trkpt>
      <trkpt lat="48.983562" lon="2.470315">
        <ele>71.037255</ele>
        <time>2021-11-04T15:57:33.208Z</time>
      </trkpt>
      <trkpt lat="48.983538" lon="2.470360">
        <ele>71.095588</ele>
        <time>2021-11-04T15:57:37.647Z</time>
      </trkpt>
      <trkpt lat="48.983609" lon="2.470427">
        <ele>71.223603</ele>
        <time>2021-11-04T15:57:41.419Z</time>
      </trkpt>
      <trkpt lat="48.983704" lon="2.470516">
        <ele>71.394548</ele>
        <time>2021-11-04T15:57:46.410Z</time>
      </trkpt>
      <trkpt lat="48.983812" lon="2.470798">
        <ele>71.723008</ele>
        <time>2021-11-04T15:57:50.939Z</time>
      </trkpt>
      <trkpt lat="48.984727" lon="2.473058">
        <ele>73.800953</ele>
        <time>2021-11-04T15:58:24.852Z</time>
      </trkpt>
      <trkpt lat="48.986813" lon="2.478498">
        <ele>77.225883</ele>
        <time>2021-11-04T15:59:38.214Z</time>
      </trkpt>
      <trkpt lat="48.986854" lon="2.478618">
        <ele>77.379131</ele>
        <time>2021-11-04T15:59:40.228Z</time>
      </trkpt>
      <trkpt lat="48.987188" lon="2.479490">
        <ele>78.664567</ele>
        <time>2021-11-04T15:59:54.670Z</time>
      </trkpt>
      <trkpt lat="48.987758" lon="2.480952">
        <ele>80.831107</ele>
        <time>2021-11-04T16:00:21.412Z</time>
      </trkpt>
      <trkpt lat="48.988463" lon="2.482788">
        <ele>83.580909</ele>
        <time>2021-11-04T16:00:53.733Z</time>
      </trkpt>
      <trkpt lat="48.988483" lon="2.482840">
        <ele>83.658822</ele>
        <time>2021-11-04T16:00:54.844Z</time>
      </trkpt>
      <trkpt lat="48.990650" lon="2.488505">
        <ele>89.720626</ele>
        <time>2021-11-04T16:02:23.064Z</time>
      </trkpt>
      <trkpt lat="48.990683" lon="2.488593">
        <ele>89.771510</ele>
        <time>2021-11-04T16:02:24.534Z</time>
      </trkpt>
      <trkpt lat="48.990722" lon="2.488564">
        <ele>89.804710</ele>
        <time>2021-11-04T16:02:26.265Z</time>
      </trkpt>
      <trkpt lat="48.990602" lon="2.488251">
        <ele>89.986697</ele>
        <time>2021-11-04T16:02:30.609Z</time>
      </trkpt>
      <trkpt lat="48.990722" lon="2.488564">
        <ele>90.168685</ele>
        <time>2021-11-04T16:02:35.012Z</time>
      </trkpt>
      <trkpt lat="48.990683" lon="2.488593">
        <ele>90.201885</ele>
        <time>2021-11-04T16:02:36.713Z</time>
      </trkpt>
      <trkpt lat="48.991355" lon="2.490350">
        <ele>90.361428</ele>
        <time>2021-11-04T16:02:58.095Z</time>
      </trkpt>
      <trkpt lat="48.997719" lon="2.506963">
        <ele>80.925590</ele>
        <time>2021-11-04T16:05:36.143Z</time>
      </trkpt>
      <trkpt lat="48.997767" lon="2.507239">
        <ele>80.927746</ele>
        <time>2021-11-04T16:05:38.706Z</time>
      </trkpt>
      <trkpt lat="48.997987" lon="2.507813">
        <ele>80.932766</ele>
        <time>2021-11-04T16:05:45.466Z</time>
      </trkpt>
      <trkpt lat="48.998070" lon="2.508194">
        <ele>80.935797</ele>
        <time>2021-11-04T16:05:49.766Z</time>
      </trkpt>
      <trkpt lat="48.998061" lon="2.508386">
        <ele>80.937250</ele>
        <time>2021-11-04T16:05:51.988Z</time>
      </trkpt>
      <trkpt lat="48.998107" lon="2.508399">
        <ele>80.937789</ele>
        <time>2021-11-04T16:05:52.847Z</time>
      </trkpt>
      <trkpt lat="48.998157" lon="2.508388">
        <ele>80.938370</ele>
        <time>2021-11-04T16:05:53.778Z</time>
      </trkpt>
      <trkpt lat="48.998236" lon="2.508345">
        <ele>80.939336</ele>
        <time>2021-11-04T16:05:55.217Z</time>
      </trkpt>
      <trkpt lat="48.998268" lon="2.508541">
        <ele>81.109151</ele>
        <time>2021-11-04T16:05:57.721Z</time>
      </trkpt>
      <trkpt lat="48.998243" lon="2.508613">
        <ele>81.185820</ele>
        <time>2021-11-04T16:05:58.724Z</time>
      </trkpt>
      <trkpt lat="48.998230" lon="2.508693">
        <ele>81.263388</ele>
        <time>2021-11-04T16:05:59.798Z</time>
      </trkpt>
      <trkpt lat="48.998232" lon="2.508779">
        <ele>81.344380</ele>
        <time>2021-11-04T16:06:00.896Z</time>
      </trkpt>
      <trkpt lat="48.998278" lon="2.508934">
        <ele>81.504492</ele>
        <time>2021-11-04T16:06:03.018Z</time>
      </trkpt>
      <trkpt lat="48.998319" lon="2.508992">
        <ele>81.584736</ele>
        <time>2021-11-04T16:06:04.172Z</time>
      </trkpt>
      <trkpt lat="48.998367" lon="2.509031">
        <ele>81.662765</ele>
        <time>2021-11-04T16:06:05.312Z</time>
      </trkpt>
      <trkpt lat="48.998420" lon="2.509050">
        <ele>81.740870</ele>
        <time>2021-11-04T16:06:06.413Z</time>
      </trkpt>
      <trkpt lat="48.998465" lon="2.509050">
        <ele>81.805424</ele>
        <time>2021-11-04T16:06:07.385Z</time>
      </trkpt>
      <trkpt lat="48.998573" lon="2.509210">
        <ele>82.021478</ele>
        <time>2021-11-04T16:06:10.374Z</time>
      </trkpt>
      <trkpt lat="48.998804" lon="2.509647">
        <ele>82.549652</ele>
        <time>2021-11-04T16:06:18.105Z</time>
      </trkpt>
      <trkpt lat="48.999271" lon="2.510879">
        <ele>84.106530</ele>
        <time>2021-11-04T16:06:38.581Z</time>
      </trkpt>
      <trkpt lat="48.999455" lon="2.511358">
        <ele>84.937158</ele>
        <time>2021-11-04T16:06:47.108Z</time>
      </trkpt>
      <trkpt lat="48.999643" lon="2.511855">
        <ele>85.795657</ele>
        <time>2021-11-04T16:06:56.237Z</time>
      </trkpt>
      <trkpt lat="48.999656" lon="2.511888">
        <ele>85.853258</ele>
        <time>2021-11-04T16:06:56.878Z</time>
      </trkpt>
      <trkpt lat="48.999920" lon="2.512579">
        <ele>87.049852</ele>
        <time>2021-11-04T16:07:10.296Z</time>
      </trkpt>
      <trkpt lat="49.000029" lon="2.512985">
        <ele>87.719544</ele>
        <time>2021-11-04T16:07:17.432Z</time>
      </trkpt>
      <trkpt lat="49.000225" lon="2.513495">
        <ele>88.743413</ele>
        <time>2021-11-04T16:07:26.408Z</time>
      </trkpt>
      <trkpt lat="49.000332" lon="2.513789">
        <ele>89.325809</ele>
        <time>2021-11-04T16:07:31.474Z</time>
      </trkpt>
      <trkpt lat="49.000350" lon="2.513985">
        <ele>89.668640</ele>
        <time>2021-11-04T16:07:34.950Z</time>
      </trkpt>
      <trkpt lat="49.000333" lon="2.514004">
        <ele>89.724300</ele>
        <time>2021-11-04T16:07:35.455Z</time>
      </trkpt>
      <trkpt lat="49.000322" lon="2.514021">
        <ele>89.765661</ele>
        <time>2021-11-04T16:07:35.807Z</time>
      </trkpt>
      <trkpt lat="49.000307" lon="2.514048">
        <ele>89.826949</ele>
        <time>2021-11-04T16:07:36.356Z</time>
      </trkpt>
      <trkpt lat="49.000290" lon="2.514102">
        <ele>89.930702</ele>
        <time>2021-11-04T16:07:37.508Z</time>
      </trkpt>
      <trkpt lat="49.000308" lon="2.514276">
        <ele>90.235837</ele>
        <time>2021-11-04T16:07:40.288Z</time>
      </trkpt>
      <trkpt lat="49.000335" lon="2.514320">
        <ele>90.340200</ele>
        <time>2021-11-04T16:07:41.495Z</time>
      </trkpt>
      <trkpt lat="49.000371" lon="2.514351">
        <ele>90.449374</ele>
        <time>2021-11-04T16:07:42.611Z</time>
      </trkpt>
      <trkpt lat="49.000411" lon="2.514364">
        <ele>90.557364</ele>
        <time>2021-11-04T16:07:43.778Z</time>
      </trkpt>
      <trkpt lat="49.000582" lon="2.514483">
        <ele>91.053703</ele>
        <time>2021-11-04T16:07:48.678Z</time>
      </trkpt>
      <trkpt lat="49.000695" lon="2.514631">
        <ele>91.447082</ele>
        <time>2021-11-04T16:07:52.727Z</time>
      </trkpt>
      <trkpt lat="49.000948" lon="2.515052">
        <ele>92.438197</ele>
        <time>2021-11-04T16:08:02.355Z</time>
      </trkpt>
      <trkpt lat="49.000961" lon="2.515074">
        <ele>92.491178</ele>
        <time>2021-11-04T16:08:02.866Z</time>
      </trkpt>
      <trkpt lat="49.000980" lon="2.515144">
        <ele>92.626734</ele>
        <time>2021-11-04T16:08:04.041Z</time>
      </trkpt>
      <trkpt lat="49.001013" lon="2.515197">
        <ele>92.757486</ele>
        <time>2021-11-04T16:08:05.783Z</time>
      </trkpt>
      <trkpt lat="49.001056" lon="2.515235">
        <ele>92.893056</ele>
        <time>2021-11-04T16:08:07.294Z</time>
      </trkpt>
      <trkpt lat="49.001078" lon="2.515267">
        <ele>92.975999</ele>
        <time>2021-11-04T16:08:07.964Z</time>
      </trkpt>
      <trkpt lat="49.001155" lon="2.515424">
        <ele>93.326761</ele>
        <time>2021-11-04T16:08:11.115Z</time>
      </trkpt>
      <trkpt lat="49.001532" lon="2.516082">
        <ele>94.889992</ele>
        <time>2021-11-04T16:08:25.854Z</time>
      </trkpt>
      <trkpt lat="49.001849" lon="2.516644">
        <ele>96.216222</ele>
        <time>2021-11-04T16:08:37.574Z</time>
      </trkpt>
      <trkpt lat="49.001895" lon="2.516820">
        <ele>96.555225</ele>
        <time>2021-11-04T16:08:40.537Z</time>
      </trkpt>
      <trkpt lat="49.001958" lon="2.516884">
        <ele>96.761725</ele>
        <time>2021-11-04T16:08:43.185Z</time>
      </trkpt>
      <trkpt lat="49.002432" lon="2.517112">
        <ele>97.922560</ele>
        <time>2021-11-04T16:08:56.374Z</time>
      </trkpt>
      <trkpt lat="49.002878" lon="2.517315">
        <ele>98.897633</ele>
        <time>2021-11-04T16:09:07.950Z</time>
      </trkpt>
      <trkpt lat="49.003200" lon="2.517461">
        <ele>99.601390</ele>
        <time>2021-11-04T16:09:15.930Z</time>
      </trkpt>
      <trkpt lat="49.003327" lon="2.517613">
        <ele>99.939644</ele>
        <time>2021-11-04T16:09:19.810Z</time>
      </trkpt>
      <trkpt lat="49.003456" lon="2.517602">
        <ele>100.210305</ele>
        <time>2021-11-04T16:09:22.530Z</time>
      </trkpt>
      <trkpt lat="49.003578" lon="2.517644">
        <ele>100.472316</ele>
        <time>2021-11-04T16:09:25.072Z</time>
      </trkpt>
      <trkpt lat="49.003765" lon="2.517731">
        <ele>100.881895</ele>
        <time>2021-11-04T16:09:28.658Z</time>
      </trkpt>
      <trkpt lat="49.003818" lon="2.517709">
        <ele>100.996966</ele>
        <time>2021-11-04T16:09:29.857Z</time>
      </trkpt>
      <trkpt lat="49.003844" lon="2.517771">
        <ele>101.073801</ele>
        <time>2021-11-04T16:09:30.851Z</time>
      </trkpt>
      <trkpt lat="49.003998" lon="2.517874">
        <ele>101.264138</ele>
        <time>2021-11-04T16:09:33.799Z</time>
      </trkpt>
      <trkpt lat="49.004560" lon="2.518164">
        <ele>101.935667</ele>
        <time>2021-11-04T16:09:44.990Z</time>
      </trkpt>
      <trkpt lat="49.004744" lon="2.518251">
        <ele>102.153707</ele>
        <time>2021-11-04T16:09:48.435Z</time>
      </trkpt>
      <trkpt lat="49.004836" lon="2.518300">
        <ele>102.264006</ele>
        <time>2021-11-04T16:09:50.419Z</time>
      </trkpt>
      <trkpt lat="49.005154" lon="2.518470">
        <ele>102.645410</ele>
        <time>2021-11-04T16:09:56.703Z</time>
      </trkpt>
      <trkpt lat="49.005223" lon="2.518499">
        <ele>102.726418</ele>
        <time>2021-11-04T16:09:58.046Z</time>
      </trkpt>
      <trkpt lat="49.005694" lon="2.518763">
        <ele>103.405289</ele>
        <time>2021-11-04T16:10:07.948Z</time>
      </trkpt>
      <trkpt lat="49.005872" lon="2.518951">
        <ele>103.777732</ele>
        <time>2021-11-04T16:10:12.455Z</time>
      </trkpt>
      <trkpt lat="49.005962" lon="2.519076">
        <ele>103.987136</ele>
        <time>2021-11-04T16:10:15.460Z</time>
      </trkpt>
      <trkpt lat="49.006058" lon="2.519278">
        <ele>104.268563</ele>
        <time>2021-11-04T16:10:19.226Z</time>
      </trkpt>
      <trkpt lat="49.006118" lon="2.519438">
        <ele>104.476494</ele>
        <time>2021-11-04T16:10:21.911Z</time>
      </trkpt>
      <trkpt lat="49.006164" lon="2.519607">
        <ele>104.682926</ele>
        <time>2021-11-04T16:10:24.748Z</time>
      </trkpt>
      <trkpt lat="49.006222" lon="2.519942">
        <ele>105.073824</ele>
        <time>2021-11-04T16:10:29.860Z</time>
      </trkpt>
      <trkpt lat="49.006228" lon="2.519995">
        <ele>105.134504</ele>
        <time>2021-11-04T16:10:31.160Z</time>
      </trkpt>
      <trkpt lat="49.006221" lon="2.520504">
        <ele>105.708896</ele>
        <time>2021-11-04T16:10:38.501Z</time>
      </trkpt>
      <trkpt lat="49.006255" lon="2.520650">
        <ele>105.883688</ele>
        <time>2021-11-04T16:10:40.806Z</time>
      </trkpt>
      <trkpt lat="49.006285" lon="2.520760">
        <ele>106.018091</ele>
        <time>2021-11-04T16:10:42.659Z</time>
      </trkpt>
      <trkpt lat="49.006259" lon="2.520806">
        <ele>106.086597</ele>
        <time>2021-11-04T16:10:43.618Z</time>
      </trkpt>
      <trkpt lat="49.006252" lon="2.520981">
        <ele>106.187126</ele>
        <time>2021-11-04T16:10:45.673Z</time>
      </trkpt>
      <trkpt lat="49.006275" lon="2.521031">
        <ele>106.195053</ele>
        <time>2021-11-04T16:10:46.934Z</time>
      </trkpt>
      <trkpt lat="49.006303" lon="2.521063">
        <ele>106.201978</ele>
        <time>2021-11-04T16:10:47.709Z</time>
      </trkpt>
      <trkpt lat="49.006335" lon="2.521082">
        <ele>106.208773</ele>
        <time>2021-11-04T16:10:48.262Z</time>
      </trkpt>
      <trkpt lat="49.006369" lon="2.521086">
        <ele>106.215521</ele>
        <time>2021-11-04T16:10:48.892Z</time>
      </trkpt>
      <trkpt lat="49.006432" lon="2.521191">
        <ele>106.233992</ele>
        <time>2021-11-04T16:10:50.874Z</time>
      </trkpt>
      <trkpt lat="49.006459" lon="2.521234">
        <ele>106.241719</ele>
        <time>2021-11-04T16:10:51.461Z</time>
      </trkpt>
      <trkpt lat="49.006518" lon="2.521388">
        <ele>106.264869</ele>
        <time>2021-11-04T16:10:53.621Z</time>
      </trkpt>
      <trkpt lat="49.006582" lon="2.521755">
        <ele>106.314162</ele>
        <time>2021-11-04T16:10:57.494Z</time>
      </trkpt>
      <trkpt lat="49.006617" lon="2.521940">
        <ele>106.339155</ele>
        <time>2021-11-04T16:10:59.452Z</time>
      </trkpt>
      <trkpt lat="49.006617" lon="2.521940">
        <ele>106.339155</ele>
        <time>2021-11-04T16:10:59.453Z</time>
      </trkpt>
      <trkpt lat="49.006782" lon="2.523082">
        <ele>106.490945</ele>
        <time>2021-11-04T16:11:13.668Z</time>
      </trkpt>
      <trkpt lat="49.006797" lon="2.524149">
        <ele>106.306886</ele>
        <time>2021-11-04T16:11:26.644Z</time>
      </trkpt>
      <trkpt lat="49.006815" lon="2.524627">
        <ele>106.166688</ele>
        <time>2021-11-04T16:11:32.465Z</time>
      </trkpt>
      <trkpt lat="49.007027" lon="2.525288">
        <ele>105.951236</ele>
        <time>2021-11-04T16:11:41.409Z</time>
      </trkpt>
      <trkpt lat="49.007326" lon="2.525530">
        <ele>105.800120</ele>
        <time>2021-11-04T16:11:47.682Z</time>
      </trkpt>
      <trkpt lat="49.007736" lon="2.525455">
        <ele>105.886810</ele>
        <time>2021-11-04T16:11:55.336Z</time>
      </trkpt>
      <trkpt lat="49.008223" lon="2.525083">
        <ele>106.233594</ele>
        <time>2021-11-04T16:12:05.432Z</time>
      </trkpt>
      <trkpt lat="49.008767" lon="2.525060">
        <ele>106.580058</ele>
        <time>2021-11-04T16:12:15.517Z</time>
      </trkpt>
      <trkpt lat="49.009158" lon="2.525246">
        <ele>106.840820</ele>
        <time>2021-11-04T16:12:23.108Z</time>
      </trkpt>
      <trkpt lat="49.009693" lon="2.525542">
        <ele>106.919334</ele>
        <time>2021-11-04T16:12:33.656Z</time>
      </trkpt>
      <trkpt lat="49.010228" lon="2.525838">
        <ele>106.970583</ele>
        <time>2021-11-04T16:12:44.204Z</time>
      </trkpt>
      <trkpt lat="49.011013" lon="2.526389">
        <ele>107.054878</ele>
        <time>2021-11-04T16:13:00.219Z</time>
      </trkpt>
      <trkpt lat="49.011798" lon="2.526941">
        <ele>107.169088</ele>
        <time>2021-11-04T16:13:16.240Z</time>
      </trkpt>
      <trkpt lat="49.012337" lon="2.527528">
        <ele>107.256600</ele>
        <time>2021-11-04T16:13:28.516Z</time>
      </trkpt>
      <trkpt lat="49.012876" lon="2.528116">
        <ele>107.376441</ele>
        <time>2021-11-04T16:13:40.799Z</time>
      </trkpt>
      <trkpt lat="49.013591" lon="2.528921">
        <ele>107.546516</ele>
        <time>2021-11-04T16:13:57.271Z</time>
      </trkpt>
      <trkpt lat="49.014307" lon="2.529727">
        <ele>107.537958</ele>
        <time>2021-11-04T16:14:13.758Z</time>
      </trkpt>
      <trkpt lat="49.014298" lon="2.529754">
        <ele>107.534993</ele>
        <time>2021-11-04T16:14:14.024Z</time>
      </trkpt>
      <trkpt lat="49.014293" lon="2.529825">
        <ele>107.528002</ele>
        <time>2021-11-04T16:14:14.662Z</time>
      </trkpt>
      <trkpt lat="49.014325" lon="2.529958">
        <ele>107.514134</ele>
        <time>2021-11-04T16:14:16.019Z</time>
      </trkpt>
      <trkpt lat="49.014350" lon="2.529983">
        <ele>107.509671</ele>
        <time>2021-11-04T16:14:16.450Z</time>
      </trkpt>
      <trkpt lat="49.014402" lon="2.530036">
        <ele>107.500335</ele>
        <time>2021-11-04T16:14:17.406Z</time>
      </trkpt>
      <trkpt lat="49.014449" lon="2.530044">
        <ele>107.493276</ele>
        <time>2021-11-04T16:14:18.105Z</time>
      </trkpt>
      <trkpt lat="49.014535" lon="2.530078">
        <ele>107.480016</ele>
        <time>2021-11-04T16:14:19.465Z</time>
      </trkpt>
      <trkpt lat="49.014652" lon="2.530192">
        <ele>107.459291</ele>
        <time>2021-11-04T16:14:21.546Z</time>
      </trkpt>
      <trkpt lat="49.014755" lon="2.530258">
        <ele>107.442615</ele>
        <time>2021-11-04T16:14:23.186Z</time>
      </trkpt>
      <trkpt lat="49.014912" lon="2.530381">
        <ele>107.416268</ele>
        <time>2021-11-04T16:14:25.780Z</time>
      </trkpt>
      <trkpt lat="49.015181" lon="2.530620">
        <ele>107.369798</ele>
        <time>2021-11-04T16:14:30.216Z</time>
      </trkpt>
      <trkpt lat="49.015344" lon="2.530718">
        <ele>107.340504</ele>
        <time>2021-11-04T16:14:32.585Z</time>
      </trkpt>
      <trkpt lat="49.015512" lon="2.530856">
        <ele>107.290854</ele>
        <time>2021-11-04T16:14:35.100Z</time>
      </trkpt>
      <trkpt lat="49.015709" lon="2.530991">
        <ele>107.234658</ele>
        <time>2021-11-04T16:14:37.928Z</time>
      </trkpt>
      <trkpt lat="49.015952" lon="2.531131">
        <ele>107.167071</ele>
        <time>2021-11-04T16:14:41.371Z</time>
      </trkpt>
      <trkpt lat="49.016367" lon="2.531341">
        <ele>107.053303</ele>
        <time>2021-11-04T16:14:47.239Z</time>
      </trkpt>
      <trkpt lat="49.016927" lon="2.531625">
        <ele>106.899752</ele>
        <time>2021-11-04T16:14:55.729Z</time>
      </trkpt>
      <trkpt lat="49.017289" lon="2.531807">
        <ele>106.934549</ele>
        <time>2021-11-04T16:15:01.600Z</time>
      </trkpt>
      <trkpt lat="49.017858" lon="2.532096">
        <ele>107.042079</ele>
        <time>2021-11-04T16:15:14.004Z</time>
      </trkpt>
      <trkpt lat="49.018220" lon="2.532280">
        <ele>107.110495</ele>
        <time>2021-11-04T16:15:20.056Z</time>
      </trkpt>
      <trkpt lat="49.018787" lon="2.532568">
        <ele>107.264033</ele>
        <time>2021-11-04T16:15:29.662Z</time>
      </trkpt>
      <trkpt lat="49.019569" lon="2.532961">
        <ele>107.860202</ele>
        <time>2021-11-04T16:15:43.500Z</time>
      </trkpt>
      <trkpt lat="49.020353" lon="2.533356">
        <ele>108.458043</ele>
        <time>2021-11-04T16:15:58.339Z</time>
      </trkpt>
      <trkpt lat="49.023141" lon="2.534775">
        <ele>111.869756</ele>
        <time>2021-11-04T16:16:58.648Z</time>
      </trkpt>
      <trkpt lat="49.024300" lon="2.535358">
        <ele>112.415898</ele>
        <time>2021-11-04T16:17:16.979Z</time>
      </trkpt>
      <trkpt lat="49.026305" lon="2.536318">
        <ele>111.663975</ele>
        <time>2021-11-04T16:17:46.487Z</time>
      </trkpt>
      <trkpt lat="49.026429" lon="2.536389">
        <ele>111.566893</ele>
        <time>2021-11-04T16:17:48.184Z</time>
      </trkpt>
      <trkpt lat="49.026541" lon="2.536422">
        <ele>111.483284</ele>
        <time>2021-11-04T16:17:49.738Z</time>
      </trkpt>
      <trkpt lat="49.026706" lon="2.536456">
        <ele>111.361247</ele>
        <time>2021-11-04T16:17:51.743Z</time>
      </trkpt>
      <trkpt lat="49.026913" lon="2.536459">
        <ele>111.209519</ele>
        <time>2021-11-04T16:17:54.370Z</time>
      </trkpt>
      <trkpt lat="49.027110" lon="2.536380">
        <ele>111.060218</ele>
        <time>2021-11-04T16:17:56.721Z</time>
      </trkpt>
      <trkpt lat="49.027343" lon="2.536195">
        <ele>110.840525</ele>
        <time>2021-11-04T16:17:59.732Z</time>
      </trkpt>
      <trkpt lat="49.027535" lon="2.535911">
        <ele>110.562429</ele>
        <time>2021-11-04T16:18:02.744Z</time>
      </trkpt>
      <trkpt lat="49.027691" lon="2.535519">
        <ele>110.249818</ele>
        <time>2021-11-04T16:18:06.157Z</time>
      </trkpt>
      <trkpt lat="49.027807" lon="2.534736">
        <ele>109.702563</ele>
        <time>2021-11-04T16:18:12.379Z</time>
      </trkpt>
      <trkpt lat="49.027805" lon="2.534315">
        <ele>109.415545</ele>
        <time>2021-11-04T16:18:16.092Z</time>
      </trkpt>
      <trkpt lat="49.027787" lon="2.534047">
        <ele>109.231884</ele>
        <time>2021-11-04T16:18:18.365Z</time>
      </trkpt>
      <trkpt lat="49.027738" lon="2.533702">
        <ele>109.069589</ele>
        <time>2021-11-04T16:18:21.717Z</time>
      </trkpt>
      <trkpt lat="49.027749" lon="2.533540">
        <ele>109.080663</ele>
        <time>2021-11-04T16:18:23.079Z</time>
      </trkpt>
      <trkpt lat="49.027773" lon="2.533506">
        <ele>109.084060</ele>
        <time>2021-11-04T16:18:23.686Z</time>
      </trkpt>
      <trkpt lat="49.027881" lon="2.533195">
        <ele>109.107988</ele>
        <time>2021-11-04T16:18:27.076Z</time>
      </trkpt>
      <trkpt lat="49.027859" lon="2.532845">
        <ele>109.131895</ele>
        <time>2021-11-04T16:18:30.248Z</time>
      </trkpt>
      <trkpt lat="49.027845" lon="2.532799">
        <ele>109.135343</ele>
        <time>2021-11-04T16:18:30.732Z</time>
      </trkpt>
      <trkpt lat="49.027829" lon="2.532757">
        <ele>109.138646</ele>
        <time>2021-11-04T16:18:31.138Z</time>
      </trkpt>
      <trkpt lat="49.027692" lon="2.532553">
        <ele>109.158501</ele>
        <time>2021-11-04T16:18:33.690Z</time>
      </trkpt>
      <trkpt lat="49.027663" lon="2.532530">
        <ele>109.161890</ele>
        <time>2021-11-04T16:18:34.116Z</time>
      </trkpt>
      <trkpt lat="49.027638" lon="2.532513">
        <ele>109.164729</ele>
        <time>2021-11-04T16:18:34.800Z</time>
      </trkpt>
      <trkpt lat="49.027446" lon="2.532473">
        <ele>109.184824</ele>
        <time>2021-11-04T16:18:37.808Z</time>
      </trkpt>
      <trkpt lat="49.027289" lon="2.532553">
        <ele>109.201989</ele>
        <time>2021-11-04T16:18:40.632Z</time>
      </trkpt>
      <trkpt lat="49.027266" lon="2.532576">
        <ele>109.204841</ele>
        <time>2021-11-04T16:18:41.376Z</time>
      </trkpt>
      <trkpt lat="49.027241" lon="2.532604">
        <ele>109.208057</ele>
        <time>2021-11-04T16:18:41.777Z</time>
      </trkpt>
      <trkpt lat="49.027100" lon="2.532958">
        <ele>109.236220</ele>
        <time>2021-11-04T16:18:46.226Z</time>
      </trkpt>
      <trkpt lat="49.027099" lon="2.533192">
        <ele>109.274314</ele>
        <time>2021-11-04T16:18:49.293Z</time>
      </trkpt>
      <trkpt lat="49.027157" lon="2.533408">
        <ele>109.402510</ele>
        <time>2021-11-04T16:18:51.732Z</time>
      </trkpt>
      <trkpt lat="49.027175" lon="2.533446">
        <ele>109.428257</ele>
        <time>2021-11-04T16:18:52.078Z</time>
      </trkpt>
      <trkpt lat="49.027198" lon="2.533652">
        <ele>109.543026</ele>
        <time>2021-11-04T16:18:54.917Z</time>
      </trkpt>
      <trkpt lat="49.027172" lon="2.533881">
        <ele>109.670671</ele>
        <time>2021-11-04T16:18:57.479Z</time>
      </trkpt>
      <trkpt lat="49.027059" lon="2.534268">
        <ele>109.903344</ele>
        <time>2021-11-04T16:19:02.486Z</time>
      </trkpt>
      <trkpt lat="49.027008" lon="2.534603">
        <ele>110.092229</ele>
        <time>2021-11-04T16:19:06.486Z</time>
      </trkpt>
      <trkpt lat="49.026997" lon="2.535367">
        <ele>110.511942</ele>
        <time>2021-11-04T16:19:15.517Z</time>
      </trkpt>
      <trkpt lat="49.027069" lon="2.535822">
        <ele>110.768467</ele>
        <time>2021-11-04T16:19:21.349Z</time>
      </trkpt>
      <trkpt lat="49.027116" lon="2.536019">
        <ele>110.878914</ele>
        <time>2021-11-04T16:19:24.052Z</time>
      </trkpt>
      <trkpt lat="49.027171" lon="2.536243">
        <ele>111.004931</ele>
        <time>2021-11-04T16:19:27.333Z</time>
      </trkpt>
      <trkpt lat="49.027295" lon="2.536877">
        <ele>111.353495</ele>
        <time>2021-11-04T16:19:35.754Z</time>
      </trkpt>
      <trkpt lat="49.027295" lon="2.537684">
        <ele>111.778661</ele>
        <time>2021-11-04T16:19:45.352Z</time>
      </trkpt>
      <trkpt lat="49.027256" lon="2.537976">
        <ele>111.935659</ele>
        <time>2021-11-04T16:19:48.795Z</time>
      </trkpt>
      <trkpt lat="49.027093" lon="2.539306">
        <ele>112.211790</ele>
        <time>2021-11-04T16:20:03.043Z</time>
      </trkpt>
      <trkpt lat="49.027101" lon="2.540348">
        <ele>112.225311</ele>
        <time>2021-11-04T16:20:12.863Z</time>
      </trkpt>
      <trkpt lat="49.027169" lon="2.541034">
        <ele>112.234313</ele>
        <time>2021-11-04T16:20:19.233Z</time>
      </trkpt>
      <trkpt lat="49.027240" lon="2.541530">
        <ele>112.236685</ele>
        <time>2021-11-04T16:20:24.023Z</time>
      </trkpt>
      <trkpt lat="49.027465" lon="2.543001">
        <ele>112.238110</ele>
        <time>2021-11-04T16:20:38.827Z</time>
      </trkpt>
      <trkpt lat="49.027694" lon="2.545353">
        <ele>112.277079</ele>
        <time>2021-11-04T16:21:02.354Z</time>
      </trkpt>
      <trkpt lat="49.027717" lon="2.545887">
        <ele>112.290727</ele>
        <time>2021-11-04T16:21:07.521Z</time>
      </trkpt>
      <trkpt lat="49.027738" lon="2.546663">
        <ele>112.310590</ele>
        <time>2021-11-04T16:21:15.060Z</time>
      </trkpt>
      <trkpt lat="49.027719" lon="2.550120">
        <ele>112.435794</ele>
        <time>2021-11-04T16:21:49.081Z</time>
      </trkpt>
      <trkpt lat="49.027933" lon="2.553504">
        <ele>112.830287</ele>
        <time>2021-11-04T16:22:23.160Z</time>
      </trkpt>
      <trkpt lat="49.028018" lon="2.554640">
        <ele>113.035005</ele>
        <time>2021-11-04T16:22:35.542Z</time>
      </trkpt>
      <trkpt lat="49.028018" lon="2.554640">
        <ele>113.035005</ele>
        <time>2021-11-04T16:22:35.551Z</time>
      </trkpt>
      <trkpt lat="49.028167" lon="2.555576">
        <ele>113.264830</ele>
        <time>2021-11-04T16:22:47.255Z</time>
      </trkpt>
      <trkpt lat="49.028315" lon="2.556512">
        <ele>113.506419</ele>
        <time>2021-11-04T16:22:58.955Z</time>
      </trkpt>
      <trkpt lat="49.028509" lon="2.557546">
        <ele>113.754944</ele>
        <time>2021-11-04T16:23:12.024Z</time>
      </trkpt>
      <trkpt lat="49.028952" lon="2.558231">
        <ele>113.776612</ele>
        <time>2021-11-04T16:23:23.715Z</time>
      </trkpt>
      <trkpt lat="49.029008" lon="2.558312">
        <ele>113.779263</ele>
        <time>2021-11-04T16:23:24.869Z</time>
      </trkpt>
      <trkpt lat="49.029230" lon="2.558484">
        <ele>113.787815</ele>
        <time>2021-11-04T16:23:28.491Z</time>
      </trkpt>
      <trkpt lat="49.029351" lon="2.558763">
        <ele>113.795349</ele>
        <time>2021-11-04T16:23:31.646Z</time>
      </trkpt>
      <trkpt lat="49.029327" lon="2.558827">
        <ele>113.797009</ele>
        <time>2021-11-04T16:23:32.359Z</time>
      </trkpt>
      <trkpt lat="49.029317" lon="2.558899">
        <ele>113.798666</ele>
        <time>2021-11-04T16:23:33.100Z</time>
      </trkpt>
      <trkpt lat="49.029324" lon="2.558972">
        <ele>113.800328</ele>
        <time>2021-11-04T16:23:33.809Z</time>
      </trkpt>
      <trkpt lat="49.029429" lon="2.559119">
        <ele>113.805223</ele>
        <time>2021-11-04T16:23:35.896Z</time>
      </trkpt>
      <trkpt lat="49.029478" lon="2.559123">
        <ele>113.806909</ele>
        <time>2021-11-04T16:23:36.589Z</time>
      </trkpt>
      <trkpt lat="49.029526" lon="2.559102">
        <ele>113.808624</ele>
        <time>2021-11-04T16:23:37.286Z</time>
      </trkpt>
      <trkpt lat="49.029566" lon="2.559056">
        <ele>113.810345</ele>
        <time>2021-11-04T16:23:38.014Z</time>
      </trkpt>
      <trkpt lat="49.029741" lon="2.558983">
        <ele>113.813928</ele>
        <time>2021-11-04T16:23:40.699Z</time>
      </trkpt>
      <trkpt lat="49.029984" lon="2.558981">
        <ele>113.810986</ele>
        <time>2021-11-04T16:23:44.277Z</time>
      </trkpt>
      <trkpt lat="49.030087" lon="2.559036">
        <ele>113.809665</ele>
        <time>2021-11-04T16:23:45.910Z</time>
      </trkpt>
      <trkpt lat="49.030308" lon="2.559196">
        <ele>113.806703</ele>
        <time>2021-11-04T16:23:49.618Z</time>
      </trkpt>
      <trkpt lat="49.031112" lon="2.559740">
        <ele>113.796054</ele>
        <time>2021-11-04T16:24:02.852Z</time>
      </trkpt>
      <trkpt lat="49.031430" lon="2.560002">
        <ele>113.775196</ele>
        <time>2021-11-04T16:24:08.115Z</time>
      </trkpt>
      <trkpt lat="49.031587" lon="2.560121">
        <ele>113.743012</ele>
        <time>2021-11-04T16:24:10.547Z</time>
      </trkpt>
      <trkpt lat="49.031778" lon="2.560259">
        <ele>113.704214</ele>
        <time>2021-11-04T16:24:13.537Z</time>
      </trkpt>
      <trkpt lat="49.031919" lon="2.560359">
        <ele>113.675668</ele>
        <time>2021-11-04T16:24:15.622Z</time>
      </trkpt>
      <trkpt lat="49.032043" lon="2.560446">
        <ele>113.650612</ele>
        <time>2021-11-04T16:24:17.486Z</time>
      </trkpt>
      <trkpt lat="49.032113" lon="2.560496">
        <ele>113.636422</ele>
        <time>2021-11-04T16:24:18.574Z</time>
      </trkpt>
      <trkpt lat="49.032129" lon="2.560506">
        <ele>113.633248</ele>
        <time>2021-11-04T16:24:18.803Z</time>
      </trkpt>
      <trkpt lat="49.032287" lon="2.560605">
        <ele>113.601890</ele>
        <time>2021-11-04T16:24:21.141Z</time>
      </trkpt>
      <trkpt lat="49.032450" lon="2.560693">
        <ele>113.570148</ele>
        <time>2021-11-04T16:24:23.604Z</time>
      </trkpt>
      <trkpt lat="49.032574" lon="2.560744">
        <ele>113.546572</ele>
        <time>2021-11-04T16:24:25.391Z</time>
      </trkpt>
      <trkpt lat="49.033413" lon="2.561300">
        <ele>113.456093</ele>
        <time>2021-11-04T16:24:38.717Z</time>
      </trkpt>
      <trkpt lat="49.033878" lon="2.561665">
        <ele>113.448596</ele>
        <time>2021-11-04T16:24:46.223Z</time>
      </trkpt>
      <trkpt lat="49.034145" lon="2.561856">
        <ele>113.444369</ele>
        <time>2021-11-04T16:24:50.588Z</time>
      </trkpt>
      <trkpt lat="49.034441" lon="2.562062">
        <ele>113.439705</ele>
        <time>2021-11-04T16:24:55.454Z</time>
      </trkpt>
      <trkpt lat="49.034659" lon="2.562209">
        <ele>113.449845</ele>
        <time>2021-11-04T16:24:59.082Z</time>
      </trkpt>
      <trkpt lat="49.034696" lon="2.562235">
        <ele>113.462875</ele>
        <time>2021-11-04T16:24:59.703Z</time>
      </trkpt>
      <trkpt lat="49.035172" lon="2.562558">
        <ele>113.629502</ele>
        <time>2021-11-04T16:25:07.745Z</time>
      </trkpt>
      <trkpt lat="49.035537" lon="2.562868">
        <ele>113.763119</ele>
        <time>2021-11-04T16:25:14.318Z</time>
      </trkpt>
      <trkpt lat="49.035976" lon="2.563387">
        <ele>113.940762</ele>
        <time>2021-11-04T16:25:23.258Z</time>
      </trkpt>
      <trkpt lat="49.036340" lon="2.563799">
        <ele>114.268878</ele>
        <time>2021-11-04T16:25:31.067Z</time>
      </trkpt>
      <trkpt lat="49.037367" lon="2.565115">
        <ele>115.765476</ele>
        <time>2021-11-04T16:25:57.700Z</time>
      </trkpt>
      <trkpt lat="49.038320" lon="2.566359">
        <ele>117.113829</ele>
        <time>2021-11-04T16:26:23.207Z</time>
      </trkpt>
      <trkpt lat="49.038737" lon="2.566900">
        <ele>117.697351</ele>
        <time>2021-11-04T16:26:33.319Z</time>
      </trkpt>
      <trkpt lat="49.039602" lon="2.568030">
        <ele>118.309583</ele>
        <time>2021-11-04T16:26:52.247Z</time>
      </trkpt>
      <trkpt lat="49.040854" lon="2.569662">
        <ele>119.071211</ele>
        <time>2021-11-04T16:27:18.556Z</time>
      </trkpt>
      <trkpt lat="49.041976" lon="2.571116">
        <ele>119.987447</ele>
        <time>2021-11-04T16:27:44.449Z</time>
      </trkpt>
      <trkpt lat="49.045431" lon="2.575623">
        <ele>123.695757</ele>
        <time>2021-11-04T16:29:07.778Z</time>
      </trkpt>
      <trkpt lat="49.045661" lon="2.575956">
        <ele>123.928003</ele>
        <time>2021-11-04T16:29:12.946Z</time>
      </trkpt>
      <trkpt lat="49.046049" lon="2.576363">
        <ele>124.095752</ele>
        <time>2021-11-04T16:29:20.496Z</time>
      </trkpt>
      <trkpt lat="49.046098" lon="2.576397">
        <ele>124.109701</ele>
        <time>2021-11-04T16:29:21.259Z</time>
      </trkpt>
      <trkpt lat="49.046190" lon="2.576460">
        <ele>124.135831</ele>
        <time>2021-11-04T16:29:22.921Z</time>
      </trkpt>
      <trkpt lat="49.046671" lon="2.576637">
        <ele>124.264042</ele>
        <time>2021-11-04T16:29:30.618Z</time>
      </trkpt>
      <trkpt lat="49.047044" lon="2.576641">
        <ele>124.360696</ele>
        <time>2021-11-04T16:29:36.299Z</time>
      </trkpt>
      <trkpt lat="49.048150" lon="2.576265">
        <ele>124.646813</ele>
        <time>2021-11-04T16:29:54.452Z</time>
      </trkpt>
      <trkpt lat="49.048475" lon="2.576123">
        <ele>124.730945</ele>
        <time>2021-11-04T16:29:59.886Z</time>
      </trkpt>
      <trkpt lat="49.048735" lon="2.576042">
        <ele>124.796985</ele>
        <time>2021-11-04T16:30:04.003Z</time>
      </trkpt>
      <trkpt lat="49.049343" lon="2.575822">
        <ele>124.904162</ele>
        <time>2021-11-04T16:30:13.860Z</time>
      </trkpt>
      <trkpt lat="49.049473" lon="2.575773">
        <ele>124.897247</ele>
        <time>2021-11-04T16:30:15.908Z</time>
      </trkpt>
      <trkpt lat="49.049507" lon="2.575759">
        <ele>124.895429</ele>
        <time>2021-11-04T16:30:16.560Z</time>
      </trkpt>
      <trkpt lat="49.049560" lon="2.575737">
        <ele>124.892593</ele>
        <time>2021-11-04T16:30:17.414Z</time>
      </trkpt>
      <trkpt lat="49.049750" lon="2.575639">
        <ele>124.882236</ele>
        <time>2021-11-04T16:30:20.401Z</time>
      </trkpt>
      <trkpt lat="49.051012" lon="2.574876">
        <ele>124.733461</ele>
        <time>2021-11-04T16:30:39.985Z</time>
      </trkpt>
      <trkpt lat="49.051315" lon="2.574695">
        <ele>124.539198</ele>
        <time>2021-11-04T16:30:44.294Z</time>
      </trkpt>
      <trkpt lat="49.053385" lon="2.573436">
        <ele>123.172846</ele>
        <time>2021-11-04T16:31:12.690Z</time>
      </trkpt>
      <trkpt lat="49.053771" lon="2.573204">
        <ele>122.908571</ele>
        <time>2021-11-04T16:31:18.022Z</time>
      </trkpt>
      <trkpt lat="49.053848" lon="2.573188">
        <ele>122.859068</ele>
        <time>2021-11-04T16:31:19.046Z</time>
      </trkpt>
      <trkpt lat="49.053899" lon="2.573192">
        <ele>122.826538</ele>
        <time>2021-11-04T16:31:19.703Z</time>
      </trkpt>
      <trkpt lat="49.053957" lon="2.573218">
        <ele>122.788029</ele>
        <time>2021-11-04T16:31:20.501Z</time>
      </trkpt>
      <trkpt lat="49.053993" lon="2.573249">
        <ele>122.761697</ele>
        <time>2021-11-04T16:31:21.040Z</time>
      </trkpt>
      <trkpt lat="49.054032" lon="2.573264">
        <ele>122.736076</ele>
        <time>2021-11-04T16:31:21.577Z</time>
      </trkpt>
      <trkpt lat="49.054073" lon="2.573261">
        <ele>122.709929</ele>
        <time>2021-11-04T16:31:22.103Z</time>
      </trkpt>
      <trkpt lat="49.054146" lon="2.573207">
        <ele>122.658251</ele>
        <time>2021-11-04T16:31:23.153Z</time>
      </trkpt>
      <trkpt lat="49.054161" lon="2.573180">
        <ele>122.643474</ele>
        <time>2021-11-04T16:31:23.469Z</time>
      </trkpt>
      <trkpt lat="49.054172" lon="2.573159">
        <ele>122.632251</ele>
        <time>2021-11-04T16:31:23.697Z</time>
      </trkpt>
      <trkpt lat="49.054189" lon="2.573103">
        <ele>122.606486</ele>
        <time>2021-11-04T16:31:24.227Z</time>
      </trkpt>
      <trkpt lat="49.054216" lon="2.573031">
        <ele>122.580313</ele>
        <time>2021-11-04T16:31:24.942Z</time>
      </trkpt>
      <trkpt lat="49.054266" lon="2.572930">
        <ele>122.543341</ele>
        <time>2021-11-04T16:31:26.044Z</time>
      </trkpt>
      <trkpt lat="49.054301" lon="2.572885">
        <ele>122.522943</ele>
        <time>2021-11-04T16:31:26.655Z</time>
      </trkpt>
      <trkpt lat="49.055662" lon="2.572062">
        <ele>121.870449</ele>
        <time>2021-11-04T16:31:46.398Z</time>
      </trkpt>
      <trkpt lat="49.057796" lon="2.570772">
        <ele>120.905599</ele>
        <time>2021-11-04T16:32:16.672Z</time>
      </trkpt>
      <trkpt lat="49.058323" lon="2.570452">
        <ele>120.878838</ele>
        <time>2021-11-04T16:32:25.324Z</time>
      </trkpt>
      <trkpt lat="49.058615" lon="2.570274">
        <ele>120.864002</ele>
        <time>2021-11-04T16:32:30.056Z</time>
      </trkpt>
      <trkpt lat="49.058946" lon="2.570072">
        <ele>120.847182</ele>
        <time>2021-11-04T16:32:35.476Z</time>
      </trkpt>
      <trkpt lat="49.059489" lon="2.569742">
        <ele>120.835205</ele>
        <time>2021-11-04T16:32:44.572Z</time>
      </trkpt>
      <trkpt lat="49.059874" lon="2.569507">
        <ele>120.833664</ele>
        <time>2021-11-04T16:32:50.971Z</time>
      </trkpt>
      <trkpt lat="49.062675" lon="2.567815">
        <ele>120.535882</ele>
        <time>2021-11-04T16:33:34.083Z</time>
      </trkpt>
      <trkpt lat="49.062827" lon="2.567718">
        <ele>120.539468</ele>
        <time>2021-11-04T16:33:36.358Z</time>
      </trkpt>
      <trkpt lat="49.063076" lon="2.567559">
        <ele>120.545344</ele>
        <time>2021-11-04T16:33:40.227Z</time>
      </trkpt>
      <trkpt lat="49.063197" lon="2.567467">
        <ele>120.548287</ele>
        <time>2021-11-04T16:33:42.155Z</time>
      </trkpt>
      <trkpt lat="49.063553" lon="2.567120">
        <ele>120.557482</ele>
        <time>2021-11-04T16:33:48.473Z</time>
      </trkpt>
      <trkpt lat="49.063843" lon="2.566980">
        <ele>120.564103</ele>
        <time>2021-11-04T16:33:53.097Z</time>
      </trkpt>
      <trkpt lat="49.063925" lon="2.566970">
        <ele>120.565893</ele>
        <time>2021-11-04T16:33:54.428Z</time>
      </trkpt>
      <trkpt lat="49.063954" lon="2.566996">
        <ele>120.566625</ele>
        <time>2021-11-04T16:33:54.946Z</time>
      </trkpt>
      <trkpt lat="49.064019" lon="2.567017">
        <ele>120.568072</ele>
        <time>2021-11-04T16:33:55.996Z</time>
      </trkpt>
      <trkpt lat="49.064053" lon="2.567010">
        <ele>120.568818</ele>
        <time>2021-11-04T16:33:56.522Z</time>
      </trkpt>
      <trkpt lat="49.064097" lon="2.566982">
        <ele>120.569856</ele>
        <time>2021-11-04T16:33:57.251Z</time>
      </trkpt>
      <trkpt lat="49.064134" lon="2.566933">
        <ele>120.570922</ele>
        <time>2021-11-04T16:33:58.028Z</time>
      </trkpt>
      <trkpt lat="49.064158" lon="2.566869">
        <ele>120.591005</ele>
        <time>2021-11-04T16:33:58.815Z</time>
      </trkpt>
      <trkpt lat="49.064328" lon="2.566788">
        <ele>120.665357</ele>
        <time>2021-11-04T16:34:01.725Z</time>
      </trkpt>
      <trkpt lat="49.064634" lon="2.566621">
        <ele>120.801033</ele>
        <time>2021-11-04T16:34:06.991Z</time>
      </trkpt>
      <trkpt lat="49.066201" lon="2.565668">
        <ele>121.009869</ele>
        <time>2021-11-04T16:34:35.620Z</time>
      </trkpt>
      <trkpt lat="49.066644" lon="2.565403">
        <ele>120.671988</ele>
        <time>2021-11-04T16:34:42.157Z</time>
      </trkpt>
      <trkpt lat="49.066744" lon="2.565384">
        <ele>120.600428</ele>
        <time>2021-11-04T16:34:43.552Z</time>
      </trkpt>
      <trkpt lat="49.066820" lon="2.565369">
        <ele>120.546010</ele>
        <time>2021-11-04T16:34:44.531Z</time>
      </trkpt>
      <trkpt lat="49.067014" lon="2.565413">
        <ele>120.406734</ele>
        <time>2021-11-04T16:34:46.744Z</time>
      </trkpt>
      <trkpt lat="49.067352" lon="2.565598">
        <ele>120.151748</ele>
        <time>2021-11-04T16:34:50.740Z</time>
      </trkpt>
      <trkpt lat="49.067662" lon="2.565768">
        <ele>119.756697</ele>
        <time>2021-11-04T16:34:54.318Z</time>
      </trkpt>
      <trkpt lat="49.067857" lon="2.565968">
        <ele>119.377798</ele>
        <time>2021-11-04T16:34:56.928Z</time>
      </trkpt>
      <trkpt lat="49.067905" lon="2.566038">
        <ele>119.270730</ele>
        <time>2021-11-04T16:34:57.574Z</time>
      </trkpt>
      <trkpt lat="49.068002" lon="2.566181">
        <ele>119.053235</ele>
        <time>2021-11-04T16:34:59.164Z</time>
      </trkpt>
      <trkpt lat="49.068084" lon="2.566302">
        <ele>118.869290</ele>
        <time>2021-11-04T16:35:00.456Z</time>
      </trkpt>
      <trkpt lat="49.068344" lon="2.566706">
        <ele>118.270913</ele>
        <time>2021-11-04T16:35:04.538Z</time>
      </trkpt>
      <trkpt lat="49.068382" lon="2.566862">
        <ele>118.095055</ele>
        <time>2021-11-04T16:35:06.137Z</time>
      </trkpt>
      <trkpt lat="49.068665" lon="2.567243">
        <ele>117.486466</ele>
        <time>2021-11-04T16:35:12.360Z</time>
      </trkpt>
      <trkpt lat="49.068831" lon="2.567532">
        <ele>117.170659</ele>
        <time>2021-11-04T16:35:17.146Z</time>
      </trkpt>
      <trkpt lat="49.068888" lon="2.567759">
        <ele>117.279481</ele>
        <time>2021-11-04T16:35:19.873Z</time>
      </trkpt>
      <trkpt lat="49.068913" lon="2.567897">
        <ele>117.343573</ele>
        <time>2021-11-04T16:35:22.101Z</time>
      </trkpt>
      <trkpt lat="49.068982" lon="2.568208">
        <ele>117.490554</ele>
        <time>2021-11-04T16:35:26.088Z</time>
      </trkpt>
      <trkpt lat="49.069048" lon="2.568361">
        <ele>117.572555</ele>
        <time>2021-11-04T16:35:29.178Z</time>
      </trkpt>
      <trkpt lat="49.069066" lon="2.568397">
        <ele>117.592827</ele>
        <time>2021-11-04T16:35:29.875Z</time>
      </trkpt>
      <trkpt lat="49.069099" lon="2.568468">
        <ele>117.631794</ele>
        <time>2021-11-04T16:35:30.990Z</time>
      </trkpt>
      <trkpt lat="49.069266" lon="2.568816">
        <ele>117.824890</ele>
        <time>2021-11-04T16:35:37.908Z</time>
      </trkpt>
      <trkpt lat="49.069679" lon="2.569806">
        <ele>118.350262</ele>
        <time>2021-11-04T16:35:58.163Z</time>
      </trkpt>
      <trkpt lat="49.069747" lon="2.569966">
        <ele>118.420377</ele>
        <time>2021-11-04T16:36:01.311Z</time>
      </trkpt>
      <trkpt lat="49.070023" lon="2.570610">
        <ele>118.681317</ele>
        <time>2021-11-04T16:36:14.405Z</time>
      </trkpt>
      <trkpt lat="49.070477" lon="2.572645">
        <ele>119.188769</ele>
        <time>2021-11-04T16:36:43.603Z</time>
      </trkpt>
      <trkpt lat="49.070498" lon="2.572701">
        <ele>119.165193</ele>
        <time>2021-11-04T16:36:44.616Z</time>
      </trkpt>
      <trkpt lat="49.070519" lon="2.572764">
        <ele>119.139366</ele>
        <time>2021-11-04T16:36:45.333Z</time>
      </trkpt>
      <trkpt lat="49.070591" lon="2.572832">
        <ele>119.092146</ele>
        <time>2021-11-04T16:36:46.848Z</time>
      </trkpt>
      <trkpt lat="49.070872" lon="2.573148">
        <ele>118.897490</ele>
        <time>2021-11-04T16:36:53.298Z</time>
      </trkpt>
      <trkpt lat="49.071384" lon="2.573758">
        <ele>118.535257</ele>
        <time>2021-11-04T16:37:05.046Z</time>
      </trkpt>
      <trkpt lat="49.071629" lon="2.574032">
        <ele>118.365868</ele>
        <time>2021-11-04T16:37:10.587Z</time>
      </trkpt>
      <trkpt lat="49.071714" lon="2.574139">
        <ele>118.304422</ele>
        <time>2021-11-04T16:37:12.318Z</time>
      </trkpt>
      <trkpt lat="49.072299" lon="2.574958">
        <ele>117.581438</ele>
        <time>2021-11-04T16:37:26.236Z</time>
      </trkpt>
      <trkpt lat="49.072836" lon="2.575832">
        <ele>116.864005</ele>
        <time>2021-11-04T16:37:39.925Z</time>
      </trkpt>
      <trkpt lat="49.072970" lon="2.576137">
        <ele>116.650875</ele>
        <time>2021-11-04T16:37:44.254Z</time>
      </trkpt>
      <trkpt lat="49.073009" lon="2.576290">
        <ele>116.605579</ele>
        <time>2021-11-04T16:37:46.089Z</time>
      </trkpt>
      <trkpt lat="49.073123" lon="2.576394">
        <ele>116.549646</ele>
        <time>2021-11-04T16:37:48.462Z</time>
      </trkpt>
      <trkpt lat="49.073791" lon="2.577406">
        <ele>116.153277</ele>
        <time>2021-11-04T16:38:05.640Z</time>
      </trkpt>
      <trkpt lat="49.074112" lon="2.577981">
        <ele>115.944845</ele>
        <time>2021-11-04T16:38:15.090Z</time>
      </trkpt>
      <trkpt lat="49.074781" lon="2.580599">
        <ele>117.028651</ele>
        <time>2021-11-04T16:38:56.587Z</time>
      </trkpt>
      <trkpt lat="49.074839" lon="2.580927">
        <ele>117.449572</ele>
        <time>2021-11-04T16:39:02.399Z</time>
      </trkpt>
      <trkpt lat="49.074931" lon="2.581497">
        <ele>118.379314</ele>
        <time>2021-11-04T16:39:12.814Z</time>
      </trkpt>
      <trkpt lat="49.075257" lon="2.583938">
        <ele>122.855634</ele>
        <time>2021-11-04T16:40:04.483Z</time>
      </trkpt>
      <trkpt lat="49.075844" lon="2.586738">
        <ele>130.274835</ele>
        <time>2021-11-04T16:41:15.546Z</time>
      </trkpt>
      <trkpt lat="49.075964" lon="2.587036">
        <ele>131.167739</ele>
        <time>2021-11-04T16:41:24.178Z</time>
      </trkpt>
      <trkpt lat="49.077440" lon="2.589242">
        <ele>138.378575</ele>
        <time>2021-11-04T16:42:36.168Z</time>
      </trkpt>
      <trkpt lat="49.077537" lon="2.589264">
        <ele>138.678281</ele>
        <time>2021-11-04T16:42:39.517Z</time>
      </trkpt>
      <trkpt lat="49.077568" lon="2.589271">
        <ele>138.774055</ele>
        <time>2021-11-04T16:42:40.427Z</time>
      </trkpt>
      <trkpt lat="49.078684" lon="2.589527">
        <ele>141.439689</ele>
        <time>2021-11-04T16:43:13.208Z</time>
      </trkpt>
      <trkpt lat="49.079382" lon="2.589881">
        <ele>142.425644</ele>
        <time>2021-11-04T16:43:32.215Z</time>
      </trkpt>
      <trkpt lat="49.079845" lon="2.590222">
        <ele>143.114747</ele>
        <time>2021-11-04T16:43:44.078Z</time>
      </trkpt>
      <trkpt lat="49.079935" lon="2.590263">
        <ele>143.238771</ele>
        <time>2021-11-04T16:43:46.423Z</time>
      </trkpt>
      <trkpt lat="49.080003" lon="2.590288">
        <ele>143.241582</ele>
        <time>2021-11-04T16:43:48.014Z</time>
      </trkpt>
      <trkpt lat="49.080186" lon="2.590341">
        <ele>143.249068</ele>
        <time>2021-11-04T16:43:51.948Z</time>
      </trkpt>
      <trkpt lat="49.080273" lon="2.590362">
        <ele>143.252609</ele>
        <time>2021-11-04T16:43:53.981Z</time>
      </trkpt>
      <trkpt lat="49.081462" lon="2.590998">
        <ele>143.303247</ele>
        <time>2021-11-04T16:44:19.350Z</time>
      </trkpt>
      <trkpt lat="49.081892" lon="2.591020">
        <ele>143.314704</ele>
        <time>2021-11-04T16:44:26.903Z</time>
      </trkpt>
      <trkpt lat="49.083775" lon="2.589993">
        <ele>144.313939</ele>
        <time>2021-11-04T16:45:07.610Z</time>
      </trkpt>
      <trkpt lat="49.085079" lon="2.589186">
        <ele>147.541522</ele>
        <time>2021-11-04T16:45:51.776Z</time>
      </trkpt>
      <trkpt lat="49.086812" lon="2.587955">
        <ele>155.580532</ele>
        <time>2021-11-04T16:47:05.546Z</time>
      </trkpt>
      <trkpt lat="49.087344" lon="2.587872">
        <ele>157.275036</ele>
        <time>2021-11-04T16:47:25.013Z</time>
      </trkpt>
      <trkpt lat="49.088519" lon="2.587928">
        <ele>160.793966</ele>
        <time>2021-11-04T16:48:01.755Z</time>
      </trkpt>
      <trkpt lat="49.089214" lon="2.588198">
        <ele>160.982031</ele>
        <time>2021-11-04T16:48:19.207Z</time>
      </trkpt>
      <trkpt lat="49.089262" lon="2.588213">
        <ele>160.994880</ele>
        <time>2021-11-04T16:48:20.414Z</time>
      </trkpt>
      <trkpt lat="49.089317" lon="2.588231">
        <ele>161.009631</ele>
        <time>2021-11-04T16:48:21.553Z</time>
      </trkpt>
      <trkpt lat="49.090359" lon="2.588424">
        <ele>160.811228</ele>
        <time>2021-11-04T16:48:40.637Z</time>
      </trkpt>
      <trkpt lat="49.090767" lon="2.588632">
        <ele>159.511878</ele>
        <time>2021-11-04T16:48:47.523Z</time>
      </trkpt>
      <trkpt lat="49.092234" lon="2.590868">
        <ele>151.253251</ele>
        <time>2021-11-04T16:49:16.708Z</time>
      </trkpt>
      <trkpt lat="49.092330" lon="2.590927">
        <ele>150.697040</ele>
        <time>2021-11-04T16:49:18.016Z</time>
      </trkpt>
      <trkpt lat="49.092719" lon="2.590615">
        <ele>148.335361</ele>
        <time>2021-11-04T16:49:23.838Z</time>
      </trkpt>
      <trkpt lat="49.093253" lon="2.590212">
        <ele>144.776357</ele>
        <time>2021-11-04T16:49:31.449Z</time>
      </trkpt>
      <trkpt lat="49.093838" lon="2.589945">
        <ele>140.335940</ele>
        <time>2021-11-04T16:49:39.120Z</time>
      </trkpt>
      <trkpt lat="49.094258" lon="2.589909">
        <ele>137.276642</ele>
        <time>2021-11-04T16:49:44.468Z</time>
      </trkpt>
      <trkpt lat="49.094622" lon="2.589820">
        <ele>134.595701</ele>
        <time>2021-11-04T16:49:49.184Z</time>
      </trkpt>
      <trkpt lat="49.095321" lon="2.589507">
        <ele>130.233278</ele>
        <time>2021-11-04T16:49:58.584Z</time>
      </trkpt>
      <trkpt lat="49.095973" lon="2.589125">
        <ele>126.415253</ele>
        <time>2021-11-04T16:50:07.762Z</time>
      </trkpt>
      <trkpt lat="49.096700" lon="2.588571">
        <ele>122.550340</ele>
        <time>2021-11-04T16:50:19.253Z</time>
      </trkpt>
      <trkpt lat="49.097406" lon="2.587694">
        <ele>119.856766</ele>
        <time>2021-11-04T16:50:32.613Z</time>
      </trkpt>
      <trkpt lat="49.097897" lon="2.586803">
        <ele>117.738425</ele>
        <time>2021-11-04T16:50:44.208Z</time>
      </trkpt>
      <trkpt lat="49.097948" lon="2.586711">
        <ele>117.609879</ele>
        <time>2021-11-04T16:50:45.400Z</time>
      </trkpt>
      <trkpt lat="49.098504" lon="2.585703">
        <ele>116.204387</ele>
        <time>2021-11-04T16:50:59.554Z</time>
      </trkpt>
      <trkpt lat="49.098627" lon="2.585563">
        <ele>115.954552</ele>
        <time>2021-11-04T16:51:02.019Z</time>
      </trkpt>
      <trkpt lat="49.099045" lon="2.585168">
        <ele>115.154006</ele>
        <time>2021-11-04T16:51:10.360Z</time>
      </trkpt>
      <trkpt lat="49.099245" lon="2.585032">
        <ele>114.782975</ele>
        <time>2021-11-04T16:51:13.999Z</time>
      </trkpt>
      <trkpt lat="49.099484" lon="2.584950">
        <ele>114.352149</ele>
        <time>2021-11-04T16:51:18.217Z</time>
      </trkpt>
      <trkpt lat="49.099751" lon="2.584858">
        <ele>113.870751</ele>
        <time>2021-11-04T16:51:22.780Z</time>
      </trkpt>
      <trkpt lat="49.100318" lon="2.584467">
        <ele>112.776585</ele>
        <time>2021-11-04T16:51:32.743Z</time>
      </trkpt>
      <trkpt lat="49.100457" lon="2.584458">
        <ele>112.531895</ele>
        <time>2021-11-04T16:51:34.954Z</time>
      </trkpt>
      <trkpt lat="49.100457" lon="2.584458">
        <ele>112.531895</ele>
        <time>2021-11-04T16:51:34.959Z</time>
      </trkpt>
      <trkpt lat="49.101324" lon="2.584404">
        <ele>110.688276</ele>
        <time>2021-11-04T16:51:48.362Z</time>
      </trkpt>
      <trkpt lat="49.101466" lon="2.584384">
        <ele>110.339095</ele>
        <time>2021-11-04T16:51:50.434Z</time>
      </trkpt>
      <trkpt lat="49.101733" lon="2.584345">
        <ele>109.682327</ele>
        <time>2021-11-04T16:51:54.520Z</time>
      </trkpt>
      <trkpt lat="49.101825" lon="2.584310">
        <ele>109.450170</ele>
        <time>2021-11-04T16:51:55.886Z</time>
      </trkpt>
      <trkpt lat="49.102001" lon="2.584243">
        <ele>109.006026</ele>
        <time>2021-11-04T16:51:58.668Z</time>
      </trkpt>
      <trkpt lat="49.102730" lon="2.584770">
        <ele>107.114429</ele>
        <time>2021-11-04T16:52:10.991Z</time>
      </trkpt>
      <trkpt lat="49.102777" lon="2.584804">
        <ele>107.015013</ele>
        <time>2021-11-04T16:52:11.739Z</time>
      </trkpt>
      <trkpt lat="49.103026" lon="2.584984">
        <ele>106.488387</ele>
        <time>2021-11-04T16:52:16.146Z</time>
      </trkpt>
      <trkpt lat="49.103228" lon="2.585130">
        <ele>106.061177</ele>
        <time>2021-11-04T16:52:19.699Z</time>
      </trkpt>
      <trkpt lat="49.103258" lon="2.585146">
        <ele>106.000431</ele>
        <time>2021-11-04T16:52:20.051Z</time>
      </trkpt>
      <trkpt lat="49.103577" lon="2.585635">
        <ele>105.136460</ele>
        <time>2021-11-04T16:52:25.132Z</time>
      </trkpt>
      <trkpt lat="49.103878" lon="2.586492">
        <ele>103.931981</ele>
        <time>2021-11-04T16:52:32.242Z</time>
      </trkpt>
      <trkpt lat="49.104082" lon="2.586933">
        <ele>103.417317</ele>
        <time>2021-11-04T16:52:36.214Z</time>
      </trkpt>
      <trkpt lat="49.104698" lon="2.587903">
        <ele>102.129301</ele>
        <time>2021-11-04T16:52:46.405Z</time>
      </trkpt>
      <trkpt lat="49.104724" lon="2.587945">
        <ele>102.074208</ele>
        <time>2021-11-04T16:52:46.763Z</time>
      </trkpt>
      <trkpt lat="49.104792" lon="2.588048">
        <ele>101.934789</ele>
        <time>2021-11-04T16:52:47.918Z</time>
      </trkpt>
      <trkpt lat="49.105113" lon="2.588349">
        <ele>101.386432</ele>
        <time>2021-11-04T16:52:52.423Z</time>
      </trkpt>
      <trkpt lat="49.105234" lon="2.588533">
        <ele>101.298065</ele>
        <time>2021-11-04T16:52:54.667Z</time>
      </trkpt>
      <trkpt lat="49.105447" lon="2.589067">
        <ele>101.143789</ele>
        <time>2021-11-04T16:52:59.759Z</time>
      </trkpt>
      <trkpt lat="49.105567" lon="2.589914">
        <ele>100.929981</ele>
        <time>2021-11-04T16:53:07.079Z</time>
      </trkpt>
      <trkpt lat="49.105574" lon="2.589956">
        <ele>100.919288</ele>
        <time>2021-11-04T16:53:07.538Z</time>
      </trkpt>
      <trkpt lat="49.105589" lon="2.590053">
        <ele>100.894698</ele>
        <time>2021-11-04T16:53:08.561Z</time>
      </trkpt>
      <trkpt lat="49.105705" lon="2.590620">
        <ele>100.748137</ele>
        <time>2021-11-04T16:53:14.774Z</time>
      </trkpt>
      <trkpt lat="49.105882" lon="2.592155">
        <ele>101.095380</ele>
        <time>2021-11-04T16:53:32.109Z</time>
      </trkpt>
      <trkpt lat="49.105901" lon="2.592318">
        <ele>101.150159</ele>
        <time>2021-11-04T16:53:34.017Z</time>
      </trkpt>
      <trkpt lat="49.105917" lon="2.592474">
        <ele>101.202404</ele>
        <time>2021-11-04T16:53:35.945Z</time>
      </trkpt>
      <trkpt lat="49.106007" lon="2.593355">
        <ele>101.497423</ele>
        <time>2021-11-04T16:53:45.483Z</time>
      </trkpt>
      <trkpt lat="49.106026" lon="2.593547">
        <ele>101.561671</ele>
        <time>2021-11-04T16:53:47.783Z</time>
      </trkpt>
      <trkpt lat="49.106075" lon="2.593496">
        <ele>101.591658</ele>
        <time>2021-11-04T16:53:48.976Z</time>
      </trkpt>
      <trkpt lat="49.106150" lon="2.594019">
        <ele>101.769370</ele>
        <time>2021-11-04T16:53:54.708Z</time>
      </trkpt>
      <trkpt lat="49.106528" lon="2.596206">
        <ele>102.527363</ele>
        <time>2021-11-04T16:54:19.662Z</time>
      </trkpt>
      <trkpt lat="49.106770" lon="2.597104">
        <ele>102.950670</ele>
        <time>2021-11-04T16:54:30.895Z</time>
      </trkpt>
      <trkpt lat="49.106935" lon="2.597544">
        <ele>103.171704</ele>
        <time>2021-11-04T16:54:36.896Z</time>
      </trkpt>
      <trkpt lat="49.107310" lon="2.598158">
        <ele>103.537734</ele>
        <time>2021-11-04T16:54:46.752Z</time>
      </trkpt>
      <trkpt lat="49.108274" lon="2.599158">
        <ele>104.167703</ele>
        <time>2021-11-04T16:55:06.481Z</time>
      </trkpt>
      <trkpt lat="49.108643" lon="2.599533">
        <ele>104.393220</ele>
        <time>2021-11-04T16:55:13.635Z</time>
      </trkpt>
      <trkpt lat="49.108630" lon="2.599563">
        <ele>104.405205</ele>
        <time>2021-11-04T16:55:14.149Z</time>
      </trkpt>
      <trkpt lat="49.108616" lon="2.599592">
        <ele>104.417207</ele>
        <time>2021-11-04T16:55:14.664Z</time>
      </trkpt>
      <trkpt lat="49.110891" lon="2.601728">
        <ele>105.516508</ele>
        <time>2021-11-04T16:55:59.778Z</time>
      </trkpt>
      <trkpt lat="49.110997" lon="2.601827">
        <ele>105.509452</ele>
        <time>2021-11-04T16:56:01.931Z</time>
      </trkpt>
      <trkpt lat="49.111026" lon="2.601862">
        <ele>105.507353</ele>
        <time>2021-11-04T16:56:02.750Z</time>
      </trkpt>
      <trkpt lat="49.111331" lon="2.602323">
        <ele>105.482986</ele>
        <time>2021-11-04T16:56:09.706Z</time>
      </trkpt>
      <trkpt lat="49.111291" lon="2.603512">
        <ele>105.281173</ele>
        <time>2021-11-04T16:56:19.730Z</time>
      </trkpt>
      <trkpt lat="49.111205" lon="2.604099">
        <ele>104.285738</ele>
        <time>2021-11-04T16:56:24.340Z</time>
      </trkpt>
      <trkpt lat="49.111160" lon="2.604336">
        <ele>103.877370</ele>
        <time>2021-11-04T16:56:26.150Z</time>
      </trkpt>
      <trkpt lat="49.111151" lon="2.604380">
        <ele>103.801085</ele>
        <time>2021-11-04T16:56:26.508Z</time>
      </trkpt>
      <trkpt lat="49.111121" lon="2.604535">
        <ele>103.533604</ele>
        <time>2021-11-04T16:56:27.722Z</time>
      </trkpt>
      <trkpt lat="49.111095" lon="2.604684">
        <ele>103.278418</ele>
        <time>2021-11-04T16:56:28.754Z</time>
      </trkpt>
      <trkpt lat="49.110678" lon="2.607052">
        <ele>98.926575</ele>
        <time>2021-11-04T16:56:44.783Z</time>
      </trkpt>
      <trkpt lat="49.110666" lon="2.607228">
        <ele>98.582376</ele>
        <time>2021-11-04T16:56:45.868Z</time>
      </trkpt>
      <trkpt lat="49.110554" lon="2.608779">
        <ele>95.550198</ele>
        <time>2021-11-04T16:56:56.544Z</time>
      </trkpt>
      <trkpt lat="49.110517" lon="2.609376">
        <ele>95.432776</ele>
        <time>2021-11-04T16:57:00.879Z</time>
      </trkpt>
      <trkpt lat="49.110497" lon="2.609986">
        <ele>95.313181</ele>
        <time>2021-11-04T16:57:06.140Z</time>
      </trkpt>
      <trkpt lat="49.110565" lon="2.610497">
        <ele>95.211075</ele>
        <time>2021-11-04T16:57:11.542Z</time>
      </trkpt>
      <trkpt lat="49.110704" lon="2.610911">
        <ele>95.119968</ele>
        <time>2021-11-04T16:57:16.797Z</time>
      </trkpt>
      <trkpt lat="49.111038" lon="2.611471">
        <ele>95.098705</ele>
        <time>2021-11-04T16:57:26.071Z</time>
      </trkpt>
      <trkpt lat="49.111409" lon="2.611906">
        <ele>95.393614</ele>
        <time>2021-11-04T16:57:35.342Z</time>
      </trkpt>
      <trkpt lat="49.111494" lon="2.612006">
        <ele>95.461265</ele>
        <time>2021-11-04T16:57:37.483Z</time>
      </trkpt>
      <trkpt lat="49.112358" lon="2.613022">
        <ele>96.145256</ele>
        <time>2021-11-04T16:57:56.176Z</time>
      </trkpt>
      <trkpt lat="49.115351" lon="2.617816">
        <ele>94.111155</ele>
        <time>2021-11-04T16:58:52.754Z</time>
      </trkpt>
      <trkpt lat="49.116071" lon="2.619002">
        <ele>93.799646</ele>
        <time>2021-11-04T16:59:07.687Z</time>
      </trkpt>
      <trkpt lat="49.116364" lon="2.619587">
        <ele>93.944614</ele>
        <time>2021-11-04T16:59:15.532Z</time>
      </trkpt>
      <trkpt lat="49.116424" lon="2.619780">
        <ele>93.986663</ele>
        <time>2021-11-04T16:59:17.592Z</time>
      </trkpt>
      <trkpt lat="49.116495" lon="2.620058">
        <ele>94.045390</ele>
        <time>2021-11-04T16:59:21.238Z</time>
      </trkpt>
      <trkpt lat="49.116613" lon="2.620084">
        <ele>94.081237</ele>
        <time>2021-11-04T16:59:23.071Z</time>
      </trkpt>
      <trkpt lat="49.116790" lon="2.620136">
        <ele>94.135431</ele>
        <time>2021-11-04T16:59:26.558Z</time>
      </trkpt>
      <trkpt lat="49.116892" lon="2.620302">
        <ele>94.180240</ele>
        <time>2021-11-04T16:59:28.844Z</time>
      </trkpt>
      <trkpt lat="49.116955" lon="2.620407">
        <ele>94.208272</ele>
        <time>2021-11-04T16:59:30.312Z</time>
      </trkpt>
      <trkpt lat="49.116992" lon="2.620468">
        <ele>94.224639</ele>
        <time>2021-11-04T16:59:31.863Z</time>
      </trkpt>
      <trkpt lat="49.124968" lon="2.633255">
        <ele>93.901538</ele>
        <time>2021-11-04T17:02:16.477Z</time>
      </trkpt>
      <trkpt lat="49.127522" lon="2.637383">
        <ele>104.792005</ele>
        <time>2021-11-04T17:04:02.675Z</time>
      </trkpt>
      <trkpt lat="49.128308" lon="2.638654">
        <ele>107.480591</ele>
        <time>2021-11-04T17:04:29.482Z</time>
      </trkpt>
      <trkpt lat="49.128505" lon="2.638957">
        <ele>107.873992</ele>
        <time>2021-11-04T17:04:35.048Z</time>
      </trkpt>
      <trkpt lat="49.128853" lon="2.639490">
        <ele>108.047261</ele>
        <time>2021-11-04T17:04:43.975Z</time>
      </trkpt>
      <trkpt lat="49.131767" lon="2.644162">
        <ele>109.231787</ele>
        <time>2021-11-04T17:05:49.404Z</time>
      </trkpt>
      <trkpt lat="49.132666" lon="2.645565">
        <ele>109.197094</ele>
        <time>2021-11-04T17:06:08.362Z</time>
      </trkpt>
      <trkpt lat="49.132970" lon="2.646097">
        <ele>109.137112</ele>
        <time>2021-11-04T17:06:14.879Z</time>
      </trkpt>
      <trkpt lat="49.133166" lon="2.646280">
        <ele>109.107302</ele>
        <time>2021-11-04T17:06:18.093Z</time>
      </trkpt>
      <trkpt lat="49.134345" lon="2.647099">
        <ele>109.089827</ele>
        <time>2021-11-04T17:06:36.477Z</time>
      </trkpt>
      <trkpt lat="49.138349" lon="2.649872">
        <ele>110.227095</ele>
        <time>2021-11-04T17:07:45.977Z</time>
      </trkpt>
      <trkpt lat="49.138399" lon="2.649903">
        <ele>110.247705</ele>
        <time>2021-11-04T17:07:46.985Z</time>
      </trkpt>
      <trkpt lat="49.140541" lon="2.651386">
        <ele>112.500988</ele>
        <time>2021-11-04T17:08:31.937Z</time>
      </trkpt>
      <trkpt lat="49.142296" lon="2.652588">
        <ele>113.644792</ele>
        <time>2021-11-04T17:09:06.984Z</time>
      </trkpt>
      <trkpt lat="49.144433" lon="2.654093">
        <ele>112.100830</ele>
        <time>2021-11-04T17:09:38.285Z</time>
      </trkpt>
      <trkpt lat="49.146604" lon="2.655638">
        <ele>105.396556</ele>
        <time>2021-11-04T17:10:03.007Z</time>
      </trkpt>
      <trkpt lat="49.149500" lon="2.657659">
        <ele>86.792085</ele>
        <time>2021-11-04T17:10:31.949Z</time>
      </trkpt>
      <trkpt lat="49.150005" lon="2.658007">
        <ele>84.133818</ele>
        <time>2021-11-04T17:10:37.297Z</time>
      </trkpt>
      <trkpt lat="49.150905" lon="2.658627">
        <ele>81.823875</ele>
        <time>2021-11-04T17:10:47.760Z</time>
      </trkpt>
      <trkpt lat="49.151304" lon="2.658909">
        <ele>80.795269</ele>
        <time>2021-11-04T17:10:52.976Z</time>
      </trkpt>
      <trkpt lat="49.151864" lon="2.659259">
        <ele>79.830279</ele>
        <time>2021-11-04T17:11:00.545Z</time>
      </trkpt>
      <trkpt lat="49.154269" lon="2.660968">
        <ele>76.881037</ele>
        <time>2021-11-04T17:11:32.170Z</time>
      </trkpt>
      <trkpt lat="49.157028" lon="2.662816">
        <ele>74.351840</ele>
        <time>2021-11-04T17:12:10.224Z</time>
      </trkpt>
      <trkpt lat="49.157317" lon="2.663017">
        <ele>74.087401</ele>
        <time>2021-11-04T17:12:14.173Z</time>
      </trkpt>
      <trkpt lat="49.157883" lon="2.663579">
        <ele>73.525305</ele>
        <time>2021-11-04T17:12:22.595Z</time>
      </trkpt>
      <trkpt lat="49.158117" lon="2.663634">
        <ele>73.349720</ele>
        <time>2021-11-04T17:12:25.511Z</time>
      </trkpt>
      <trkpt lat="49.158459" lon="2.663833">
        <ele>73.144010</ele>
        <time>2021-11-04T17:12:30.131Z</time>
      </trkpt>
      <trkpt lat="49.159648" lon="2.664565">
        <ele>72.423457</ele>
        <time>2021-11-04T17:12:47.022Z</time>
      </trkpt>
      <trkpt lat="49.160799" lon="2.665372">
        <ele>72.250038</ele>
        <time>2021-11-04T17:13:05.378Z</time>
      </trkpt>
      <trkpt lat="49.163805" lon="2.667299">
        <ele>72.757267</ele>
        <time>2021-11-04T17:13:53.350Z</time>
      </trkpt>
      <trkpt lat="49.167157" lon="2.671178">
        <ele>76.200434</ele>
        <time>2021-11-04T17:15:11.747Z</time>
      </trkpt>
      <trkpt lat="49.167710" lon="2.671818">
        <ele>76.841598</ele>
        <time>2021-11-04T17:15:24.914Z</time>
      </trkpt>
      <trkpt lat="49.169367" lon="2.673903">
        <ele>78.536723</ele>
        <time>2021-11-04T17:16:04.040Z</time>
      </trkpt>
      <trkpt lat="49.171366" lon="2.676418">
        <ele>79.047425</ele>
        <time>2021-11-04T17:16:47.215Z</time>
      </trkpt>
      <trkpt lat="49.172077" lon="2.677240">
        <ele>77.201187</ele>
        <time>2021-11-04T17:16:57.003Z</time>
      </trkpt>
      <trkpt lat="49.172108" lon="2.677377">
        <ele>76.908634</ele>
        <time>2021-11-04T17:16:57.980Z</time>
      </trkpt>
      <trkpt lat="49.172784" lon="2.680399">
        <ele>71.183113</ele>
        <time>2021-11-04T17:17:18.404Z</time>
      </trkpt>
      <trkpt lat="49.172806" lon="2.680481">
        <ele>71.047167</ele>
        <time>2021-11-04T17:17:19.046Z</time>
      </trkpt>
      <trkpt lat="49.173008" lon="2.681238">
        <ele>69.793122</ele>
        <time>2021-11-04T17:17:25.393Z</time>
      </trkpt>
      <trkpt lat="49.173080" lon="2.681570">
        <ele>69.256630</ele>
        <time>2021-11-04T17:17:28.588Z</time>
      </trkpt>
      <trkpt lat="49.173178" lon="2.682039">
        <ele>69.697153</ele>
        <time>2021-11-04T17:17:41.647Z</time>
      </trkpt>
      <trkpt lat="49.173283" lon="2.682608">
        <ele>70.251008</ele>
        <time>2021-11-04T17:17:50.262Z</time>
      </trkpt>
      <trkpt lat="49.173599" lon="2.684061">
        <ele>71.685481</ele>
        <time>2021-11-04T17:18:13.228Z</time>
      </trkpt>
      <trkpt lat="49.173600" lon="2.684188">
        <ele>71.804460</ele>
        <time>2021-11-04T17:18:15.715Z</time>
      </trkpt>
      <trkpt lat="49.173430" lon="2.685426">
        <ele>72.458843</ele>
        <time>2021-11-04T17:18:31.165Z</time>
      </trkpt>
      <trkpt lat="49.174406" lon="2.685670">
        <ele>73.230365</ele>
        <time>2021-11-04T17:18:46.880Z</time>
      </trkpt>
      <trkpt lat="49.176659" lon="2.686298">
        <ele>74.532907</ele>
        <time>2021-11-04T17:19:24.804Z</time>
      </trkpt>
      <trkpt lat="49.177265" lon="2.686450">
        <ele>75.173161</ele>
        <time>2021-11-04T17:19:40.172Z</time>
      </trkpt>
      <trkpt lat="49.178847" lon="2.686847">
        <ele>77.026953</ele>
        <time>2021-11-04T17:20:21.893Z</time>
      </trkpt>
      <trkpt lat="49.179079" lon="2.686977">
        <ele>77.333747</ele>
        <time>2021-11-04T17:20:28.139Z</time>
      </trkpt>
      <trkpt lat="49.182244" lon="2.689749">
        <ele>80.770442</ele>
        <time>2021-11-04T17:21:56.113Z</time>
      </trkpt>
      <trkpt lat="49.184070" lon="2.691349">
        <ele>81.400772</ele>
        <time>2021-11-04T17:22:40.132Z</time>
      </trkpt>
      <trkpt lat="49.184806" lon="2.691994">
        <ele>81.471058</ele>
        <time>2021-11-04T17:22:56.933Z</time>
      </trkpt>
      <trkpt lat="49.191395" lon="2.697770">
        <ele>82.085576</ele>
        <time>2021-11-04T17:25:32.689Z</time>
      </trkpt>
      <trkpt lat="49.191889" lon="2.698257">
        <ele>82.237036</ele>
        <time>2021-11-04T17:25:45.581Z</time>
      </trkpt>
      <trkpt lat="49.192269" lon="2.698592">
        <ele>82.428204</ele>
        <time>2021-11-04T17:25:55.245Z</time>
      </trkpt>
      <trkpt lat="49.192702" lon="2.698994">
        <ele>82.762076</ele>
        <time>2021-11-04T17:26:06.468Z</time>
      </trkpt>
      <trkpt lat="49.193076" lon="2.699365">
        <ele>83.055898</ele>
        <time>2021-11-04T17:26:16.658Z</time>
      </trkpt>
      <trkpt lat="49.193277" lon="2.699683">
        <ele>83.246490</ele>
        <time>2021-11-04T17:26:23.402Z</time>
      </trkpt>
      <trkpt lat="49.193592" lon="2.700207">
        <ele>83.655885</ele>
        <time>2021-11-04T17:26:34.267Z</time>
      </trkpt>
      <trkpt lat="49.193986" lon="2.700173">
        <ele>84.311107</ele>
        <time>2021-11-04T17:26:43.719Z</time>
      </trkpt>
      <trkpt lat="49.200282" lon="2.699621">
        <ele>95.303345</ele>
        <time>2021-11-04T17:29:35.324Z</time>
      </trkpt>
      <trkpt lat="49.201525" lon="2.699935">
        <ele>98.837878</ele>
        <time>2021-11-04T17:30:15.109Z</time>
      </trkpt>
      <trkpt lat="49.202325" lon="2.700315">
        <ele>101.480095</ele>
        <time>2021-11-04T17:30:43.068Z</time>
      </trkpt>
      <trkpt lat="49.204570" lon="2.700120">
        <ele>111.370719</ele>
        <time>2021-11-04T17:32:06.579Z</time>
      </trkpt>
      <trkpt lat="49.205585" lon="2.700043">
        <ele>117.157815</ele>
        <time>2021-11-04T17:32:51.458Z</time>
      </trkpt>
      <trkpt lat="49.206148" lon="2.699776">
        <ele>120.420888</ele>
        <time>2021-11-04T17:33:19.507Z</time>
      </trkpt>
      <trkpt lat="49.207243" lon="2.699763">
        <ele>126.036122</ele>
        <time>2021-11-04T17:34:06.729Z</time>
      </trkpt>
      <trkpt lat="49.207317" lon="2.699738">
        <ele>126.424720</ele>
        <time>2021-11-04T17:34:10.417Z</time>
      </trkpt>
      <trkpt lat="49.207644" lon="2.699122">
        <ele>128.811640</ele>
        <time>2021-11-04T17:34:27.816Z</time>
      </trkpt>
      <trkpt lat="49.207889" lon="2.699319">
        <ele>128.872477</ele>
        <time>2021-11-04T17:34:36.411Z</time>
      </trkpt>
      <trkpt lat="49.208061" lon="2.699812">
        <ele>128.952744</ele>
        <time>2021-11-04T17:34:46.322Z</time>
      </trkpt>
      <trkpt lat="49.208291" lon="2.700120">
        <ele>129.019924</ele>
        <time>2021-11-04T17:34:53.469Z</time>
      </trkpt>
      <trkpt lat="49.208675" lon="2.700502">
        <ele>129.120600</ele>
        <time>2021-11-04T17:35:01.241Z</time>
      </trkpt>
      <trkpt lat="49.208614" lon="2.700920">
        <ele>129.182111</ele>
        <time>2021-11-04T17:35:05.671Z</time>
      </trkpt>
      <trkpt lat="49.208572" lon="2.701716">
        <ele>126.841988</ele>
        <time>2021-11-04T17:35:13.087Z</time>
      </trkpt>
      <trkpt lat="49.208670" lon="2.702441">
        <ele>124.388252</ele>
        <time>2021-11-04T17:35:19.584Z</time>
      </trkpt>
      <trkpt lat="49.208864" lon="2.703215">
        <ele>121.640703</ele>
        <time>2021-11-04T17:35:26.740Z</time>
      </trkpt>
      <trkpt lat="49.208912" lon="2.703362">
        <ele>121.096043</ele>
        <time>2021-11-04T17:35:28.101Z</time>
      </trkpt>
      <trkpt lat="49.209176" lon="2.703644">
        <ele>119.284152</ele>
        <time>2021-11-04T17:35:32.272Z</time>
      </trkpt>
      <trkpt lat="49.210158" lon="2.704432">
        <ele>112.004010</ele>
        <time>2021-11-04T17:35:46.464Z</time>
      </trkpt>
      <trkpt lat="49.211831" lon="2.705069">
        <ele>102.305711</ele>
        <time>2021-11-04T17:36:09.147Z</time>
      </trkpt>
      <trkpt lat="49.212399" lon="2.705313">
        <ele>99.261161</ele>
        <time>2021-11-04T17:36:17.363Z</time>
      </trkpt>
      <trkpt lat="49.212688" lon="2.705542">
        <ele>98.385149</ele>
        <time>2021-11-04T17:36:22.042Z</time>
      </trkpt>
      <trkpt lat="49.213137" lon="2.705825">
        <ele>97.321295</ele>
        <time>2021-11-04T17:36:29.266Z</time>
      </trkpt>
      <trkpt lat="49.214312" lon="2.706934">
        <ele>94.784411</ele>
        <time>2021-11-04T17:36:52.224Z</time>
      </trkpt>
      <trkpt lat="49.216916" lon="2.709429">
        <ele>92.930328</ele>
        <time>2021-11-04T17:37:48.652Z</time>
      </trkpt>
      <trkpt lat="49.217634" lon="2.710029">
        <ele>92.798600</ele>
        <time>2021-11-04T17:38:05.030Z</time>
      </trkpt>
      <trkpt lat="49.218885" lon="2.710865">
        <ele>92.629454</ele>
        <time>2021-11-04T17:38:32.712Z</time>
      </trkpt>
      <trkpt lat="49.219105" lon="2.710936">
        <ele>92.527543</ele>
        <time>2021-11-04T17:38:37.079Z</time>
      </trkpt>
      <trkpt lat="49.219391" lon="2.711028">
        <ele>92.395077</ele>
        <time>2021-11-04T17:38:42.582Z</time>
      </trkpt>
      <trkpt lat="49.219724" lon="2.711136">
        <ele>92.240788</ele>
        <time>2021-11-04T17:38:48.960Z</time>
      </trkpt>
      <trkpt lat="49.220160" lon="2.711403">
        <ele>92.027939</ele>
        <time>2021-11-04T17:38:57.553Z</time>
      </trkpt>
      <trkpt lat="49.220207" lon="2.711395">
        <ele>92.006504</ele>
        <time>2021-11-04T17:38:58.337Z</time>
      </trkpt>
      <trkpt lat="49.220242" lon="2.711411">
        <ele>91.989948</ele>
        <time>2021-11-04T17:38:58.813Z</time>
      </trkpt>
      <trkpt lat="49.220256" lon="2.711519">
        <ele>91.957350</ele>
        <time>2021-11-04T17:38:59.763Z</time>
      </trkpt>
      <trkpt lat="49.220281" lon="2.711537">
        <ele>91.944828</ele>
        <time>2021-11-04T17:39:00.130Z</time>
      </trkpt>
      <trkpt lat="49.220322" lon="2.711567">
        <ele>91.924230</ele>
        <time>2021-11-04T17:39:00.718Z</time>
      </trkpt>
      <trkpt lat="49.220377" lon="2.711561">
        <ele>91.896306</ele>
        <time>2021-11-04T17:39:01.361Z</time>
      </trkpt>
      <trkpt lat="49.225002" lon="2.714111">
        <ele>88.335188</ele>
        <time>2021-11-04T17:40:03.550Z</time>
      </trkpt>
      <trkpt lat="49.225092" lon="2.714164">
        <ele>88.277729</ele>
        <time>2021-11-04T17:40:04.856Z</time>
      </trkpt>
      <trkpt lat="49.229267" lon="2.717735">
        <ele>87.259860</ele>
        <time>2021-11-04T17:41:12.543Z</time>
      </trkpt>
      <trkpt lat="49.230356" lon="2.718819">
        <ele>86.983843</ele>
        <time>2021-11-04T17:41:31.538Z</time>
      </trkpt>
      <trkpt lat="49.230645" lon="2.719152">
        <ele>86.794555</ele>
        <time>2021-11-04T17:41:36.514Z</time>
      </trkpt>
      <trkpt lat="49.231267" lon="2.720075">
        <ele>86.341257</ele>
        <time>2021-11-04T17:41:47.710Z</time>
      </trkpt>
      <trkpt lat="49.232429" lon="2.722105">
        <ele>85.002179</ele>
        <time>2021-11-04T17:42:09.326Z</time>
      </trkpt>
      <trkpt lat="49.232552" lon="2.722383">
        <ele>84.826631</ele>
        <time>2021-11-04T17:42:12.149Z</time>
      </trkpt>
      <trkpt lat="49.232599" lon="2.722566">
        <ele>84.780700</ele>
        <time>2021-11-04T17:42:14.012Z</time>
      </trkpt>
      <trkpt lat="49.232610" lon="2.723062">
        <ele>84.879062</ele>
        <time>2021-11-04T17:42:18.519Z</time>
      </trkpt>
      <trkpt lat="49.232640" lon="2.723524">
        <ele>84.971079</ele>
        <time>2021-11-04T17:42:23.316Z</time>
      </trkpt>
      <trkpt lat="49.232678" lon="2.724246">
        <ele>85.114640</ele>
        <time>2021-11-04T17:42:31.258Z</time>
      </trkpt>
      <trkpt lat="49.232792" lon="2.725276">
        <ele>85.343070</ele>
        <time>2021-11-04T17:42:43.189Z</time>
      </trkpt>
      <trkpt lat="49.232825" lon="2.725458">
        <ele>85.455284</ele>
        <time>2021-11-04T17:42:45.631Z</time>
      </trkpt>
      <trkpt lat="49.232866" lon="2.725661">
        <ele>85.581519</ele>
        <time>2021-11-04T17:42:48.002Z</time>
      </trkpt>
      <trkpt lat="49.233046" lon="2.726530">
        <ele>86.123127</ele>
        <time>2021-11-04T17:42:59.057Z</time>
      </trkpt>
      <trkpt lat="49.233495" lon="2.727680">
        <ele>86.919127</ele>
        <time>2021-11-04T17:43:15.395Z</time>
      </trkpt>
      <trkpt lat="49.233518" lon="2.727768">
        <ele>86.988941</ele>
        <time>2021-11-04T17:43:16.380Z</time>
      </trkpt>
      <trkpt lat="49.233576" lon="2.727776">
        <ele>87.067421</ele>
        <time>2021-11-04T17:43:17.556Z</time>
      </trkpt>
      <trkpt lat="49.233771" lon="2.727807">
        <ele>87.331624</ele>
        <time>2021-11-04T17:43:21.074Z</time>
      </trkpt>
      <trkpt lat="49.234253" lon="2.727892">
        <ele>87.985483</ele>
        <time>2021-11-04T17:43:30.619Z</time>
      </trkpt>
      <trkpt lat="49.234439" lon="2.727935">
        <ele>88.238986</ele>
        <time>2021-11-04T17:43:34.628Z</time>
      </trkpt>
      <trkpt lat="49.234835" lon="2.728154">
        <ele>88.806383</ele>
        <time>2021-11-04T17:43:43.247Z</time>
      </trkpt>
      <trkpt lat="49.235241" lon="2.728379">
        <ele>89.386115</ele>
        <time>2021-11-04T17:43:52.558Z</time>
      </trkpt>
      <trkpt lat="49.235296" lon="2.728350">
        <ele>89.454621</ele>
        <time>2021-11-04T17:43:54.078Z</time>
      </trkpt>
      <trkpt lat="49.235354" lon="2.728273">
        <ele>89.545021</ele>
        <time>2021-11-04T17:43:55.926Z</time>
      </trkpt>
      <trkpt lat="49.235680" lon="2.727074">
        <ele>90.543794</ele>
        <time>2021-11-04T17:44:13.317Z</time>
      </trkpt>
      <trkpt lat="49.235696" lon="2.727049">
        <ele>90.570714</ele>
        <time>2021-11-04T17:44:13.978Z</time>
      </trkpt>
      <trkpt lat="49.235881" lon="2.726761">
        <ele>90.881391</ele>
        <time>2021-11-04T17:44:18.965Z</time>
      </trkpt>
      <trkpt lat="49.236326" lon="2.726196">
        <ele>91.453672</ele>
        <time>2021-11-04T17:44:29.134Z</time>
      </trkpt>
      <trkpt lat="49.236644" lon="2.725847">
        <ele>91.225226</ele>
        <time>2021-11-04T17:44:35.043Z</time>
      </trkpt>
      <trkpt lat="49.236852" lon="2.725576">
        <ele>91.065764</ele>
        <time>2021-11-04T17:44:38.990Z</time>
      </trkpt>
      <trkpt lat="49.237580" lon="2.724215">
        <ele>90.353757</ele>
        <time>2021-11-04T17:44:52.885Z</time>
      </trkpt>
      <trkpt lat="49.238114" lon="2.723308">
        <ele>89.455822</ele>
        <time>2021-11-04T17:45:02.149Z</time>
      </trkpt>
      <trkpt lat="49.238334" lon="2.722934">
        <ele>89.085707</ele>
        <time>2021-11-04T17:45:05.997Z</time>
      </trkpt>
      <trkpt lat="49.239142" lon="2.722926">
        <ele>88.428324</ele>
        <time>2021-11-04T17:45:15.995Z</time>
      </trkpt>
      <trkpt lat="49.239381" lon="2.722843">
        <ele>88.444996</ele>
        <time>2021-11-04T17:45:19.153Z</time>
      </trkpt>
      <trkpt lat="49.239464" lon="2.722741">
        <ele>88.452235</ele>
        <time>2021-11-04T17:45:20.764Z</time>
      </trkpt>
      <trkpt lat="49.239722" lon="2.722041">
        <ele>88.487938</ele>
        <time>2021-11-04T17:45:28.817Z</time>
      </trkpt>
      <trkpt lat="49.239937" lon="2.721571">
        <ele>88.513428</ele>
        <time>2021-11-04T17:45:35.233Z</time>
      </trkpt>
      <trkpt lat="49.240316" lon="2.720776">
        <ele>88.671588</ele>
        <time>2021-11-04T17:45:46.994Z</time>
      </trkpt>
      <trkpt lat="49.240682" lon="2.720617">
        <ele>88.839516</ele>
        <time>2021-11-04T17:45:53.680Z</time>
      </trkpt>
      <trkpt lat="49.241099" lon="2.720544">
        <ele>89.024782</ele>
        <time>2021-11-04T17:46:00.733Z</time>
      </trkpt>
      <trkpt lat="49.241411" lon="2.720471">
        <ele>89.164100</ele>
        <time>2021-11-04T17:46:05.853Z</time>
      </trkpt>
      <trkpt lat="49.241660" lon="2.720420">
        <ele>89.274989</ele>
        <time>2021-11-04T17:46:09.843Z</time>
      </trkpt>
      <trkpt lat="49.241738" lon="2.720405">
        <ele>89.309689</ele>
        <time>2021-11-04T17:46:10.905Z</time>
      </trkpt>
      <trkpt lat="49.242668" lon="2.720199">
        <ele>89.018857</ele>
        <time>2021-11-04T17:46:23.968Z</time>
      </trkpt>
      <trkpt lat="49.243822" lon="2.719959">
        <ele>88.650801</ele>
        <time>2021-11-04T17:46:39.110Z</time>
      </trkpt>
      <trkpt lat="49.254004" lon="2.717783">
        <ele>86.956253</ele>
        <time>2021-11-04T17:49:04.671Z</time>
      </trkpt>
      <trkpt lat="49.255062" lon="2.717557">
        <ele>88.076494</ele>
        <time>2021-11-04T17:49:24.557Z</time>
      </trkpt>
      <trkpt lat="49.255508" lon="2.717422">
        <ele>88.694183</ele>
        <time>2021-11-04T17:49:33.973Z</time>
      </trkpt>
      <trkpt lat="49.256879" lon="2.716964">
        <ele>91.702791</ele>
        <time>2021-11-04T17:50:06.584Z</time>
      </trkpt>
      <trkpt lat="49.257346" lon="2.716822">
        <ele>92.949181</ele>
        <time>2021-11-04T17:50:19.517Z</time>
      </trkpt>
      <trkpt lat="49.258207" lon="2.716453">
        <ele>95.398530</ele>
        <time>2021-11-04T17:50:44.124Z</time>
      </trkpt>
      <trkpt lat="49.258381" lon="2.716383">
        <ele>95.913311</ele>
        <time>2021-11-04T17:50:49.532Z</time>
      </trkpt>
      <trkpt lat="49.259750" lon="2.715928">
        <ele>99.483753</ele>
        <time>2021-11-04T17:51:25.987Z</time>
      </trkpt>
      <trkpt lat="49.260222" lon="2.715787">
        <ele>99.939215</ele>
        <time>2021-11-04T17:51:35.484Z</time>
      </trkpt>
      <trkpt lat="49.260453" lon="2.715837">
        <ele>100.160174</ele>
        <time>2021-11-04T17:51:39.561Z</time>
      </trkpt>
      <trkpt lat="49.260686" lon="2.716010">
        <ele>100.405399</ele>
        <time>2021-11-04T17:51:43.998Z</time>
      </trkpt>
      <trkpt lat="49.260792" lon="2.716111">
        <ele>100.523623</ele>
        <time>2021-11-04T17:51:45.925Z</time>
      </trkpt>
      <trkpt lat="49.261220" lon="2.716031">
        <ele>100.932000</ele>
        <time>2021-11-04T17:51:52.480Z</time>
      </trkpt>
      <trkpt lat="49.261416" lon="2.715961">
        <ele>100.943842</ele>
        <time>2021-11-04T17:51:55.256Z</time>
      </trkpt>
      <trkpt lat="49.261813" lon="2.715819">
        <ele>100.875968</ele>
        <time>2021-11-04T17:52:00.873Z</time>
      </trkpt>
      <trkpt lat="49.263052" lon="2.715380">
        <ele>100.672712</ele>
        <time>2021-11-04T17:52:18.643Z</time>
      </trkpt>
      <trkpt lat="49.263067" lon="2.715414">
        <ele>100.673752</ele>
        <time>2021-11-04T17:52:19.071Z</time>
      </trkpt>
      <trkpt lat="49.263158" lon="2.715459">
        <ele>100.677465</ele>
        <time>2021-11-04T17:52:20.494Z</time>
      </trkpt>
      <trkpt lat="49.265436" lon="2.715924">
        <ele>100.848662</ele>
        <time>2021-11-04T17:52:55.195Z</time>
      </trkpt>
      <trkpt lat="49.265675" lon="2.715973">
        <ele>100.887831</ele>
        <time>2021-11-04T17:52:58.993Z</time>
      </trkpt>
      <trkpt lat="49.265752" lon="2.716129">
        <ele>100.908565</ele>
        <time>2021-11-04T17:53:01.531Z</time>
      </trkpt>
      <trkpt lat="49.266100" lon="2.716211">
        <ele>100.965759</ele>
        <time>2021-11-04T17:53:08.897Z</time>
      </trkpt>
      <trkpt lat="49.266223" lon="2.716240">
        <ele>100.985974</ele>
        <time>2021-11-04T17:53:11.593Z</time>
      </trkpt>
      <trkpt lat="49.266355" lon="2.716124">
        <ele>101.010692</ele>
        <time>2021-11-04T17:53:14.805Z</time>
      </trkpt>
      <trkpt lat="49.267931" lon="2.716475">
        <ele>101.838839</ele>
        <time>2021-11-04T17:53:41.583Z</time>
      </trkpt>
      <trkpt lat="49.270095" lon="2.717013">
        <ele>103.522488</ele>
        <time>2021-11-04T17:54:21.688Z</time>
      </trkpt>
      <trkpt lat="49.273528" lon="2.717744">
        <ele>105.467505</ele>
        <time>2021-11-04T17:55:20.713Z</time>
      </trkpt>
      <trkpt lat="49.274706" lon="2.717977">
        <ele>105.998758</ele>
        <time>2021-11-04T17:55:40.157Z</time>
      </trkpt>
      <trkpt lat="49.274904" lon="2.718016">
        <ele>106.086835</ele>
        <time>2021-11-04T17:55:43.406Z</time>
      </trkpt>
      <trkpt lat="49.275704" lon="2.718168">
        <ele>106.531026</ele>
        <time>2021-11-04T17:55:56.693Z</time>
      </trkpt>
      <trkpt lat="49.276163" lon="2.718256">
        <ele>106.865912</ele>
        <time>2021-11-04T17:56:04.592Z</time>
      </trkpt>
      <trkpt lat="49.276547" lon="2.718341">
        <ele>107.146796</ele>
        <time>2021-11-04T17:56:11.450Z</time>
      </trkpt>
      <trkpt lat="49.276748" lon="2.718419">
        <ele>107.296903</ele>
        <time>2021-11-04T17:56:15.237Z</time>
      </trkpt>
      <trkpt lat="49.276846" lon="2.718442">
        <ele>107.368678</ele>
        <time>2021-11-04T17:56:17.063Z</time>
      </trkpt>
      <trkpt lat="49.276921" lon="2.718431">
        <ele>107.423223</ele>
        <time>2021-11-04T17:56:18.459Z</time>
      </trkpt>
      <trkpt lat="49.277195" lon="2.718336">
        <ele>107.640086</ele>
        <time>2021-11-04T17:56:23.763Z</time>
      </trkpt>
      <trkpt lat="49.278285" lon="2.718431">
        <ele>108.961134</ele>
        <time>2021-11-04T17:56:45.450Z</time>
      </trkpt>
      <trkpt lat="49.279400" lon="2.718673">
        <ele>110.244203</ele>
        <time>2021-11-04T17:57:08.030Z</time>
      </trkpt>
      <trkpt lat="49.281584" lon="2.719732">
        <ele>112.496934</ele>
        <time>2021-11-04T17:57:50.532Z</time>
      </trkpt>
      <trkpt lat="49.282185" lon="2.719865">
        <ele>113.051639</ele>
        <time>2021-11-04T17:58:01.494Z</time>
      </trkpt>
      <trkpt lat="49.282266" lon="2.719876">
        <ele>113.125922</ele>
        <time>2021-11-04T17:58:02.992Z</time>
      </trkpt>
      <trkpt lat="49.283169" lon="2.720002">
        <ele>114.026856</ele>
        <time>2021-11-04T17:58:19.858Z</time>
      </trkpt>
      <trkpt lat="49.283465" lon="2.720043">
        <ele>114.327698</ele>
        <time>2021-11-04T17:58:25.541Z</time>
      </trkpt>
      <trkpt lat="49.285840" lon="2.720380">
        <ele>116.482190</ele>
        <time>2021-11-04T17:59:10.961Z</time>
      </trkpt>
      <trkpt lat="49.286606" lon="2.720503">
        <ele>116.129498</ele>
        <time>2021-11-04T17:59:22.428Z</time>
      </trkpt>
      <trkpt lat="49.286773" lon="2.720539">
        <ele>115.985256</ele>
        <time>2021-11-04T17:59:24.733Z</time>
      </trkpt>
      <trkpt lat="49.287114" lon="2.720611">
        <ele>115.690842</ele>
        <time>2021-11-04T17:59:29.257Z</time>
      </trkpt>
      <trkpt lat="49.287478" lon="2.720637">
        <ele>115.379171</ele>
        <time>2021-11-04T17:59:33.519Z</time>
      </trkpt>
      <trkpt lat="49.288684" lon="2.720552">
        <ele>112.399310</ele>
        <time>2021-11-04T17:59:46.206Z</time>
      </trkpt>
      <trkpt lat="49.288805" lon="2.720477">
        <ele>111.997819</ele>
        <time>2021-11-04T17:59:47.608Z</time>
      </trkpt>
      <trkpt lat="49.288831" lon="2.720431">
        <ele>111.875689</ele>
        <time>2021-11-04T17:59:47.979Z</time>
      </trkpt>
      <trkpt lat="49.289001" lon="2.720545">
        <ele>111.304896</ele>
        <time>2021-11-04T17:59:49.836Z</time>
      </trkpt>
      <trkpt lat="49.290294" lon="2.721268">
        <ele>107.421030</ele>
        <time>2021-11-04T18:00:03.317Z</time>
      </trkpt>
      <trkpt lat="49.291111" lon="2.721687">
        <ele>105.142990</ele>
        <time>2021-11-04T18:00:12.682Z</time>
      </trkpt>
      <trkpt lat="49.292005" lon="2.722143">
        <ele>105.495923</ele>
        <time>2021-11-04T18:00:25.909Z</time>
      </trkpt>
      <trkpt lat="49.292566" lon="2.722435">
        <ele>105.996313</ele>
        <time>2021-11-04T18:00:38.638Z</time>
      </trkpt>
      <trkpt lat="49.293221" lon="2.722778">
        <ele>106.932682</ele>
        <time>2021-11-04T18:00:55.710Z</time>
      </trkpt>
      <trkpt lat="49.293584" lon="2.722953">
        <ele>107.698494</ele>
        <time>2021-11-04T18:01:05.226Z</time>
      </trkpt>
      <trkpt lat="49.294212" lon="2.723175">
        <ele>108.995526</ele>
        <time>2021-11-04T18:01:20.231Z</time>
      </trkpt>
      <trkpt lat="49.294548" lon="2.723198">
        <ele>109.672415</ele>
        <time>2021-11-04T18:01:27.470Z</time>
      </trkpt>
      <trkpt lat="49.294816" lon="2.723135">
        <ele>109.978982</ele>
        <time>2021-11-04T18:01:33.008Z</time>
      </trkpt>
      <trkpt lat="49.295064" lon="2.723034">
        <ele>110.040958</ele>
        <time>2021-11-04T18:01:38.085Z</time>
      </trkpt>
      <trkpt lat="49.295245" lon="2.722937">
        <ele>110.087268</ele>
        <time>2021-11-04T18:01:41.336Z</time>
      </trkpt>
      <trkpt lat="49.298730" lon="2.720586">
        <ele>109.268693</ele>
        <time>2021-11-04T18:02:34.281Z</time>
      </trkpt>
      <trkpt lat="49.299356" lon="2.720154">
        <ele>108.717648</ele>
        <time>2021-11-04T18:02:42.513Z</time>
      </trkpt>
      <trkpt lat="49.299598" lon="2.719982">
        <ele>108.503538</ele>
        <time>2021-11-04T18:02:45.637Z</time>
      </trkpt>
      <trkpt lat="49.299973" lon="2.719689">
        <ele>107.892184</ele>
        <time>2021-11-04T18:02:50.603Z</time>
      </trkpt>
      <trkpt lat="49.300082" lon="2.719599">
        <ele>107.701005</ele>
        <time>2021-11-04T18:02:52.027Z</time>
      </trkpt>
      <trkpt lat="49.300202" lon="2.719483">
        <ele>107.481942</ele>
        <time>2021-11-04T18:02:53.631Z</time>
      </trkpt>
      <trkpt lat="49.300691" lon="2.718821">
        <ele>106.474613</ele>
        <time>2021-11-04T18:03:01.113Z</time>
      </trkpt>
      <trkpt lat="49.301101" lon="2.717993">
        <ele>105.420650</ele>
        <time>2021-11-04T18:03:08.735Z</time>
      </trkpt>
      <trkpt lat="49.301386" lon="2.717693">
        <ele>104.872265</ele>
        <time>2021-11-04T18:03:12.575Z</time>
      </trkpt>
      <trkpt lat="49.301584" lon="2.717631">
        <ele>104.551677</ele>
        <time>2021-11-04T18:03:14.854Z</time>
      </trkpt>
      <trkpt lat="49.301853" lon="2.717728">
        <ele>104.113297</ele>
        <time>2021-11-04T18:03:17.977Z</time>
      </trkpt>
      <trkpt lat="49.302006" lon="2.717874">
        <ele>103.827425</ele>
        <time>2021-11-04T18:03:20.000Z</time>
      </trkpt>
      <trkpt lat="49.302162" lon="2.718191">
        <ele>103.416601</ele>
        <time>2021-11-04T18:03:22.971Z</time>
      </trkpt>
      <trkpt lat="49.302205" lon="2.718470">
        <ele>103.120039</ele>
        <time>2021-11-04T18:03:25.145Z</time>
      </trkpt>
      <trkpt lat="49.302160" lon="2.718923">
        <ele>102.674496</ele>
        <time>2021-11-04T18:03:28.635Z</time>
      </trkpt>
      <trkpt lat="49.301838" lon="2.719756">
        <ele>101.827164</ele>
        <time>2021-11-04T18:03:36.229Z</time>
      </trkpt>
      <trkpt lat="49.301671" lon="2.720746">
        <ele>100.932384</ele>
        <time>2021-11-04T18:03:44.282Z</time>
      </trkpt>
      <trkpt lat="49.301225" lon="2.721504">
        <ele>99.348964</ele>
        <time>2021-11-04T18:03:51.835Z</time>
      </trkpt>
      <trkpt lat="49.301168" lon="2.722026">
        <ele>98.040660</ele>
        <time>2021-11-04T18:03:55.526Z</time>
      </trkpt>
      <trkpt lat="49.301270" lon="2.722387">
        <ele>97.068130</ele>
        <time>2021-11-04T18:03:58.175Z</time>
      </trkpt>
      <trkpt lat="49.302199" lon="2.724123">
        <ele>89.510247</ele>
        <time>2021-11-04T18:04:11.870Z</time>
      </trkpt>
      <trkpt lat="49.302279" lon="2.724472">
        <ele>87.714471</ele>
        <time>2021-11-04T18:04:14.014Z</time>
      </trkpt>
      <trkpt lat="49.302267" lon="2.724884">
        <ele>85.712514</ele>
        <time>2021-11-04T18:04:16.390Z</time>
      </trkpt>
      <trkpt lat="49.302201" lon="2.725245">
        <ele>83.892541</ele>
        <time>2021-11-04T18:04:18.550Z</time>
      </trkpt>
      <trkpt lat="49.301728" lon="2.726144">
        <ele>77.590691</ele>
        <time>2021-11-04T18:04:25.125Z</time>
      </trkpt>
      <trkpt lat="49.301727" lon="2.726661">
        <ele>74.175173</ele>
        <time>2021-11-04T18:04:27.998Z</time>
      </trkpt>
      <trkpt lat="49.301847" lon="2.726900">
        <ele>72.182418</ele>
        <time>2021-11-04T18:04:29.672Z</time>
      </trkpt>
      <trkpt lat="49.302080" lon="2.727045">
        <ele>69.634862</ele>
        <time>2021-11-04T18:04:31.831Z</time>
      </trkpt>
      <trkpt lat="49.302305" lon="2.727011">
        <ele>67.344275</ele>
        <time>2021-11-04T18:04:33.764Z</time>
      </trkpt>
      <trkpt lat="49.302476" lon="2.726847">
        <ele>65.300936</ele>
        <time>2021-11-04T18:04:35.477Z</time>
      </trkpt>
      <trkpt lat="49.302692" lon="2.726564">
        <ele>62.422698</ele>
        <time>2021-11-04T18:04:37.934Z</time>
      </trkpt>
      <trkpt lat="49.302765" lon="2.726482">
        <ele>61.604566</ele>
        <time>2021-11-04T18:04:38.698Z</time>
      </trkpt>
      <trkpt lat="49.303064" lon="2.726329">
        <ele>59.066744</ele>
        <time>2021-11-04T18:04:41.439Z</time>
      </trkpt>
      <trkpt lat="49.303290" lon="2.726438">
        <ele>57.159280</ele>
        <time>2021-11-04T18:04:43.506Z</time>
      </trkpt>
      <trkpt lat="49.303740" lon="2.726765">
        <ele>53.150041</ele>
        <time>2021-11-04T18:04:47.843Z</time>
      </trkpt>
      <trkpt lat="49.304232" lon="2.727111">
        <ele>48.792167</ele>
        <time>2021-11-04T18:04:52.689Z</time>
      </trkpt>
      <trkpt lat="49.304337" lon="2.727177">
        <ele>47.878526</ele>
        <time>2021-11-04T18:04:53.759Z</time>
      </trkpt>
      <trkpt lat="49.304725" lon="2.727412">
        <ele>46.275851</ele>
        <time>2021-11-04T18:04:57.708Z</time>
      </trkpt>
      <trkpt lat="49.305416" lon="2.727889">
        <ele>43.763936</ele>
        <time>2021-11-04T18:05:05.357Z</time>
      </trkpt>
      <trkpt lat="49.305887" lon="2.728355">
        <ele>41.905941</ele>
        <time>2021-11-04T18:05:11.412Z</time>
      </trkpt>
      <trkpt lat="49.306070" lon="2.728529">
        <ele>41.450625</ele>
        <time>2021-11-04T18:05:13.905Z</time>
      </trkpt>
      <trkpt lat="49.306693" lon="2.729086">
        <ele>40.823448</ele>
        <time>2021-11-04T18:05:22.623Z</time>
      </trkpt>
      <trkpt lat="49.306742" lon="2.729115">
        <ele>40.777769</ele>
        <time>2021-11-04T18:05:23.268Z</time>
      </trkpt>
      <trkpt lat="49.306790" lon="2.729141">
        <ele>40.733495</ele>
        <time>2021-11-04T18:05:23.860Z</time>
      </trkpt>
      <trkpt lat="49.307208" lon="2.729271">
        <ele>40.362554</ele>
        <time>2021-11-04T18:05:29.416Z</time>
      </trkpt>
      <trkpt lat="49.307865" lon="2.729113">
        <ele>39.914057</ele>
        <time>2021-11-04T18:05:38.931Z</time>
      </trkpt>
      <trkpt lat="49.307928" lon="2.729097">
        <ele>39.895692</ele>
        <time>2021-11-04T18:05:39.802Z</time>
      </trkpt>
      <trkpt lat="49.307977" lon="2.729085">
        <ele>39.881421</ele>
        <time>2021-11-04T18:05:40.549Z</time>
      </trkpt>
      <trkpt lat="49.307996" lon="2.729333">
        <ele>39.834598</ele>
        <time>2021-11-04T18:05:43.803Z</time>
      </trkpt>
      <trkpt lat="49.308079" lon="2.730388">
        <ele>39.635338</ele>
        <time>2021-11-04T18:05:57.406Z</time>
      </trkpt>
      <trkpt lat="49.308161" lon="2.731137">
        <ele>39.492925</ele>
        <time>2021-11-04T18:06:06.852Z</time>
      </trkpt>
      <trkpt lat="49.308179" lon="2.731412">
        <ele>39.413548</ele>
        <time>2021-11-04T18:06:10.131Z</time>
      </trkpt>
      <trkpt lat="49.308199" lon="2.732077">
        <ele>39.115385</ele>
        <time>2021-11-04T18:06:17.862Z</time>
      </trkpt>
      <trkpt lat="49.308202" lon="2.732165">
        <ele>39.075917</ele>
        <time>2021-11-04T18:06:18.886Z</time>
      </trkpt>
      <trkpt lat="49.308214" lon="2.732847">
        <ele>38.770347</ele>
        <time>2021-11-04T18:06:26.775Z</time>
      </trkpt>
      <trkpt lat="49.308246" lon="2.733124">
        <ele>38.644349</ele>
        <time>2021-11-04T18:06:30.060Z</time>
      </trkpt>
      <trkpt lat="49.308503" lon="2.733464">
        <ele>38.411200</ele>
        <time>2021-11-04T18:06:36.130Z</time>
      </trkpt>
      <trkpt lat="49.308690" lon="2.733718">
        <ele>38.239607</ele>
        <time>2021-11-04T18:06:40.628Z</time>
      </trkpt>
      <trkpt lat="49.308810" lon="2.733883">
        <ele>38.177384</ele>
        <time>2021-11-04T18:06:43.606Z</time>
      </trkpt>
      <trkpt lat="49.309590" lon="2.734949">
        <ele>37.820469</ele>
        <time>2021-11-04T18:07:02.967Z</time>
      </trkpt>
      <trkpt lat="49.310595" lon="2.736325">
        <ele>37.399981</ele>
        <time>2021-11-04T18:07:30.423Z</time>
      </trkpt>
      <trkpt lat="49.310695" lon="2.736462">
        <ele>37.361439</ele>
        <time>2021-11-04T18:07:33.022Z</time>
      </trkpt>
      <trkpt lat="49.310719" lon="2.736495">
        <ele>37.352174</ele>
        <time>2021-11-04T18:07:33.686Z</time>
      </trkpt>
      <trkpt lat="49.310713" lon="2.737220">
        <ele>37.216292</ele>
        <time>2021-11-04T18:07:40.175Z</time>
      </trkpt>
      <trkpt lat="49.310767" lon="2.737766">
        <ele>37.112797</ele>
        <time>2021-11-04T18:07:44.894Z</time>
      </trkpt>
      <trkpt lat="49.310849" lon="2.738347">
        <ele>36.812720</ele>
        <time>2021-11-04T18:07:49.777Z</time>
      </trkpt>
      <trkpt lat="49.310934" lon="2.738911">
        <ele>36.482841</ele>
        <time>2021-11-04T18:07:54.424Z</time>
      </trkpt>
      <trkpt lat="49.311157" lon="2.739727">
        <ele>35.978633</ele>
        <time>2021-11-04T18:08:01.473Z</time>
      </trkpt>
      <trkpt lat="49.311213" lon="2.739920">
        <ele>35.858250</ele>
        <time>2021-11-04T18:08:03.096Z</time>
      </trkpt>
      <trkpt lat="49.311467" lon="2.740795">
        <ele>35.412475</ele>
        <time>2021-11-04T18:08:10.851Z</time>
      </trkpt>
      <trkpt lat="49.311613" lon="2.741479">
        <ele>35.198434</ele>
        <time>2021-11-04T18:08:16.886Z</time>
      </trkpt>
      <trkpt lat="49.311651" lon="2.741861">
        <ele>35.083516</ele>
        <time>2021-11-04T18:08:20.216Z</time>
      </trkpt>
      <trkpt lat="49.311669" lon="2.742690">
        <ele>34.836842</ele>
        <time>2021-11-04T18:08:27.675Z</time>
      </trkpt>
      <trkpt lat="49.311663" lon="2.742983">
        <ele>34.749663</ele>
        <time>2021-11-04T18:08:30.403Z</time>
      </trkpt>
      <trkpt lat="49.311646" lon="2.743357">
        <ele>34.727944</ele>
        <time>2021-11-04T18:08:34.065Z</time>
      </trkpt>
      <trkpt lat="49.310961" lon="2.747769">
        <ele>35.513592</ele>
        <time>2021-11-04T18:09:20.882Z</time>
      </trkpt>
      <trkpt lat="49.310871" lon="2.748161">
        <ele>35.610641</ele>
        <time>2021-11-04T18:09:25.436Z</time>
      </trkpt>
      <trkpt lat="49.310702" lon="2.748678">
        <ele>35.814742</ele>
        <time>2021-11-04T18:09:31.884Z</time>
      </trkpt>
      <trkpt lat="49.310257" lon="2.749561">
        <ele>36.420075</ele>
        <time>2021-11-04T18:09:44.871Z</time>
      </trkpt>
      <trkpt lat="49.309298" lon="2.750811">
        <ele>37.571963</ele>
        <time>2021-11-04T18:10:08.499Z</time>
      </trkpt>
      <trkpt lat="49.308985" lon="2.751155">
        <ele>38.013513</ele>
        <time>2021-11-04T18:10:15.819Z</time>
      </trkpt>
      <trkpt lat="49.308282" lon="2.751642">
        <ele>38.898059</ele>
        <time>2021-11-04T18:10:30.211Z</time>
      </trkpt>
      <trkpt lat="49.308083" lon="2.751857">
        <ele>39.177185</ele>
        <time>2021-11-04T18:10:35.153Z</time>
      </trkpt>
      <trkpt lat="49.308040" lon="2.751946">
        <ele>39.271096</ele>
        <time>2021-11-04T18:10:36.836Z</time>
      </trkpt>
      <trkpt lat="49.307981" lon="2.752069">
        <ele>39.550985</ele>
        <time>2021-11-04T18:10:38.846Z</time>
      </trkpt>
      <trkpt lat="49.307888" lon="2.752327">
        <ele>40.091338</ele>
        <time>2021-11-04T18:10:43.070Z</time>
      </trkpt>
      <trkpt lat="49.307811" lon="2.752764">
        <ele>40.921060</ele>
        <time>2021-11-04T18:10:49.795Z</time>
      </trkpt>
      <trkpt lat="49.307773" lon="2.753048">
        <ele>41.452459</ele>
        <time>2021-11-04T18:10:54.258Z</time>
      </trkpt>
      <trkpt lat="49.306958" lon="2.759879">
        <ele>53.587434</ele>
        <time>2021-11-04T18:12:57.754Z</time>
      </trkpt>
      <trkpt lat="49.306926" lon="2.760149">
        <ele>53.748638</ele>
        <time>2021-11-04T18:12:59.962Z</time>
      </trkpt>
      <trkpt lat="49.306758" lon="2.761578">
        <ele>53.245153</ele>
        <time>2021-11-04T18:13:11.092Z</time>
      </trkpt>
      <trkpt lat="49.306663" lon="2.762349">
        <ele>52.973083</ele>
        <time>2021-11-04T18:13:17.102Z</time>
      </trkpt>
      <trkpt lat="49.306520" lon="2.763426">
        <ele>53.311687</ele>
        <time>2021-11-04T18:13:27.691Z</time>
      </trkpt>
      <trkpt lat="49.306416" lon="2.764292">
        <ele>53.886100</ele>
        <time>2021-11-04T18:13:39.705Z</time>
      </trkpt>
      <trkpt lat="49.306393" lon="2.764515">
        <ele>54.033377</ele>
        <time>2021-11-04T18:13:41.877Z</time>
      </trkpt>
      <trkpt lat="49.306382" lon="2.764605">
        <ele>54.093109</ele>
        <time>2021-11-04T18:13:44.247Z</time>
      </trkpt>
      <trkpt lat="49.306377" lon="2.764694">
        <ele>54.151381</ele>
        <time>2021-11-04T18:13:45.988Z</time>
      </trkpt>
      <trkpt lat="49.306309" lon="2.765413">
        <ele>54.625310</ele>
        <time>2021-11-04T18:13:56.050Z</time>
      </trkpt>
      <trkpt lat="49.306341" lon="2.765798">
        <ele>54.521550</ele>
        <time>2021-11-04T18:14:01.700Z</time>
      </trkpt>
      <trkpt lat="49.306455" lon="2.766589">
        <ele>54.254882</ele>
        <time>2021-11-04T18:14:09.488Z</time>
      </trkpt>
      <trkpt lat="49.306354" lon="2.767463">
        <ele>53.962694</ele>
        <time>2021-11-04T18:14:16.881Z</time>
      </trkpt>
      <trkpt lat="49.306334" lon="2.767767">
        <ele>53.862114</ele>
        <time>2021-11-04T18:14:18.977Z</time>
      </trkpt>
      <trkpt lat="49.306274" lon="2.768548">
        <ele>53.376221</ele>
        <time>2021-11-04T18:14:24.462Z</time>
      </trkpt>
      <trkpt lat="49.306169" lon="2.769145">
        <ele>52.817044</ele>
        <time>2021-11-04T18:14:28.804Z</time>
      </trkpt>
      <trkpt lat="49.306164" lon="2.769175">
        <ele>52.789042</ele>
        <time>2021-11-04T18:14:29.023Z</time>
      </trkpt>
      <trkpt lat="49.306118" lon="2.769511">
        <ele>52.478564</ele>
        <time>2021-11-04T18:14:31.491Z</time>
      </trkpt>
      <trkpt lat="49.306097" lon="2.769670">
        <ele>52.331856</ele>
        <time>2021-11-04T18:14:32.726Z</time>
      </trkpt>
      <trkpt lat="49.306054" lon="2.769994">
        <ele>52.032846</ele>
        <time>2021-11-04T18:14:35.176Z</time>
      </trkpt>
      <trkpt lat="49.305869" lon="2.770500">
        <ele>51.508227</ele>
        <time>2021-11-04T18:14:40.035Z</time>
      </trkpt>
      <trkpt lat="49.305580" lon="2.771142">
        <ele>51.298449</ele>
        <time>2021-11-04T18:14:47.654Z</time>
      </trkpt>
      <trkpt lat="49.305501" lon="2.771275">
        <ele>51.320819</ele>
        <time>2021-11-04T18:14:49.718Z</time>
      </trkpt>
      <trkpt lat="49.305041" lon="2.772040">
        <ele>51.450209</ele>
        <time>2021-11-04T18:15:00.080Z</time>
      </trkpt>
      <trkpt lat="49.304599" lon="2.772668">
        <ele>51.565105</ele>
        <time>2021-11-04T18:15:09.595Z</time>
      </trkpt>
      <trkpt lat="49.304533" lon="2.772880">
        <ele>51.611344</ele>
        <time>2021-11-04T18:15:12.581Z</time>
      </trkpt>
      <trkpt lat="49.304493" lon="2.773008">
        <ele>51.652473</ele>
        <time>2021-11-04T18:15:14.024Z</time>
      </trkpt>
      <trkpt lat="49.304207" lon="2.773921">
        <ele>51.945975</ele>
        <time>2021-11-04T18:15:26.380Z</time>
      </trkpt>
      <trkpt lat="49.303741" lon="2.774598">
        <ele>52.231229</ele>
        <time>2021-11-04T18:15:36.939Z</time>
      </trkpt>
      <trkpt lat="49.303462" lon="2.774926">
        <ele>52.370704</ele>
        <time>2021-11-04T18:15:41.953Z</time>
      </trkpt>
      <trkpt lat="49.303417" lon="2.774996">
        <ele>52.327178</ele>
        <time>2021-11-04T18:15:42.933Z</time>
      </trkpt>
      <trkpt lat="49.303301" lon="2.775296">
        <ele>52.172741</ele>
        <time>2021-11-04T18:15:46.277Z</time>
      </trkpt>
      <trkpt lat="49.303232" lon="2.775629">
        <ele>52.018026</ele>
        <time>2021-11-04T18:15:49.555Z</time>
      </trkpt>
      <trkpt lat="49.303331" lon="2.777109">
        <ele>51.359256</ele>
        <time>2021-11-04T18:16:02.458Z</time>
      </trkpt>
      <trkpt lat="49.303299" lon="2.777642">
        <ele>51.057204</ele>
        <time>2021-11-04T18:16:06.347Z</time>
      </trkpt>
      <trkpt lat="49.303040" lon="2.778782">
        <ele>49.587299</ele>
        <time>2021-11-04T18:16:14.850Z</time>
      </trkpt>
      <trkpt lat="49.302834" lon="2.779435">
        <ele>48.704040</ele>
        <time>2021-11-04T18:16:20.019Z</time>
      </trkpt>
      <trkpt lat="49.302665" lon="2.780076">
        <ele>47.862168</ele>
        <time>2021-11-04T18:16:25.044Z</time>
      </trkpt>
      <trkpt lat="49.302577" lon="2.780412">
        <ele>47.511960</ele>
        <time>2021-11-04T18:16:27.876Z</time>
      </trkpt>
      <trkpt lat="49.302457" lon="2.781084">
        <ele>46.866304</ele>
        <time>2021-11-04T18:16:32.969Z</time>
      </trkpt>
      <trkpt lat="49.302435" lon="2.781560">
        <ele>46.424098</ele>
        <time>2021-11-04T18:16:36.455Z</time>
      </trkpt>
      <trkpt lat="49.302479" lon="2.781924">
        <ele>46.081040</ele>
        <time>2021-11-04T18:16:39.260Z</time>
      </trkpt>
      <trkpt lat="49.302676" lon="2.782743">
        <ele>45.272101</ele>
        <time>2021-11-04T18:16:46.307Z</time>
      </trkpt>
      <trkpt lat="49.302772" lon="2.783023">
        <ele>45.098262</ele>
        <time>2021-11-04T18:16:48.788Z</time>
      </trkpt>
      <trkpt lat="49.302930" lon="2.783347">
        <ele>44.891698</ele>
        <time>2021-11-04T18:16:52.014Z</time>
      </trkpt>
      <trkpt lat="49.303037" lon="2.783494">
        <ele>44.779218</ele>
        <time>2021-11-04T18:16:53.827Z</time>
      </trkpt>
      <trkpt lat="49.303067" lon="2.783535">
        <ele>44.747755</ele>
        <time>2021-11-04T18:16:54.345Z</time>
      </trkpt>
      <trkpt lat="49.303313" lon="2.783868">
        <ele>44.490839</ele>
        <time>2021-11-04T18:16:58.405Z</time>
      </trkpt>
      <trkpt lat="49.303816" lon="2.784451">
        <ele>43.997171</ele>
        <time>2021-11-04T18:17:06.256Z</time>
      </trkpt>
      <trkpt lat="49.304008" lon="2.784973">
        <ele>43.843074</ele>
        <time>2021-11-04T18:17:11.367Z</time>
      </trkpt>
      <trkpt lat="49.304184" lon="2.785695">
        <ele>43.861349</ele>
        <time>2021-11-04T18:17:19.295Z</time>
      </trkpt>
      <trkpt lat="49.304228" lon="2.786392">
        <ele>43.877951</ele>
        <time>2021-11-04T18:17:26.916Z</time>
      </trkpt>
      <trkpt lat="49.304204" lon="2.787112">
        <ele>43.895043</ele>
        <time>2021-11-04T18:17:34.345Z</time>
      </trkpt>
      <trkpt lat="49.304184" lon="2.787480">
        <ele>43.891420</ele>
        <time>2021-11-04T18:17:37.811Z</time>
      </trkpt>
      <trkpt lat="49.304135" lon="2.788439">
        <ele>43.777526</ele>
        <time>2021-11-04T18:17:46.534Z</time>
      </trkpt>
      <trkpt lat="49.304160" lon="2.789166">
        <ele>43.691328</ele>
        <time>2021-11-04T18:17:52.791Z</time>
      </trkpt>
      <trkpt lat="49.304293" lon="2.790376">
        <ele>43.727789</ele>
        <time>2021-11-04T18:18:04.063Z</time>
      </trkpt>
      <trkpt lat="49.304403" lon="2.791366">
        <ele>44.351894</ele>
        <time>2021-11-04T18:18:15.400Z</time>
      </trkpt>
      <trkpt lat="49.304515" lon="2.792382">
        <ele>44.992247</ele>
        <time>2021-11-04T18:18:28.713Z</time>
      </trkpt>
      <trkpt lat="49.304524" lon="2.792466">
        <ele>45.045149</ele>
        <time>2021-11-04T18:18:29.937Z</time>
      </trkpt>
      <trkpt lat="49.304566" lon="2.792849">
        <ele>45.286506</ele>
        <time>2021-11-04T18:18:35.454Z</time>
      </trkpt>
      <trkpt lat="49.304591" lon="2.793071">
        <ele>45.520170</ele>
        <time>2021-11-04T18:18:38.845Z</time>
      </trkpt>
      <trkpt lat="49.304709" lon="2.794142">
        <ele>46.656237</ele>
        <time>2021-11-04T18:18:55.143Z</time>
      </trkpt>
      <trkpt lat="49.304749" lon="2.794700">
        <ele>47.243379</ele>
        <time>2021-11-04T18:19:03.232Z</time>
      </trkpt>
      <trkpt lat="49.304697" lon="2.795180">
        <ele>47.752305</ele>
        <time>2021-11-04T18:19:09.856Z</time>
      </trkpt>
      <trkpt lat="49.304588" lon="2.795514">
        <ele>48.142958</ele>
        <time>2021-11-04T18:19:14.541Z</time>
      </trkpt>
      <trkpt lat="49.304422" lon="2.795821">
        <ele>48.229626</ele>
        <time>2021-11-04T18:19:19.298Z</time>
      </trkpt>
      <trkpt lat="49.302693" lon="2.797690">
        <ele>48.572492</ele>
        <time>2021-11-04T18:19:50.782Z</time>
      </trkpt>
      <trkpt lat="49.302675" lon="2.797723">
        <ele>48.571783</ele>
        <time>2021-11-04T18:19:51.078Z</time>
      </trkpt>
      <trkpt lat="49.302299" lon="2.798383">
        <ele>48.557356</ele>
        <time>2021-11-04T18:19:59.890Z</time>
      </trkpt>
      <trkpt lat="49.302001" lon="2.799149">
        <ele>48.542672</ele>
        <time>2021-11-04T18:20:08.315Z</time>
      </trkpt>
      <trkpt lat="49.301763" lon="2.799899">
        <ele>48.236985</ele>
        <time>2021-11-04T18:20:16.140Z</time>
      </trkpt>
      <trkpt lat="49.301681" lon="2.800325">
        <ele>48.054758</ele>
        <time>2021-11-04T18:20:20.087Z</time>
      </trkpt>
      <trkpt lat="49.301672" lon="2.800617">
        <ele>47.934828</ele>
        <time>2021-11-04T18:20:22.744Z</time>
      </trkpt>
      <trkpt lat="49.301554" lon="2.800646">
        <ele>47.859639</ele>
        <time>2021-11-04T18:20:24.134Z</time>
      </trkpt>
      <trkpt lat="49.300652" lon="2.800528">
        <ele>47.137534</ele>
        <time>2021-11-04T18:20:35.207Z</time>
      </trkpt>
      <trkpt lat="49.300274" lon="2.800675">
        <ele>46.578824</ele>
        <time>2021-11-04T18:20:39.744Z</time>
      </trkpt>
      <trkpt lat="49.300274" lon="2.800675">
        <ele>46.578824</ele>
        <time>2021-11-04T18:20:39.747Z</time>
      </trkpt>
      <trkpt lat="49.300022" lon="2.800724">
        <ele>46.214887</ele>
        <time>2021-11-04T18:20:42.609Z</time>
      </trkpt>
      <trkpt lat="49.299563" lon="2.800844">
        <ele>45.547781</ele>
        <time>2021-11-04T18:20:47.926Z</time>
      </trkpt>
      <trkpt lat="49.299535" lon="2.800853">
        <ele>45.506793</ele>
        <time>2021-11-04T18:20:48.239Z</time>
      </trkpt>
      <trkpt lat="49.299180" lon="2.801064">
        <ele>44.961310</ele>
        <time>2021-11-04T18:20:52.580Z</time>
      </trkpt>
      <trkpt lat="49.299159" lon="2.801065">
        <ele>44.931208</ele>
        <time>2021-11-04T18:20:52.810Z</time>
      </trkpt>
      <trkpt lat="49.299096" lon="2.801047">
        <ele>44.839393</ele>
        <time>2021-11-04T18:20:53.543Z</time>
      </trkpt>
      <trkpt lat="49.298940" lon="2.801164">
        <ele>44.764142</ele>
        <time>2021-11-04T18:20:55.669Z</time>
      </trkpt>
      <trkpt lat="49.298817" lon="2.801256">
        <ele>44.708705</ele>
        <time>2021-11-04T18:20:57.227Z</time>
      </trkpt>
      <trkpt lat="49.298620" lon="2.801563">
        <ele>44.594928</ele>
        <time>2021-11-04T18:21:00.828Z</time>
      </trkpt>
      <trkpt lat="49.298545" lon="2.801685">
        <ele>44.550637</ele>
        <time>2021-11-04T18:21:02.148Z</time>
      </trkpt>
      <trkpt lat="49.298106" lon="2.802405">
        <ele>44.290253</ele>
        <time>2021-11-04T18:21:11.075Z</time>
      </trkpt>
      <trkpt lat="49.297984" lon="2.802741">
        <ele>44.188662</ele>
        <time>2021-11-04T18:21:14.717Z</time>
      </trkpt>
      <trkpt lat="49.297909" lon="2.803103">
        <ele>44.162315</ele>
        <time>2021-11-04T18:21:18.928Z</time>
      </trkpt>
      <trkpt lat="49.297874" lon="2.803663">
        <ele>44.717391</ele>
        <time>2021-11-04T18:21:25.740Z</time>
      </trkpt>
      <trkpt lat="49.297954" lon="2.804415">
        <ele>45.469188</ele>
        <time>2021-11-04T18:21:35.682Z</time>
      </trkpt>
      <trkpt lat="49.297919" lon="2.804916">
        <ele>45.966345</ele>
        <time>2021-11-04T18:21:42.550Z</time>
      </trkpt>
      <trkpt lat="49.297890" lon="2.805325">
        <ele>46.372278</ele>
        <time>2021-11-04T18:21:48.578Z</time>
      </trkpt>
      <trkpt lat="49.297943" lon="2.805460">
        <ele>46.527757</ele>
        <time>2021-11-04T18:21:50.680Z</time>
      </trkpt>
      <trkpt lat="49.297950" lon="2.805487">
        <ele>46.556425</ele>
        <time>2021-11-04T18:21:51.266Z</time>
      </trkpt>
      <trkpt lat="49.298034" lon="2.805740">
        <ele>46.843728</ele>
        <time>2021-11-04T18:21:55.995Z</time>
      </trkpt>
      <trkpt lat="49.298201" lon="2.806244">
        <ele>47.759176</ele>
        <time>2021-11-04T18:22:05.483Z</time>
      </trkpt>
      <trkpt lat="49.298139" lon="2.806756">
        <ele>48.602440</ele>
        <time>2021-11-04T18:22:14.855Z</time>
      </trkpt>
      <trkpt lat="49.298043" lon="2.807555">
        <ele>49.918054</ele>
        <time>2021-11-04T18:22:29.888Z</time>
      </trkpt>
      <trkpt lat="49.298030" lon="2.807660">
        <ele>50.091121</ele>
        <time>2021-11-04T18:22:31.963Z</time>
      </trkpt>
      <trkpt lat="49.296839" lon="2.808345">
        <ele>51.282959</ele>
        <time>2021-11-04T18:22:57.391Z</time>
      </trkpt>
      <trkpt lat="49.296085" lon="2.808536">
        <ele>51.274534</ele>
        <time>2021-11-04T18:23:07.242Z</time>
      </trkpt>
      <trkpt lat="49.295850" lon="2.808774">
        <ele>51.211287</ele>
        <time>2021-11-04T18:23:10.463Z</time>
      </trkpt>
      <trkpt lat="49.295717" lon="2.809315">
        <ele>50.572887</ele>
        <time>2021-11-04T18:23:14.548Z</time>
      </trkpt>
      <trkpt lat="49.295691" lon="2.809805">
        <ele>50.030048</ele>
        <time>2021-11-04T18:23:17.860Z</time>
      </trkpt>
      <trkpt lat="49.295636" lon="2.810102">
        <ele>49.689139</ele>
        <time>2021-11-04T18:23:19.987Z</time>
      </trkpt>
      <trkpt lat="49.295290" lon="2.811998">
        <ele>48.065167</ele>
        <time>2021-11-04T18:23:35.103Z</time>
      </trkpt>
      <trkpt lat="49.295130" lon="2.813309">
        <ele>47.731181</ele>
        <time>2021-11-04T18:23:47.266Z</time>
      </trkpt>
      <trkpt lat="49.295099" lon="2.813545">
        <ele>47.670898</ele>
        <time>2021-11-04T18:23:49.650Z</time>
      </trkpt>
      <trkpt lat="49.294969" lon="2.814693">
        <ele>48.143653</ele>
        <time>2021-11-04T18:24:01.588Z</time>
      </trkpt>
      <trkpt lat="49.294965" lon="2.814732">
        <ele>48.181991</ele>
        <time>2021-11-04T18:24:01.967Z</time>
      </trkpt>
      <trkpt lat="49.294954" lon="2.814841">
        <ele>48.289100</ele>
        <time>2021-11-04T18:24:02.975Z</time>
      </trkpt>
      <trkpt lat="49.294939" lon="2.814969">
        <ele>48.415391</ele>
        <time>2021-11-04T18:24:04.399Z</time>
      </trkpt>
      <trkpt lat="49.294813" lon="2.816063">
        <ele>49.494210</ele>
        <time>2021-11-04T18:24:18.397Z</time>
      </trkpt>
      <trkpt lat="49.294780" lon="2.816379">
        <ele>49.804986</ele>
        <time>2021-11-04T18:24:23.178Z</time>
      </trkpt>
      <trkpt lat="49.295064" lon="2.817081">
        <ele>51.832413</ele>
        <time>2021-11-04T18:24:41.576Z</time>
      </trkpt>
      <trkpt lat="49.295091" lon="2.817133">
        <ele>52.098129</ele>
        <time>2021-11-04T18:24:43.207Z</time>
      </trkpt>
      <trkpt lat="49.295159" lon="2.817264">
        <ele>52.767456</ele>
        <time>2021-11-04T18:24:47.739Z</time>
      </trkpt>
      <trkpt lat="49.295719" lon="2.817907">
        <ele>57.055900</ele>
        <time>2021-11-04T18:25:18.563Z</time>
      </trkpt>
      <trkpt lat="49.295973" lon="2.818223">
        <ele>59.060880</ele>
        <time>2021-11-04T18:25:35.019Z</time>
      </trkpt>
      <trkpt lat="49.296240" lon="2.818463">
        <ele>60.958021</ele>
        <time>2021-11-04T18:25:52.093Z</time>
      </trkpt>
      <trkpt lat="49.296411" lon="2.818617">
        <ele>62.167211</ele>
        <time>2021-11-04T18:26:03.209Z</time>
      </trkpt>
      <trkpt lat="49.296723" lon="2.819019">
        <ele>64.648066</ele>
        <time>2021-11-04T18:26:24.663Z</time>
      </trkpt>
      <trkpt lat="49.296834" lon="2.819187">
        <ele>65.597517</ele>
        <time>2021-11-04T18:26:32.928Z</time>
      </trkpt>
      <trkpt lat="49.297127" lon="2.819631">
        <ele>68.105228</ele>
        <time>2021-11-04T18:26:52.299Z</time>
      </trkpt>
      <trkpt lat="49.297374" lon="2.820001">
        <ele>70.207285</ele>
        <time>2021-11-04T18:27:07.353Z</time>
      </trkpt>
      <trkpt lat="49.297711" lon="2.820507">
        <ele>72.291996</ele>
        <time>2021-11-04T18:27:22.902Z</time>
      </trkpt>
      <trkpt lat="49.299731" lon="2.823753">
        <ele>75.117647</ele>
        <time>2021-11-04T18:28:22.323Z</time>
      </trkpt>
      <trkpt lat="49.300002" lon="2.824239">
        <ele>75.661610</ele>
        <time>2021-11-04T18:28:36.443Z</time>
      </trkpt>
      <trkpt lat="49.300241" lon="2.824806">
        <ele>77.865090</ele>
        <time>2021-11-04T18:28:53.084Z</time>
      </trkpt>
      <trkpt lat="49.300279" lon="2.824912">
        <ele>78.355038</ele>
        <time>2021-11-04T18:28:56.611Z</time>
      </trkpt>
      <trkpt lat="49.300488" lon="2.825503">
        <ele>81.078186</ele>
        <time>2021-11-04T18:29:15.544Z</time>
      </trkpt>
      <trkpt lat="49.300653" lon="2.826040">
        <ele>83.482617</ele>
        <time>2021-11-04T18:29:32.087Z</time>
      </trkpt>
      <trkpt lat="49.301058" lon="2.827417">
        <ele>90.207735</ele>
        <time>2021-11-04T18:30:17.921Z</time>
      </trkpt>
      <trkpt lat="49.301409" lon="2.828421">
        <ele>95.887769</ele>
        <time>2021-11-04T18:30:52.188Z</time>
      </trkpt>
      <trkpt lat="49.301898" lon="2.829066">
        <ele>100.804398</ele>
        <time>2021-11-04T18:31:20.920Z</time>
      </trkpt>
      <trkpt lat="49.302478" lon="2.830181">
        <ele>106.737551</ele>
        <time>2021-11-04T18:32:01.172Z</time>
      </trkpt>
      <trkpt lat="49.302634" lon="2.830906">
        <ele>109.913310</ele>
        <time>2021-11-04T18:32:20.738Z</time>
      </trkpt>
      <trkpt lat="49.302799" lon="2.832012">
        <ele>113.481248</ele>
        <time>2021-11-04T18:32:46.655Z</time>
      </trkpt>
      <trkpt lat="49.302913" lon="2.832723">
        <ele>115.084036</ele>
        <time>2021-11-04T18:33:00.858Z</time>
      </trkpt>
      <trkpt lat="49.302991" lon="2.833266">
        <ele>116.301196</ele>
        <time>2021-11-04T18:33:10.637Z</time>
      </trkpt>
      <trkpt lat="49.303005" lon="2.833860">
        <ele>117.602346</ele>
        <time>2021-11-04T18:33:20.121Z</time>
      </trkpt>
      <trkpt lat="49.303284" lon="2.835686">
        <ele>119.540058</ele>
        <time>2021-11-04T18:33:45.492Z</time>
      </trkpt>
      <trkpt lat="49.303459" lon="2.836715">
        <ele>120.412619</ele>
        <time>2021-11-04T18:33:58.322Z</time>
      </trkpt>
      <trkpt lat="49.303781" lon="2.838711">
        <ele>121.007766</ele>
        <time>2021-11-04T18:34:20.066Z</time>
      </trkpt>
      <trkpt lat="49.304061" lon="2.839762">
        <ele>121.319893</ele>
        <time>2021-11-04T18:34:31.809Z</time>
      </trkpt>
      <trkpt lat="49.305942" lon="2.844439">
        <ele>123.348031</ele>
        <time>2021-11-04T18:35:32.846Z</time>
      </trkpt>
      <trkpt lat="49.306650" lon="2.846230">
        <ele>124.694728</ele>
        <time>2021-11-04T18:35:58.634Z</time>
      </trkpt>
      <trkpt lat="49.307059" lon="2.847288">
        <ele>125.694976</ele>
        <time>2021-11-04T18:36:14.429Z</time>
      </trkpt>
      <trkpt lat="49.308553" lon="2.851152">
        <ele>130.003998</ele>
        <time>2021-11-04T18:37:14.821Z</time>
      </trkpt>
      <trkpt lat="49.308925" lon="2.851842">
        <ele>131.128381</ele>
        <time>2021-11-04T18:37:28.429Z</time>
      </trkpt>
      <trkpt lat="49.309605" lon="2.853321">
        <ele>133.495764</ele>
        <time>2021-11-04T18:37:56.202Z</time>
      </trkpt>
      <trkpt lat="49.309869" lon="2.854255">
        <ele>134.466934</ele>
        <time>2021-11-04T18:38:10.740Z</time>
      </trkpt>
      <trkpt lat="49.310573" lon="2.856316">
        <ele>136.321527</ele>
        <time>2021-11-04T18:38:39.829Z</time>
      </trkpt>
      <trkpt lat="49.310583" lon="2.856352">
        <ele>136.339726</ele>
        <time>2021-11-04T18:38:40.258Z</time>
      </trkpt>
      <trkpt lat="49.310698" lon="2.856662">
        <ele>136.505606</ele>
        <time>2021-11-04T18:38:44.320Z</time>
      </trkpt>
      <trkpt lat="49.311168" lon="2.858035">
        <ele>137.226822</ele>
        <time>2021-11-04T18:39:01.715Z</time>
      </trkpt>
      <trkpt lat="49.311474" lon="2.859010">
        <ele>137.832828</ele>
        <time>2021-11-04T18:39:14.208Z</time>
      </trkpt>
      <trkpt lat="49.311657" lon="2.859398">
        <ele>138.132053</ele>
        <time>2021-11-04T18:39:19.920Z</time>
      </trkpt>
      <trkpt lat="49.311687" lon="2.859438">
        <ele>138.170150</ele>
        <time>2021-11-04T18:39:20.654Z</time>
      </trkpt>
      <trkpt lat="49.311727" lon="2.859480">
        <ele>138.216608</ele>
        <time>2021-11-04T18:39:21.527Z</time>
      </trkpt>
      <trkpt lat="49.311826" lon="2.859530">
        <ele>138.316502</ele>
        <time>2021-11-04T18:39:23.422Z</time>
      </trkpt>
      <trkpt lat="49.312058" lon="2.859625">
        <ele>138.546640</ele>
        <time>2021-11-04T18:39:29.193Z</time>
      </trkpt>
      <trkpt lat="49.314040" lon="2.860338">
        <ele>140.690111</ele>
        <time>2021-11-04T18:40:20.121Z</time>
      </trkpt>
      <trkpt lat="49.314914" lon="2.860697">
        <ele>141.273637</ele>
        <time>2021-11-04T18:40:41.472Z</time>
      </trkpt>
      <trkpt lat="49.314949" lon="2.860722">
        <ele>141.284906</ele>
        <time>2021-11-04T18:40:42.533Z</time>
      </trkpt>
      <trkpt lat="49.315016" lon="2.860780">
        <ele>141.307360</ele>
        <time>2021-11-04T18:40:44.244Z</time>
      </trkpt>
      <trkpt lat="49.315113" lon="2.860895">
        <ele>141.343141</ele>
        <time>2021-11-04T18:40:46.956Z</time>
      </trkpt>
      <trkpt lat="49.315178" lon="2.861017">
        <ele>141.373120</ele>
        <time>2021-11-04T18:40:49.028Z</time>
      </trkpt>
      <trkpt lat="49.316663" lon="2.864184">
        <ele>141.535690</ele>
        <time>2021-11-04T18:41:39.173Z</time>
      </trkpt>
      <trkpt lat="49.320288" lon="2.871755">
        <ele>143.178781</ele>
        <time>2021-11-04T18:43:50.054Z</time>
      </trkpt>
      <trkpt lat="49.321770" lon="2.874830">
        <ele>144.093815</ele>
        <time>2021-11-04T18:44:43.019Z</time>
      </trkpt>
      <trkpt lat="49.321974" lon="2.875142">
        <ele>144.232765</ele>
        <time>2021-11-04T18:44:49.588Z</time>
      </trkpt>
      <trkpt lat="49.327294" lon="2.877757">
        <ele>149.331651</ele>
        <time>2021-11-04T18:46:36.507Z</time>
      </trkpt>
      <trkpt lat="49.331609" lon="2.879742">
        <ele>141.866060</ele>
        <time>2021-11-04T18:47:26.834Z</time>
      </trkpt>
      <trkpt lat="49.333055" lon="2.880410">
        <ele>139.255943</ele>
        <time>2021-11-04T18:47:43.542Z</time>
      </trkpt>
      <trkpt lat="49.333207" lon="2.880805">
        <ele>138.816676</ele>
        <time>2021-11-04T18:47:47.015Z</time>
      </trkpt>
      <trkpt lat="49.333133" lon="2.881245">
        <ele>138.381537</ele>
        <time>2021-11-04T18:47:50.500Z</time>
      </trkpt>
      <trkpt lat="49.332518" lon="2.882210">
        <ele>136.969813</ele>
        <time>2021-11-04T18:48:00.998Z</time>
      </trkpt>
      <trkpt lat="49.332413" lon="2.882780">
        <ele>136.160979</ele>
        <time>2021-11-04T18:48:05.604Z</time>
      </trkpt>
      <trkpt lat="49.333075" lon="2.884539">
        <ele>133.039418</ele>
        <time>2021-11-04T18:48:19.846Z</time>
      </trkpt>
      <trkpt lat="49.333714" lon="2.885704">
        <ele>127.559767</ele>
        <time>2021-11-04T18:48:29.481Z</time>
      </trkpt>
      <trkpt lat="49.334394" lon="2.886473">
        <ele>122.115013</ele>
        <time>2021-11-04T18:48:36.972Z</time>
      </trkpt>
      <trkpt lat="49.334607" lon="2.887028">
        <ele>117.456225</ele>
        <time>2021-11-04T18:48:40.581Z</time>
      </trkpt>
      <trkpt lat="49.335642" lon="2.889730">
        <ele>96.235542</ele>
        <time>2021-11-04T18:48:57.833Z</time>
      </trkpt>
      <trkpt lat="49.335972" lon="2.890592">
        <ele>90.179626</ele>
        <time>2021-11-04T18:49:03.531Z</time>
      </trkpt>
      <trkpt lat="49.336191" lon="2.891270">
        <ele>86.512484</ele>
        <time>2021-11-04T18:49:08.107Z</time>
      </trkpt>
      <trkpt lat="49.336303" lon="2.891498">
        <ele>85.925446</ele>
        <time>2021-11-04T18:49:09.888Z</time>
      </trkpt>
      <trkpt lat="49.337404" lon="2.889720">
        <ele>81.078887</ele>
        <time>2021-11-04T18:49:26.897Z</time>
      </trkpt>
      <trkpt lat="49.337705" lon="2.889250">
        <ele>80.348488</ele>
        <time>2021-11-04T18:49:31.732Z</time>
      </trkpt>
      <trkpt lat="49.337930" lon="2.888971">
        <ele>79.856463</ele>
        <time>2021-11-04T18:49:35.003Z</time>
      </trkpt>
      <trkpt lat="49.338064" lon="2.888884">
        <ele>79.608979</ele>
        <time>2021-11-04T18:49:36.575Z</time>
      </trkpt>
      <trkpt lat="49.339554" lon="2.888613">
        <ele>77.807228</ele>
        <time>2021-11-04T18:49:54.185Z</time>
      </trkpt>
      <trkpt lat="49.341881" lon="2.887869">
        <ele>76.143692</ele>
        <time>2021-11-04T18:50:27.917Z</time>
      </trkpt>
      <trkpt lat="49.345130" lon="2.886712">
        <ele>70.180570</ele>
        <time>2021-11-04T18:51:04.310Z</time>
      </trkpt>
      <trkpt lat="49.348015" lon="2.883538">
        <ele>65.231329</ele>
        <time>2021-11-04T18:51:44.505Z</time>
      </trkpt>
      <trkpt lat="49.349800" lon="2.881573">
        <ele>65.644749</ele>
        <time>2021-11-04T18:52:24.860Z</time>
      </trkpt>
      <trkpt lat="49.349829" lon="2.881532">
        <ele>65.668509</ele>
        <time>2021-11-04T18:52:25.551Z</time>
      </trkpt>
      <trkpt lat="49.349938" lon="2.881416">
        <ele>65.748441</ele>
        <time>2021-11-04T18:52:27.859Z</time>
      </trkpt>
      <trkpt lat="49.350000" lon="2.881339">
        <ele>65.796502</ele>
        <time>2021-11-04T18:52:29.290Z</time>
      </trkpt>
      <trkpt lat="49.352142" lon="2.878964">
        <ele>64.217247</ele>
        <time>2021-11-04T18:53:03.917Z</time>
      </trkpt>
      <trkpt lat="49.354134" lon="2.877192">
        <ele>61.049223</ele>
        <time>2021-11-04T18:53:29.819Z</time>
      </trkpt>
      <trkpt lat="49.356060" lon="2.875365">
        <ele>58.128890</ele>
        <time>2021-11-04T18:53:57.219Z</time>
      </trkpt>
      <trkpt lat="49.356547" lon="2.875009">
        <ele>57.361995</ele>
        <time>2021-11-04T18:54:03.279Z</time>
      </trkpt>
      <trkpt lat="49.356768" lon="2.874805">
        <ele>56.971905</ele>
        <time>2021-11-04T18:54:06.115Z</time>
      </trkpt>
      <trkpt lat="49.360348" lon="2.872443">
        <ele>51.616211</ele>
        <time>2021-11-04T18:54:51.083Z</time>
      </trkpt>
      <trkpt lat="49.362474" lon="2.870881">
        <ele>50.477946</ele>
        <time>2021-11-04T18:55:23.306Z</time>
      </trkpt>
      <trkpt lat="49.363882" lon="2.869772">
        <ele>50.808053</ele>
        <time>2021-11-04T18:55:48.087Z</time>
      </trkpt>
      <trkpt lat="49.367732" lon="2.866799">
        <ele>53.492312</ele>
        <time>2021-11-04T18:57:03.247Z</time>
      </trkpt>
      <trkpt lat="49.367743" lon="2.867374">
        <ele>53.753250</ele>
        <time>2021-11-04T18:57:11.979Z</time>
      </trkpt>
      <trkpt lat="49.367760" lon="2.868967">
        <ele>54.475948</ele>
        <time>2021-11-04T18:57:36.003Z</time>
      </trkpt>
      <trkpt lat="49.367808" lon="2.873420">
        <ele>56.388747</ele>
        <time>2021-11-04T18:58:42.149Z</time>
      </trkpt>
      <trkpt lat="49.367850" lon="2.873525">
        <ele>56.440316</ele>
        <time>2021-11-04T18:58:44.080Z</time>
      </trkpt>
      <trkpt lat="49.367921" lon="2.873554">
        <ele>56.487530</ele>
        <time>2021-11-04T18:58:45.778Z</time>
      </trkpt>
      <trkpt lat="49.373505" lon="2.874454">
        <ele>59.843090</ele>
        <time>2021-11-04T19:00:53.115Z</time>
      </trkpt>
      <trkpt lat="49.376093" lon="2.874907">
        <ele>60.285238</ele>
        <time>2021-11-04T19:01:48.456Z</time>
      </trkpt>
      <trkpt lat="49.381127" lon="2.875855">
        <ele>57.402826</ele>
        <time>2021-11-04T19:03:20.413Z</time>
      </trkpt>
      <trkpt lat="49.381264" lon="2.875881">
        <ele>57.364766</ele>
        <time>2021-11-04T19:03:22.829Z</time>
      </trkpt>
      <trkpt lat="49.383585" lon="2.877994">
        <ele>57.841671</ele>
        <time>2021-11-04T19:04:17.171Z</time>
      </trkpt>
      <trkpt lat="49.387068" lon="2.881197">
        <ele>62.804865</ele>
        <time>2021-11-04T19:06:05.519Z</time>
      </trkpt>
      <trkpt lat="49.388791" lon="2.882726">
        <ele>61.912694</ele>
        <time>2021-11-04T19:06:40.319Z</time>
      </trkpt>
      <trkpt lat="49.390745" lon="2.884466">
        <ele>60.587942</ele>
        <time>2021-11-04T19:07:22.166Z</time>
      </trkpt>
      <trkpt lat="49.390363" lon="2.885103">
        <ele>60.117116</ele>
        <time>2021-11-04T19:07:29.579Z</time>
      </trkpt>
      <trkpt lat="49.393263" lon="2.888956">
        <ele>57.119657</ele>
        <time>2021-11-04T19:09:39.869Z</time>
      </trkpt>
      <trkpt lat="49.394786" lon="2.890944">
        <ele>57.106165</ele>
        <time>2021-11-04T19:10:52.384Z</time>
      </trkpt>
      <trkpt lat="49.396402" lon="2.893054">
        <ele>61.012563</ele>
        <time>2021-11-04T19:12:24.314Z</time>
      </trkpt>
      <trkpt lat="49.397984" lon="2.895181">
        <ele>71.435682</ele>
        <time>2021-11-04T19:13:55.868Z</time>
      </trkpt>
      <trkpt lat="49.399956" lon="2.897744">
        <ele>79.912944</ele>
        <time>2021-11-04T19:15:26.970Z</time>
      </trkpt>
      <trkpt lat="49.401156" lon="2.899291">
        <ele>80.245755</ele>
        <time>2021-11-04T19:15:57.542Z</time>
      </trkpt>
      <trkpt lat="49.404091" lon="2.903352">
        <ele>72.990661</ele>
        <time>2021-11-04T19:16:58.627Z</time>
      </trkpt>
      <trkpt lat="49.407308" lon="2.907773">
        <ele>67.119615</ele>
        <time>2021-11-04T19:18:10.823Z</time>
      </trkpt>
      <trkpt lat="49.407437" lon="2.907899">
        <ele>67.104993</ele>
        <time>2021-11-04T19:18:13.567Z</time>
      </trkpt>
      <trkpt lat="49.407599" lon="2.907924">
        <ele>67.150978</ele>
        <time>2021-11-04T19:18:16.820Z</time>
      </trkpt>
      <trkpt lat="49.413565" lon="2.907345">
        <ele>67.704132</ele>
        <time>2021-11-04T19:20:27.683Z</time>
      </trkpt>
      <trkpt lat="49.413813" lon="2.907355">
        <ele>67.375449</ele>
        <time>2021-11-04T19:20:31.697Z</time>
      </trkpt>
      <trkpt lat="49.414100" lon="2.907401">
        <ele>66.993148</ele>
        <time>2021-11-04T19:20:36.160Z</time>
      </trkpt>
      <trkpt lat="49.414504" lon="2.907188">
        <ele>66.330128</ele>
        <time>2021-11-04T19:20:42.470Z</time>
      </trkpt>
      <trkpt lat="49.414827" lon="2.906878">
        <ele>64.196805</ele>
        <time>2021-11-04T19:20:47.705Z</time>
      </trkpt>
      <trkpt lat="49.414984" lon="2.906411">
        <ele>62.280888</ele>
        <time>2021-11-04T19:20:52.190Z</time>
      </trkpt>
      <trkpt lat="49.415277" lon="2.906034">
        <ele>60.140216</ele>
        <time>2021-11-04T19:20:57.132Z</time>
      </trkpt>
      <trkpt lat="49.415538" lon="2.905938">
        <ele>58.636733</ele>
        <time>2021-11-04T19:21:00.599Z</time>
      </trkpt>
      <trkpt lat="49.415772" lon="2.906031">
        <ele>57.282682</ele>
        <time>2021-11-04T19:21:03.733Z</time>
      </trkpt>
      <trkpt lat="49.416069" lon="2.906262">
        <ele>55.666212</ele>
        <time>2021-11-04T19:21:08.056Z</time>
      </trkpt>
      <trkpt lat="49.416340" lon="2.906271">
        <ele>54.539210</ele>
        <time>2021-11-04T19:21:11.634Z</time>
      </trkpt>
      <trkpt lat="49.416747" lon="2.906712">
        <ele>52.468863</ele>
        <time>2021-11-04T19:21:18.484Z</time>
      </trkpt>
      <trkpt lat="49.416965" lon="2.906942">
        <ele>51.369527</ele>
        <time>2021-11-04T19:21:22.197Z</time>
      </trkpt>
      <trkpt lat="49.417030" lon="2.907013">
        <ele>51.037992</ele>
        <time>2021-11-04T19:21:23.392Z</time>
      </trkpt>
      <trkpt lat="49.417704" lon="2.907695">
        <ele>48.417450</ele>
        <time>2021-11-04T19:21:35.684Z</time>
      </trkpt>
      <trkpt lat="49.417769" lon="2.907718">
        <ele>48.307131</ele>
        <time>2021-11-04T19:21:36.811Z</time>
      </trkpt>
      <trkpt lat="49.417822" lon="2.907736">
        <ele>48.217358</ele>
        <time>2021-11-04T19:21:37.727Z</time>
      </trkpt>
      <trkpt lat="49.417861" lon="2.907789">
        <ele>48.131260</ele>
        <time>2021-11-04T19:21:38.582Z</time>
      </trkpt>
      <trkpt lat="49.417867" lon="2.907827">
        <ele>48.089187</ele>
        <time>2021-11-04T19:21:39.040Z</time>
      </trkpt>
      <trkpt lat="49.417965" lon="2.907974">
        <ele>47.862716</ele>
        <time>2021-11-04T19:21:43.632Z</time>
      </trkpt>
      <trkpt lat="49.418086" lon="2.908125">
        <ele>47.604941</ele>
        <time>2021-11-04T19:21:48.807Z</time>
      </trkpt>
      <trkpt lat="49.419810" lon="2.909876">
        <ele>44.600397</ele>
        <time>2021-11-04T19:22:12.628Z</time>
      </trkpt>
      <trkpt lat="49.420581" lon="2.910694">
        <ele>43.583665</ele>
        <time>2021-11-04T19:22:23.929Z</time>
      </trkpt>
      <trkpt lat="49.423994" lon="2.914232">
        <ele>41.488886</ele>
        <time>2021-11-04T19:23:21.716Z</time>
      </trkpt>
      <trkpt lat="49.424033" lon="2.914270">
        <ele>41.421244</ele>
        <time>2021-11-04T19:23:22.245Z</time>
      </trkpt>
      <trkpt lat="49.424104" lon="2.914267">
        <ele>41.317191</ele>
        <time>2021-11-04T19:23:22.930Z</time>
      </trkpt>
      <trkpt lat="49.424277" lon="2.914241">
        <ele>41.062543</ele>
        <time>2021-11-04T19:23:24.972Z</time>
      </trkpt>
      <trkpt lat="49.424982" lon="2.913904">
        <ele>39.980964</ele>
        <time>2021-11-04T19:23:32.824Z</time>
      </trkpt>
      <trkpt lat="49.426409" lon="2.913008">
        <ele>37.092570</ele>
        <time>2021-11-04T19:23:49.356Z</time>
      </trkpt>
      <trkpt lat="49.426625" lon="2.912804">
        <ele>36.613367</ele>
        <time>2021-11-04T19:23:52.391Z</time>
      </trkpt>
      <trkpt lat="49.426845" lon="2.912372">
        <ele>36.617391</ele>
        <time>2021-11-04T19:23:56.841Z</time>
      </trkpt>
      <trkpt lat="49.428546" lon="2.907962">
        <ele>39.249301</ele>
        <time>2021-11-04T19:24:58.472Z</time>
      </trkpt>
      <trkpt lat="49.428546" lon="2.907962">
        <ele>39.249301</ele>
        <time>2021-11-04T19:24:58.516Z</time>
      </trkpt>
      <trkpt lat="49.428882" lon="2.906984">
        <ele>40.353521</ele>
        <time>2021-11-04T19:25:11.850Z</time>
      </trkpt>
      <trkpt lat="49.428882" lon="2.906984">
        <ele>40.353521</ele>
        <time>2021-11-04T19:25:11.889Z</time>
      </trkpt>
      <trkpt lat="49.429221" lon="2.906086">
        <ele>41.390094</ele>
        <time>2021-11-04T19:25:24.407Z</time>
      </trkpt>
      <trkpt lat="49.429221" lon="2.906086">
        <ele>41.390094</ele>
        <time>2021-11-04T19:25:24.434Z</time>
      </trkpt>
      <trkpt lat="49.429296" lon="2.905932">
        <ele>41.582161</ele>
        <time>2021-11-04T19:25:27.879Z</time>
      </trkpt>
      <trkpt lat="49.429270" lon="2.905891">
        <ele>41.639329</ele>
        <time>2021-11-04T19:25:28.552Z</time>
      </trkpt>
      <trkpt lat="49.429229" lon="2.905799">
        <ele>41.750668</ele>
        <time>2021-11-04T19:25:29.862Z</time>
      </trkpt>
      <trkpt lat="49.429200" lon="2.905711">
        <ele>41.849154</ele>
        <time>2021-11-04T19:25:31.017Z</time>
      </trkpt>
      <trkpt lat="49.429174" lon="2.905606">
        <ele>41.961319</ele>
        <time>2021-11-04T19:25:32.333Z</time>
      </trkpt>
      <trkpt lat="49.429168" lon="2.905550">
        <ele>41.959306</ele>
        <time>2021-11-04T19:25:32.969Z</time>
      </trkpt>
      <trkpt lat="49.429133" lon="2.905275">
        <ele>41.941109</ele>
        <time>2021-11-04T19:25:36.173Z</time>
      </trkpt>
      <trkpt lat="49.428782" lon="2.902368">
        <ele>41.533017</ele>
        <time>2021-11-04T19:26:02.389Z</time>
      </trkpt>
      <trkpt lat="49.428397" lon="2.899143">
        <ele>40.005224</ele>
        <time>2021-11-04T19:26:28.961Z</time>
      </trkpt>
      <trkpt lat="49.428380" lon="2.899011">
        <ele>39.945230</ele>
        <time>2021-11-04T19:26:30.505Z</time>
      </trkpt>
      <trkpt lat="49.428356" lon="2.898804">
        <ele>39.851485</ele>
        <time>2021-11-04T19:26:32.936Z</time>
      </trkpt>
      <trkpt lat="49.428006" lon="2.895878">
        <ele>39.466649</ele>
        <time>2021-11-04T19:27:08.808Z</time>
      </trkpt>
      <trkpt lat="49.427402" lon="2.890911">
        <ele>42.015165</ele>
        <time>2021-11-04T19:28:31.354Z</time>
      </trkpt>
      <trkpt lat="49.427039" lon="2.887856">
        <ele>42.173401</ele>
        <time>2021-11-04T19:28:58.857Z</time>
      </trkpt>
      <trkpt lat="49.426878" lon="2.886501">
        <ele>42.053785</ele>
        <time>2021-11-04T19:29:11.697Z</time>
      </trkpt>
      <trkpt lat="49.426431" lon="2.882750">
        <ele>43.249013</ele>
        <time>2021-11-04T19:29:53.690Z</time>
      </trkpt>
      <trkpt lat="49.426333" lon="2.881834">
        <ele>43.605254</ele>
        <time>2021-11-04T19:30:04.128Z</time>
      </trkpt>
      <trkpt lat="49.426283" lon="2.881397">
        <ele>43.775529</ele>
        <time>2021-11-04T19:30:09.089Z</time>
      </trkpt>
      <trkpt lat="49.426268" lon="2.881321">
        <ele>43.806008</ele>
        <time>2021-11-04T19:30:10.081Z</time>
      </trkpt>
      <trkpt lat="49.426177" lon="2.881137">
        <ele>43.886014</ele>
        <time>2021-11-04T19:30:12.636Z</time>
      </trkpt>
      <trkpt lat="49.426122" lon="2.881092">
        <ele>43.898421</ele>
        <time>2021-11-04T19:30:13.756Z</time>
      </trkpt>
      <trkpt lat="49.426131" lon="2.881012">
        <ele>43.908938</ele>
        <time>2021-11-04T19:30:14.747Z</time>
      </trkpt>
      <trkpt lat="49.426136" lon="2.880475">
        <ele>43.978503</ele>
        <time>2021-11-04T19:30:20.961Z</time>
      </trkpt>
      <trkpt lat="49.426079" lon="2.879960">
        <ele>44.046170</ele>
        <time>2021-11-04T19:30:26.784Z</time>
      </trkpt>
      <trkpt lat="49.425907" lon="2.878385">
        <ele>44.127662</ele>
        <time>2021-11-04T19:30:42.430Z</time>
      </trkpt>
      <trkpt lat="49.425901" lon="2.878015">
        <ele>43.722344</ele>
        <time>2021-11-04T19:30:45.540Z</time>
      </trkpt>
      <trkpt lat="49.425863" lon="2.877685">
        <ele>43.355337</ele>
        <time>2021-11-04T19:30:47.930Z</time>
      </trkpt>
      <trkpt lat="49.425823" lon="2.877424">
        <ele>43.061686</ele>
        <time>2021-11-04T19:30:50.217Z</time>
      </trkpt>
      <trkpt lat="49.425798" lon="2.877169">
        <ele>42.779277</ele>
        <time>2021-11-04T19:30:51.942Z</time>
      </trkpt>
      <trkpt lat="49.425794" lon="2.876828">
        <ele>42.405782</ele>
        <time>2021-11-04T19:30:54.444Z</time>
      </trkpt>
      <trkpt lat="49.425804" lon="2.876696">
        <ele>42.260250</ele>
        <time>2021-11-04T19:30:55.285Z</time>
      </trkpt>
      <trkpt lat="49.425855" lon="2.876636">
        <ele>42.152127</ele>
        <time>2021-11-04T19:30:55.979Z</time>
      </trkpt>
      <trkpt lat="49.425933" lon="2.876372">
        <ele>41.834588</ele>
        <time>2021-11-04T19:30:58.098Z</time>
      </trkpt>
      <trkpt lat="49.425929" lon="2.876274">
        <ele>41.727056</ele>
        <time>2021-11-04T19:30:58.727Z</time>
      </trkpt>
      <trkpt lat="49.425909" lon="2.876177">
        <ele>41.615621</ele>
        <time>2021-11-04T19:30:59.396Z</time>
      </trkpt>
      <trkpt lat="49.425874" lon="2.876092">
        <ele>41.505451</ele>
        <time>2021-11-04T19:31:00.115Z</time>
      </trkpt>
      <trkpt lat="49.425827" lon="2.876022">
        <ele>41.395277</ele>
        <time>2021-11-04T19:31:00.819Z</time>
      </trkpt>
      <trkpt lat="49.425776" lon="2.875976">
        <ele>41.295724</ele>
        <time>2021-11-04T19:31:01.465Z</time>
      </trkpt>
      <trkpt lat="49.425719" lon="2.875949">
        <ele>41.211765</ele>
        <time>2021-11-04T19:31:02.199Z</time>
      </trkpt>
      <trkpt lat="49.425677" lon="2.875866">
        <ele>41.213994</ele>
        <time>2021-11-04T19:31:02.849Z</time>
      </trkpt>
      <trkpt lat="49.425560" lon="2.875255">
        <ele>41.227496</ele>
        <time>2021-11-04T19:31:07.333Z</time>
      </trkpt>
      <trkpt lat="49.425502" lon="2.874998">
        <ele>41.233262</ele>
        <time>2021-11-04T19:31:09.334Z</time>
      </trkpt>
      <trkpt lat="49.424399" lon="2.865676">
        <ele>42.252945</ele>
        <time>2021-11-04T19:32:49.837Z</time>
      </trkpt>
      <trkpt lat="49.424326" lon="2.865056">
        <ele>42.539561</ele>
        <time>2021-11-04T19:32:57.834Z</time>
      </trkpt>
      <trkpt lat="49.423853" lon="2.861070">
        <ele>45.769088</ele>
        <time>2021-11-04T19:33:52.810Z</time>
      </trkpt>
      <trkpt lat="49.422980" lon="2.853662">
        <ele>48.730215</ele>
        <time>2021-11-04T19:35:16.628Z</time>
      </trkpt>
      <trkpt lat="49.422891" lon="2.852931">
        <ele>48.489030</ele>
        <time>2021-11-04T19:35:23.340Z</time>
      </trkpt>
      <trkpt lat="49.422827" lon="2.852430">
        <ele>48.323449</ele>
        <time>2021-11-04T19:35:27.781Z</time>
      </trkpt>
      <trkpt lat="49.422363" lon="2.848513">
        <ele>45.030673</ele>
        <time>2021-11-04T19:35:57.793Z</time>
      </trkpt>
      <trkpt lat="49.422335" lon="2.848279">
        <ele>44.768885</ele>
        <time>2021-11-04T19:35:59.448Z</time>
      </trkpt>
      <trkpt lat="49.422246" lon="2.847482">
        <ele>43.879127</ele>
        <time>2021-11-04T19:36:05.126Z</time>
      </trkpt>
      <trkpt lat="49.422232" lon="2.847356">
        <ele>43.738482</ele>
        <time>2021-11-04T19:36:06.064Z</time>
      </trkpt>
      <trkpt lat="49.422020" lon="2.845589">
        <ele>42.173579</ele>
        <time>2021-11-04T19:36:19.473Z</time>
      </trkpt>
      <trkpt lat="49.422005" lon="2.845465">
        <ele>42.137920</ele>
        <time>2021-11-04T19:36:20.438Z</time>
      </trkpt>
      <trkpt lat="49.421901" lon="2.844599">
        <ele>41.888938</ele>
        <time>2021-11-04T19:36:28.667Z</time>
      </trkpt>
      <trkpt lat="49.421882" lon="2.844442">
        <ele>41.843787</ele>
        <time>2021-11-04T19:36:30.060Z</time>
      </trkpt>
      <trkpt lat="49.421849" lon="2.844175">
        <ele>41.766948</ele>
        <time>2021-11-04T19:36:32.670Z</time>
      </trkpt>
      <trkpt lat="49.421802" lon="2.843774">
        <ele>41.651747</ele>
        <time>2021-11-04T19:36:36.492Z</time>
      </trkpt>
      <trkpt lat="49.421775" lon="2.843548">
        <ele>41.586781</ele>
        <time>2021-11-04T19:36:38.698Z</time>
      </trkpt>
      <trkpt lat="49.421752" lon="2.843346">
        <ele>41.534550</ele>
        <time>2021-11-04T19:36:40.560Z</time>
      </trkpt>
      <trkpt lat="49.421744" lon="2.843281">
        <ele>41.535328</ele>
        <time>2021-11-04T19:36:41.163Z</time>
      </trkpt>
      <trkpt lat="49.421673" lon="2.842676">
        <ele>41.542556</ele>
        <time>2021-11-04T19:36:47.565Z</time>
      </trkpt>
      <trkpt lat="49.421632" lon="2.842324">
        <ele>41.546760</ele>
        <time>2021-11-04T19:36:51.252Z</time>
      </trkpt>
      <trkpt lat="49.421497" lon="2.841196">
        <ele>41.560245</ele>
        <time>2021-11-04T19:37:02.894Z</time>
      </trkpt>
      <trkpt lat="49.421453" lon="2.840861">
        <ele>41.564263</ele>
        <time>2021-11-04T19:37:06.035Z</time>
      </trkpt>
      <trkpt lat="49.421450" lon="2.840817">
        <ele>41.564784</ele>
        <time>2021-11-04T19:37:06.556Z</time>
      </trkpt>
      <trkpt lat="49.421432" lon="2.840626">
        <ele>41.560788</ele>
        <time>2021-11-04T19:37:08.172Z</time>
      </trkpt>
      <trkpt lat="49.421424" lon="2.840478">
        <ele>41.513317</ele>
        <time>2021-11-04T19:37:09.486Z</time>
      </trkpt>
      <trkpt lat="49.421417" lon="2.840317">
        <ele>41.461739</ele>
        <time>2021-11-04T19:37:10.787Z</time>
      </trkpt>
      <trkpt lat="49.421421" lon="2.840177">
        <ele>41.416945</ele>
        <time>2021-11-04T19:37:11.972Z</time>
      </trkpt>
      <trkpt lat="49.421428" lon="2.840059">
        <ele>41.379070</ele>
        <time>2021-11-04T19:37:12.961Z</time>
      </trkpt>
      <trkpt lat="49.421437" lon="2.839966">
        <ele>41.349016</ele>
        <time>2021-11-04T19:37:13.744Z</time>
      </trkpt>
      <trkpt lat="49.421449" lon="2.839886">
        <ele>41.322773</ele>
        <time>2021-11-04T19:37:14.484Z</time>
      </trkpt>
      <trkpt lat="49.421467" lon="2.839801">
        <ele>41.294199</ele>
        <time>2021-11-04T19:37:15.241Z</time>
      </trkpt>
      <trkpt lat="49.421482" lon="2.839727">
        <ele>41.269423</ele>
        <time>2021-11-04T19:37:16.032Z</time>
      </trkpt>
      <trkpt lat="49.421511" lon="2.839593">
        <ele>41.224282</ele>
        <time>2021-11-04T19:37:17.196Z</time>
      </trkpt>
      <trkpt lat="49.421560" lon="2.839409">
        <ele>41.160729</ele>
        <time>2021-11-04T19:37:18.889Z</time>
      </trkpt>
      <trkpt lat="49.422160" lon="2.836993">
        <ele>40.090608</ele>
        <time>2021-11-04T19:37:41.123Z</time>
      </trkpt>
      <trkpt lat="49.422187" lon="2.836884">
        <ele>40.027307</ele>
        <time>2021-11-04T19:37:42.121Z</time>
      </trkpt>
      <trkpt lat="49.422246" lon="2.836651">
        <ele>39.891608</ele>
        <time>2021-11-04T19:37:44.140Z</time>
      </trkpt>
      <trkpt lat="49.422307" lon="2.836415">
        <ele>39.753784</ele>
        <time>2021-11-04T19:37:46.103Z</time>
      </trkpt>
      <trkpt lat="49.422739" lon="2.834671">
        <ele>38.915661</ele>
        <time>2021-11-04T19:38:00.741Z</time>
      </trkpt>
      <trkpt lat="49.422774" lon="2.834530">
        <ele>38.866175</ele>
        <time>2021-11-04T19:38:01.897Z</time>
      </trkpt>
      <trkpt lat="49.422867" lon="2.834158">
        <ele>38.735499</ele>
        <time>2021-11-04T19:38:05.191Z</time>
      </trkpt>
      <trkpt lat="49.423185" lon="2.832877">
        <ele>38.285916</ele>
        <time>2021-11-04T19:38:18.459Z</time>
      </trkpt>
      <trkpt lat="49.423207" lon="2.832788">
        <ele>38.275204</ele>
        <time>2021-11-04T19:38:19.197Z</time>
      </trkpt>
      <trkpt lat="49.423269" lon="2.832502">
        <ele>38.273239</ele>
        <time>2021-11-04T19:38:22.626Z</time>
      </trkpt>
      <trkpt lat="49.423289" lon="2.832402">
        <ele>38.272558</ele>
        <time>2021-11-04T19:38:23.466Z</time>
      </trkpt>
      <trkpt lat="49.423296" lon="2.832184">
        <ele>38.271135</ele>
        <time>2021-11-04T19:38:25.181Z</time>
      </trkpt>
      <trkpt lat="49.423285" lon="2.831919">
        <ele>38.269405</ele>
        <time>2021-11-04T19:38:28.304Z</time>
      </trkpt>
      <trkpt lat="49.423175" lon="2.831479">
        <ele>38.266334</ele>
        <time>2021-11-04T19:38:32.678Z</time>
      </trkpt>
      <trkpt lat="49.422947" lon="2.830993">
        <ele>38.262429</ele>
        <time>2021-11-04T19:38:38.793Z</time>
      </trkpt>
      <trkpt lat="49.423035" lon="2.830892">
        <ele>38.261329</ele>
        <time>2021-11-04T19:38:40.247Z</time>
      </trkpt>
      <trkpt lat="49.422695" lon="2.830163">
        <ele>38.154422</ele>
        <time>2021-11-04T19:38:49.572Z</time>
      </trkpt>
      <trkpt lat="49.421044" lon="2.826686">
        <ele>36.625646</ele>
        <time>2021-11-04T19:39:25.608Z</time>
      </trkpt>
      <trkpt lat="49.419828" lon="2.824118">
        <ele>35.203541</ele>
        <time>2021-11-04T19:39:52.587Z</time>
      </trkpt>
      <trkpt lat="49.419801" lon="2.824078">
        <ele>35.176745</ele>
        <time>2021-11-04T19:39:53.016Z</time>
      </trkpt>
      <trkpt lat="49.419710" lon="2.823907">
        <ele>35.074042</ele>
        <time>2021-11-04T19:39:54.715Z</time>
      </trkpt>
      <trkpt lat="49.419621" lon="2.823722">
        <ele>34.964491</ele>
        <time>2021-11-04T19:39:56.647Z</time>
      </trkpt>
      <trkpt lat="49.419732" lon="2.823604">
        <ele>34.840755</ele>
        <time>2021-11-04T19:39:58.215Z</time>
      </trkpt>
      <trkpt lat="49.419738" lon="2.823597">
        <ele>34.833848</ele>
        <time>2021-11-04T19:39:58.306Z</time>
      </trkpt>
      <trkpt lat="49.419783" lon="2.823551">
        <ele>34.784300</ele>
        <time>2021-11-04T19:39:58.932Z</time>
      </trkpt>
      <trkpt lat="49.420396" lon="2.822926">
        <ele>34.109878</ele>
        <time>2021-11-04T19:40:07.836Z</time>
      </trkpt>
      <trkpt lat="49.420407" lon="2.822915">
        <ele>34.097847</ele>
        <time>2021-11-04T19:40:08.001Z</time>
      </trkpt>
      <trkpt lat="49.420432" lon="2.822886">
        <ele>34.069132</ele>
        <time>2021-11-04T19:40:08.386Z</time>
      </trkpt>
      <trkpt lat="49.420466" lon="2.822859">
        <ele>34.034044</ele>
        <time>2021-11-04T19:40:08.911Z</time>
      </trkpt>
      <trkpt lat="49.420526" lon="2.822880">
        <ele>33.977625</ele>
        <time>2021-11-04T19:40:09.750Z</time>
      </trkpt>
      <trkpt lat="49.420608" lon="2.822950">
        <ele>33.891627</ele>
        <time>2021-11-04T19:40:10.834Z</time>
      </trkpt>
      <trkpt lat="49.420696" lon="2.823065">
        <ele>33.785729</ele>
        <time>2021-11-04T19:40:12.232Z</time>
      </trkpt>
      <trkpt lat="49.420965" lon="2.823559">
        <ele>33.401493</ele>
        <time>2021-11-04T19:40:17.375Z</time>
      </trkpt>
      <trkpt lat="49.421258" lon="2.824104">
        <ele>33.327102</ele>
        <time>2021-11-04T19:40:23.582Z</time>
      </trkpt>
      <trkpt lat="49.421288" lon="2.824161">
        <ele>33.327102</ele>
        <time>2021-11-04T19:40:24.236Z</time>
      </trkpt>
      <trkpt lat="49.421407" lon="2.824363">
        <ele>33.327102</ele>
        <time>2021-11-04T19:40:26.869Z</time>
      </trkpt>
      <trkpt lat="49.421494" lon="2.824491">
        <ele>33.327102</ele>
        <time>2021-11-04T19:40:29.000Z</time>
      </trkpt>
      <trkpt lat="49.421582" lon="2.824630">
        <ele>33.327102</ele>
        <time>2021-11-04T19:40:31.092Z</time>
      </trkpt>
      <trkpt lat="49.421638" lon="2.824626">
        <ele>33.327102</ele>
        <time>2021-11-04T19:40:32.068Z</time>
      </trkpt>
      <trkpt lat="49.421654" lon="2.824609">
        <ele>33.327102</ele>
        <time>2021-11-04T19:40:32.402Z</time>
      </trkpt>
      <trkpt lat="49.421689" lon="2.824570">
        <ele>33.327102</ele>
        <time>2021-11-04T19:40:33.085Z</time>
      </trkpt>
      <trkpt lat="49.421725" lon="2.824529">
        <ele>33.327102</ele>
        <time>2021-11-04T19:40:33.793Z</time>
      </trkpt>
      <trkpt lat="49.421760" lon="2.824487">
        <ele>33.327102</ele>
        <time>2021-11-04T19:40:34.515Z</time>
      </trkpt>
      <trkpt lat="49.421797" lon="2.824445">
        <ele>33.327102</ele>
        <time>2021-11-04T19:40:35.257Z</time>
      </trkpt>
      <trkpt lat="49.421832" lon="2.824400">
        <ele>33.327102</ele>
        <time>2021-11-04T19:40:35.976Z</time>
      </trkpt>
      <trkpt lat="49.421867" lon="2.824359">
        <ele>33.327102</ele>
        <time>2021-11-04T19:40:36.705Z</time>
      </trkpt>
      <trkpt lat="49.421903" lon="2.824317">
        <ele>33.327102</ele>
        <time>2021-11-04T19:40:37.435Z</time>
      </trkpt>
      <trkpt lat="49.421939" lon="2.824276">
        <ele>33.327102</ele>
        <time>2021-11-04T19:40:38.160Z</time>
      </trkpt>
      <trkpt lat="49.421975" lon="2.824234">
        <ele>33.327102</ele>
        <time>2021-11-04T19:40:38.868Z</time>
      </trkpt>
      <trkpt lat="49.422011" lon="2.824192">
        <ele>33.327102</ele>
        <time>2021-11-04T19:40:39.582Z</time>
      </trkpt>
      <trkpt lat="49.422048" lon="2.824148">
        <ele>33.327102</ele>
        <time>2021-11-04T19:40:40.358Z</time>
      </trkpt>
      <trkpt lat="49.422069" lon="2.824076">
        <ele>33.327102</ele>
        <time>2021-11-04T19:40:41.208Z</time>
      </trkpt>
      <trkpt lat="49.422069" lon="2.824044">
        <ele>33.327102</ele>
        <time>2021-11-04T19:40:41.533Z</time>
      </trkpt>
      <trkpt lat="49.422052" lon="2.823945">
        <ele>33.327102</ele>
        <time>2021-11-04T19:40:42.645Z</time>
      </trkpt>
      <trkpt lat="49.422032" lon="2.823896">
        <ele>33.327102</ele>
        <time>2021-11-04T19:40:43.260Z</time>
      </trkpt>
      <trkpt lat="49.422011" lon="2.823848">
        <ele>33.327102</ele>
        <time>2021-11-04T19:40:43.886Z</time>
      </trkpt>
      <trkpt lat="49.421966" lon="2.823748">
        <ele>33.327102</ele>
        <time>2021-11-04T19:40:45.135Z</time>
      </trkpt>
      <trkpt lat="49.421932" lon="2.823671">
        <ele>33.327102</ele>
        <time>2021-11-04T19:40:46.132Z</time>
      </trkpt>
      <trkpt lat="49.421874" lon="2.823541">
        <ele>33.327102</ele>
        <time>2021-11-04T19:40:47.822Z</time>
      </trkpt>
      <trkpt lat="49.421836" lon="2.823456">
        <ele>33.327102</ele>
        <time>2021-11-04T19:40:48.946Z</time>
      </trkpt>
    </trkseg>
  </trk>
</gpx>